Wetterdaten: Montag, 08.08.2016
Datum Zeit Temp. A. Feuchte A. Luftdruck Regen Wind Richtung Richtung Sonnenschein ET UV Solar Taupunkt Windchill Windben Empfang
08.08.2016 00:00 15,6 C 83 % 1023,5 hPa 0,0 l/m 3,3 km/h (1 Bft) S 189 0 min 0,000 mm 0,0 UV-I 0 W/m 12,7 C 15,6 C 4,8 km/h (1 Bft) 95,74 %
08.08.2016 00:02 15,5 C 83 % 1023,5 hPa 0,0 l/m 3,5 km/h (1 Bft) S 189 0 min 0,000 mm 0,0 UV-I 0 W/m 12,6 C 15,5 C 4,8 km/h (1 Bft) 97,56 %
08.08.2016 00:04 15,5 C 83 % 1023,5 hPa 0,0 l/m 3,1 km/h (1 Bft) S 189 0 min 0,000 mm 0,0 UV-I 0 W/m 12,6 C 15,5 C 4,8 km/h (1 Bft) 95,74 %
08.08.2016 00:06 15,5 C 82 % 1023,5 hPa 0,0 l/m 4,0 km/h (1 Bft) S-SW 211 0 min 0,000 mm 0,0 UV-I 0 W/m 12,4 C 15,5 C 6,4 km/h (2 Bft) 95,74 %
08.08.2016 00:08 15,5 C 83 % 1023,5 hPa 0,0 l/m 4,8 km/h (1 Bft) S-SW 197 0 min 0,000 mm 0,0 UV-I 0 W/m 12,6 C 15,5 C 6,4 km/h (2 Bft) 97,56 %
08.08.2016 00:10 15,4 C 83 % 1023,5 hPa 0,0 l/m 4,0 km/h (1 Bft) S-SW 197 0 min 0,000 mm 0,0 UV-I 0 W/m 12,5 C 15,4 C 6,4 km/h (2 Bft) 95,74 %
08.08.2016 00:12 15,4 C 83 % 1023,5 hPa 0,0 l/m 3,6 km/h (1 Bft) S-SW 197 0 min 0,000 mm 0,0 UV-I 0 W/m 12,5 C 15,4 C 4,8 km/h (1 Bft) 95,74 %
08.08.2016 00:14 15,3 C 83 % 1023,5 hPa 0,0 l/m 2,7 km/h (1 Bft) S-SW 197 0 min 0,000 mm 0,0 UV-I 0 W/m 12,4 C 15,3 C 4,8 km/h (1 Bft) 97,87 %
08.08.2016 00:16 15,3 C 83 % 1023,5 hPa 0,0 l/m 2,5 km/h (1 Bft) S-SW 197 0 min 0,000 mm 0,0 UV-I 0 W/m 12,4 C 15,3 C 3,2 km/h (1 Bft) 98,00 %
08.08.2016 00:18 15,3 C 83 % 1023,5 hPa 0,0 l/m 3,0 km/h (1 Bft) S-SW 197 0 min 0,000 mm 0,0 UV-I 0 W/m 12,4 C 15,3 C 4,8 km/h (1 Bft) 96,00 %
08.08.2016 00:20 15,3 C 83 % 1023,5 hPa 0,0 l/m 3,3 km/h (1 Bft) S-SW 197 0 min 0,000 mm 0,0 UV-I 0 W/m 12,4 C 15,3 C 4,8 km/h (1 Bft) 100,00 %
08.08.2016 00:22 15,3 C 83 % 1023,4 hPa 0,0 l/m 2,8 km/h (1 Bft) S-SW 196 0 min 0,000 mm 0,0 UV-I 0 W/m 12,4 C 15,3 C 4,8 km/h (1 Bft) 97,37 %
08.08.2016 00:24 15,3 C 83 % 1023,5 hPa 0,0 l/m 2,0 km/h (1 Bft) S-SW 196 0 min 0,000 mm 0,0 UV-I 0 W/m 12,4 C 15,3 C 3,2 km/h (1 Bft) 97,87 %
08.08.2016 00:26 15,3 C 83 % 1023,4 hPa 0,0 l/m 2,4 km/h (1 Bft) S-SW 196 0 min 0,000 mm 0,0 UV-I 0 W/m 12,4 C 15,3 C 3,2 km/h (1 Bft) 98,00 %
08.08.2016 00:28 15,2 C 83 % 1023,4 hPa 0,0 l/m 3,2 km/h (1 Bft) S-SW 196 0 min 0,000 mm 0,0 UV-I 0 W/m 12,3 C 15,2 C 4,8 km/h (1 Bft) 98,00 %
08.08.2016 00:30 15,2 C 83 % 1023,4 hPa 0,0 l/m 3,7 km/h (1 Bft) S-SW 197 0 min 0,000 mm 0,0 UV-I 0 W/m 12,3 C 15,2 C 6,4 km/h (2 Bft) 100,00 %
08.08.2016 00:32 15,2 C 83 % 1023,4 hPa 0,0 l/m 3,9 km/h (1 Bft) S-SW 197 0 min 0,000 mm 0,0 UV-I 0 W/m 12,3 C 15,2 C 4,8 km/h (1 Bft) 100,00 %
08.08.2016 00:34 15,2 C 84 % 1023,4 hPa 0,0 l/m 3,8 km/h (1 Bft) S-SW 197 0 min 0,000 mm 0,0 UV-I 0 W/m 12,5 C 15,2 C 4,8 km/h (1 Bft) 100,00 %
08.08.2016 00:36 15,1 C 84 % 1023,4 hPa 0,0 l/m 3,8 km/h (1 Bft) S-SW 197 0 min 0,000 mm 0,0 UV-I 0 W/m 12,4 C 15,1 C 4,8 km/h (1 Bft) 97,37 %
08.08.2016 00:38 15,1 C 84 % 1023,4 hPa 0,0 l/m 4,9 km/h (1 Bft) S-SW 198 0 min 0,000 mm 0,0 UV-I 0 W/m 12,4 C 15,1 C 6,4 km/h (2 Bft) 100,00 %
08.08.2016 00:40 15,0 C 84 % 1023,3 hPa 0,0 l/m 3,8 km/h (1 Bft) S-SW 198 0 min 0,000 mm 0,0 UV-I 0 W/m 12,3 C 15,0 C 6,4 km/h (2 Bft) 98,00 %
08.08.2016 00:42 15,0 C 84 % 1023,3 hPa 0,0 l/m 5,0 km/h (1 Bft) S-SW 197 0 min 0,000 mm 0,0 UV-I 0 W/m 12,3 C 15,0 C 8,0 km/h (2 Bft) 100,00 %
08.08.2016 00:44 14,9 C 84 % 1023,3 hPa 0,0 l/m 4,2 km/h (1 Bft) S-SW 196 0 min 0,000 mm 0,0 UV-I 0 W/m 12,2 C 14,9 C 4,8 km/h (1 Bft) 100,00 %
08.08.2016 00:46 14,9 C 84 % 1023,3 hPa 0,0 l/m 4,6 km/h (1 Bft) S-SW 195 0 min 0,000 mm 0,0 UV-I 0 W/m 12,2 C 14,9 C 6,4 km/h (2 Bft) 100,00 %
08.08.2016 00:48 14,8 C 85 % 1023,3 hPa 0,0 l/m 5,5 km/h (1 Bft) S-SW 201 0 min 0,000 mm 0,0 UV-I 0 W/m 12,3 C 14,8 C 8,0 km/h (2 Bft) 100,00 %
08.08.2016 00:50 14,8 C 85 % 1023,3 hPa 0,0 l/m 5,0 km/h (1 Bft) S-SW 203 0 min 0,000 mm 0,0 UV-I 0 W/m 12,3 C 14,8 C 6,4 km/h (2 Bft) 100,00 %
08.08.2016 00:52 14,8 C 85 % 1023,3 hPa 0,0 l/m 4,5 km/h (1 Bft) S-SW 207 0 min 0,000 mm 0,0 UV-I 0 W/m 12,3 C 14,8 C 6,4 km/h (2 Bft) 98,00 %
08.08.2016 00:54 14,7 C 85 % 1023,3 hPa 0,0 l/m 5,9 km/h (2 Bft) SW 215 0 min 0,000 mm 0,0 UV-I 0 W/m 12,2 C 14,7 C 8,0 km/h (2 Bft) 100,00 %
08.08.2016 00:56 14,6 C 85 % 1023,3 hPa 0,0 l/m 4,9 km/h (1 Bft) S-SW 196 0 min 0,000 mm 0,0 UV-I 0 W/m 12,1 C 14,6 C 6,4 km/h (2 Bft) 97,37 %
08.08.2016 00:58 14,6 C 86 % 1023,3 hPa 0,0 l/m 3,5 km/h (1 Bft) S-SW 196 0 min 0,000 mm 0,0 UV-I 0 W/m 12,3 C 14,6 C 4,8 km/h (1 Bft) 100,00 %
08.08.2016 01:00 14,6 C 86 % 1023,3 hPa 0,0 l/m 4,0 km/h (1 Bft) S-SW 196 0 min 0,000 mm 0,0 UV-I 0 W/m 12,3 C 14,6 C 6,4 km/h (2 Bft) 100,00 %
08.08.2016 01:02 14,6 C 86 % 1023,3 hPa 0,0 l/m 2,5 km/h (1 Bft) S-SW 196 0 min 0,000 mm 0,0 UV-I 0 W/m 12,3 C 14,6 C 4,8 km/h (1 Bft) 100,00 %
08.08.2016 01:04 14,6 C 86 % 1023,3 hPa 0,0 l/m 2,0 km/h (1 Bft) S-SW 196 0 min 0,000 mm 0,0 UV-I 0 W/m 12,3 C 14,6 C 3,2 km/h (1 Bft) 97,37 %
08.08.2016 01:06 14,6 C 86 % 1023,3 hPa 0,0 l/m 3,7 km/h (1 Bft) S-SW 207 0 min 0,000 mm 0,0 UV-I 0 W/m 12,3 C 14,6 C 4,8 km/h (1 Bft) 100,00 %
08.08.2016 01:08 14,5 C 86 % 1023,2 hPa 0,0 l/m 4,2 km/h (1 Bft) S-SW 211 0 min 0,000 mm 0,0 UV-I 0 W/m 12,2 C 14,5 C 6,4 km/h (2 Bft) 100,00 %
08.08.2016 01:10 14,5 C 86 % 1023,2 hPa 0,0 l/m 4,4 km/h (1 Bft) S-SW 200 0 min 0,000 mm 0,0 UV-I 0 W/m 12,2 C 14,5 C 6,4 km/h (2 Bft) 97,87 %
08.08.2016 01:12 14,4 C 86 % 1023,2 hPa 0,0 l/m 3,9 km/h (1 Bft) S-SW 200 0 min 0,000 mm 0,0 UV-I 0 W/m 12,1 C 14,4 C 4,8 km/h (1 Bft) 100,00 %
08.08.2016 01:14 14,4 C 86 % 1023,2 hPa 0,0 l/m 3,7 km/h (1 Bft) S-SW 198 0 min 0,000 mm 0,0 UV-I 0 W/m 12,1 C 14,4 C 4,8 km/h (1 Bft) 100,00 %
08.08.2016 01:16 14,4 C 86 % 1023,2 hPa 0,0 l/m 3,3 km/h (1 Bft) S-SW 198 0 min 0,000 mm 0,0 UV-I 0 W/m 12,1 C 14,4 C 4,8 km/h (1 Bft) 100,00 %
08.08.2016 01:18 14,4 C 86 % 1023,2 hPa 0,0 l/m 3,6 km/h (1 Bft) S-SW 212 0 min 0,000 mm 0,0 UV-I 0 W/m 12,1 C 14,4 C 6,4 km/h (2 Bft) 100,00 %
08.08.2016 01:20 14,4 C 86 % 1023,2 hPa 0,0 l/m 4,8 km/h (1 Bft) S-SW 211 0 min 0,000 mm 0,0 UV-I 0 W/m 12,1 C 14,4 C 6,4 km/h (2 Bft) 100,00 %
08.08.2016 01:22 14,4 C 86 % 1023,2 hPa 0,0 l/m 4,0 km/h (1 Bft) S-SW 208 0 min 0,000 mm 0,0 UV-I 0 W/m 12,1 C 14,4 C 6,4 km/h (2 Bft) 100,00 %
08.08.2016 01:24 14,3 C 86 % 1023,1 hPa 0,0 l/m 4,6 km/h (1 Bft) S-SW 192 0 min 0,000 mm 0,0 UV-I 0 W/m 12,0 C 14,3 C 6,4 km/h (2 Bft) 97,87 %
08.08.2016 01:26 14,3 C 86 % 1023,1 hPa 0,0 l/m 4,2 km/h (1 Bft) S-SW 192 0 min 0,000 mm 0,0 UV-I 0 W/m 12,0 C 14,3 C 6,4 km/h (2 Bft) 100,00 %
08.08.2016 01:28 14,3 C 86 % 1023,1 hPa 0,0 l/m 4,5 km/h (1 Bft) S-SW 197 0 min 0,000 mm 0,0 UV-I 0 W/m 12,0 C 14,3 C 4,8 km/h (1 Bft) 100,00 %
08.08.2016 01:30 14,3 C 87 % 1023,1 hPa 0,0 l/m 4,5 km/h (1 Bft) S 191 0 min 0,000 mm 0,0 UV-I 0 W/m 12,2 C 14,3 C 6,4 km/h (2 Bft) 97,87 %
08.08.2016 01:32 14,3 C 86 % 1023,1 hPa 0,0 l/m 5,0 km/h (1 Bft) S-SW 201 0 min 0,000 mm 0,0 UV-I 0 W/m 12,0 C 14,3 C 6,4 km/h (2 Bft) 100,00 %
08.08.2016 01:34 14,3 C 86 % 1023,1 hPa 0,0 l/m 5,0 km/h (1 Bft) S-SW 200 0 min 0,000 mm 0,0 UV-I 0 W/m 12,0 C 14,3 C 6,4 km/h (2 Bft) 100,00 %
08.08.2016 01:36 14,2 C 86 % 1023,1 hPa 0,0 l/m 3,5 km/h (1 Bft) S-SW 200 0 min 0,000 mm 0,0 UV-I 0 W/m 11,9 C 14,2 C 6,4 km/h (2 Bft) 100,00 %
08.08.2016 01:38 14,3 C 86 % 1023,1 hPa 0,0 l/m 2,6 km/h (1 Bft) S-SW 200 0 min 0,000 mm 0,0 UV-I 0 W/m 12,0 C 14,3 C 4,8 km/h (1 Bft) 95,74 %
08.08.2016 01:40 14,3 C 86 % 1023,1 hPa 0,0 l/m 0,2 km/h (0 Bft) S-SW 200 0 min 0,000 mm 0,0 UV-I 0 W/m 12,0 C 14,3 C 1,6 km/h (1 Bft) 100,00 %
08.08.2016 01:42 14,3 C 86 % 1023,2 hPa 0,0 l/m 0,1 km/h (0 Bft) S-SW 200 0 min 0,000 mm 0,0 UV-I 0 W/m 12,0 C 14,3 C 1,6 km/h (1 Bft) 100,00 %
08.08.2016 01:44 14,3 C 85 % 1023,2 hPa 0,0 l/m 1,8 km/h (1 Bft) S-SW 198 0 min 0,000 mm 0,0 UV-I 0 W/m 11,8 C 14,3 C 3,2 km/h (1 Bft) 100,00 %
08.08.2016 01:46 14,2 C 86 % 1023,2 hPa 0,0 l/m 2,0 km/h (1 Bft) S-SW 198 0 min 0,000 mm 0,0 UV-I 0 W/m 11,9 C 14,2 C 3,2 km/h (1 Bft) 98,00 %
08.08.2016 01:48 14,1 C 86 % 1023,2 hPa 0,0 l/m 2,7 km/h (1 Bft) S-SO 165 0 min 0,000 mm 0,0 UV-I 0 W/m 11,8 C 14,1 C 6,4 km/h (2 Bft) 96,23 %
08.08.2016 01:50 13,9 C 87 % 1023,2 hPa 0,0 l/m 3,7 km/h (1 Bft) S-SO 157 0 min 0,000 mm 0,0 UV-I 0 W/m 11,8 C 13,9 C 6,4 km/h (2 Bft) 98,00 %
08.08.2016 01:52 13,9 C 88 % 1023,2 hPa 0,0 l/m 3,5 km/h (1 Bft) S-SO 151 0 min 0,000 mm 0,0 UV-I 0 W/m 11,9 C 13,9 C 4,8 km/h (1 Bft) 97,22 %
08.08.2016 01:54 13,8 C 88 % 1023,1 hPa 0,0 l/m 2,4 km/h (1 Bft) S-SO 151 0 min 0,000 mm 0,0 UV-I 0 W/m 11,8 C 13,8 C 3,2 km/h (1 Bft) 97,87 %
08.08.2016 01:56 13,7 C 89 % 1023,1 hPa 0,0 l/m 2,3 km/h (1 Bft) S-SO 151 0 min 0,000 mm 0,0 UV-I 0 W/m 11,9 C 13,7 C 3,2 km/h (1 Bft) 96,23 %
08.08.2016 01:58 13,7 C 89 % 1023,0 hPa 0,0 l/m 0,9 km/h (0 Bft) S-SO 151 0 min 0,000 mm 0,0 UV-I 0 W/m 11,9 C 13,7 C 3,2 km/h (1 Bft) 97,87 %
08.08.2016 02:00 13,7 C 89 % 1023,0 hPa 0,0 l/m 0,0 km/h (0 Bft) S-SO 151 0 min 0,000 mm 0,0 UV-I 0 W/m 11,9 C 13,7 C 0,0 km/h (0 Bft) 97,87 %
08.08.2016 02:02 13,6 C 89 % 1023,0 hPa 0,0 l/m 1,1 km/h (1 Bft) S-SO 151 0 min 0,000 mm 0,0 UV-I 0 W/m 11,8 C 13,6 C 3,2 km/h (1 Bft) 98,00 %
08.08.2016 02:04 13,6 C 89 % 1023,0 hPa 0,0 l/m 1,3 km/h (1 Bft) S-SO 151 0 min 0,000 mm 0,0 UV-I 0 W/m 11,8 C 13,6 C 1,6 km/h (1 Bft) 93,18 %
08.08.2016 02:06 13,6 C 89 % 1023,0 hPa 0,0 l/m 1,6 km/h (1 Bft) S-SO 151 0 min 0,000 mm 0,0 UV-I 0 W/m 11,8 C 13,6 C 3,2 km/h (1 Bft) 98,00 %
08.08.2016 02:08 13,7 C 89 % 1023,0 hPa 0,0 l/m 2,3 km/h (1 Bft) S-SO 151 0 min 0,000 mm 0,0 UV-I 0 W/m 11,9 C 13,7 C 3,2 km/h (1 Bft) 94,74 %
08.08.2016 02:10 13,6 C 89 % 1023,1 hPa 0,0 l/m 3,2 km/h (1 Bft) S-SO 151 0 min 0,000 mm 0,0 UV-I 0 W/m 11,8 C 13,6 C 4,8 km/h (1 Bft) 98,00 %
08.08.2016 02:12 13,6 C 89 % 1023,0 hPa 0,0 l/m 2,7 km/h (1 Bft) S-SO 151 0 min 0,000 mm 0,0 UV-I 0 W/m 11,8 C 13,6 C 3,2 km/h (1 Bft) 97,87 %
08.08.2016 02:14 13,4 C 89 % 1023,0 hPa 0,0 l/m 4,0 km/h (1 Bft) S-SO 151 0 min 0,000 mm 0,0 UV-I 0 W/m 11,6 C 13,4 C 4,8 km/h (1 Bft) 96,23 %
08.08.2016 02:16 13,2 C 89 % 1023,0 hPa 0,0 l/m 3,5 km/h (1 Bft) S-SO 151 0 min 0,000 mm 0,0 UV-I 0 W/m 11,4 C 13,2 C 4,8 km/h (1 Bft) 97,56 %
08.08.2016 02:18 13,1 C 90 % 1022,9 hPa 0,0 l/m 3,1 km/h (1 Bft) S-SO 151 0 min 0,000 mm 0,0 UV-I 0 W/m 11,5 C 13,1 C 4,8 km/h (1 Bft) 100,00 %
08.08.2016 02:20 13,0 C 90 % 1023,0 hPa 0,0 l/m 2,3 km/h (1 Bft) S-SO 151 0 min 0,000 mm 0,0 UV-I 0 W/m 11,4 C 13,0 C 3,2 km/h (1 Bft) 100,00 %
08.08.2016 02:22 13,0 C 90 % 1022,9 hPa 0,0 l/m 2,5 km/h (1 Bft) S-SO 151 0 min 0,000 mm 0,0 UV-I 0 W/m 11,4 C 13,0 C 3,2 km/h (1 Bft) 100,00 %
08.08.2016 02:24 13,0 C 90 % 1022,9 hPa 0,0 l/m 2,7 km/h (1 Bft) S-SO 151 0 min 0,000 mm 0,0 UV-I 0 W/m 11,4 C 13,0 C 3,2 km/h (1 Bft) 98,00 %
08.08.2016 02:26 12,9 C 91 % 1022,9 hPa 0,0 l/m 3,1 km/h (1 Bft) S-SO 151 0 min 0,000 mm 0,0 UV-I 0 W/m 11,5 C 12,9 C 4,8 km/h (1 Bft) 100,00 %
08.08.2016 02:28 12,9 C 91 % 1022,9 hPa 0,0 l/m 1,8 km/h (1 Bft) S-SO 151 0 min 0,000 mm 0,0 UV-I 0 W/m 11,5 C 12,9 C 3,2 km/h (1 Bft) 100,00 %
08.08.2016 02:30 12,9 C 91 % 1023,0 hPa 0,0 l/m 0,2 km/h (0 Bft) S-SO 151 0 min 0,000 mm 0,0 UV-I 0 W/m 11,5 C 12,9 C 1,6 km/h (1 Bft) 100,00 %
08.08.2016 02:32 13,0 C 91 % 1022,9 hPa 0,0 l/m 0,3 km/h (0 Bft) S-SO 151 0 min 0,000 mm 0,0 UV-I 0 W/m 11,6 C 13,0 C 1,6 km/h (1 Bft) 97,92 %
08.08.2016 02:34 13,0 C 91 % 1022,9 hPa 0,0 l/m 0,0 km/h (0 Bft) S-SO 151 0 min 0,000 mm 0,0 UV-I 0 W/m 11,6 C 13,0 C 0,0 km/h (0 Bft) 95,74 %
08.08.2016 02:36 13,0 C 90 % 1022,9 hPa 0,0 l/m 0,0 km/h (0 Bft) S-SO 151 0 min 0,000 mm 0,0 UV-I 0 W/m 11,4 C 13,0 C 0,0 km/h (0 Bft) 100,00 %
08.08.2016 02:38 12,9 C 91 % 1022,9 hPa 0,0 l/m 0,0 km/h (0 Bft) S-SO 151 0 min 0,000 mm 0,0 UV-I 0 W/m 11,5 C 12,9 C 1,6 km/h (1 Bft) 98,00 %
08.08.2016 02:40 12,9 C 91 % 1022,9 hPa 0,0 l/m 0,0 km/h (0 Bft) S-SO 151 0 min 0,000 mm 0,0 UV-I 0 W/m 11,5 C 12,9 C 0,0 km/h (0 Bft) 97,87 %
08.08.2016 02:42 12,9 C 91 % 1022,9 hPa 0,0 l/m 0,0 km/h (0 Bft) S-SO 151 0 min 0,000 mm 0,0 UV-I 0 W/m 11,5 C 12,9 C 0,0 km/h (0 Bft) 100,00 %
08.08.2016 02:44 12,9 C 91 % 1022,8 hPa 0,0 l/m 0,0 km/h (0 Bft) S-SO 151 0 min 0,000 mm 0,0 UV-I 0 W/m 11,5 C 12,9 C 0,0 km/h (0 Bft) 98,11 %
08.08.2016 02:46 12,9 C 91 % 1022,8 hPa 0,0 l/m 0,0 km/h (0 Bft) S-SO 151 0 min 0,000 mm 0,0 UV-I 0 W/m 11,5 C 12,9 C 0,0 km/h (0 Bft) 100,00 %
08.08.2016 02:48 12,8 C 91 % 1022,8 hPa 0,0 l/m 0,9 km/h (0 Bft) S-SO 151 0 min 0,000 mm 0,0 UV-I 0 W/m 11,4 C 12,8 C 3,2 km/h (1 Bft) 100,00 %
08.08.2016 02:50 12,8 C 91 % 1022,8 hPa 0,0 l/m 2,7 km/h (1 Bft) S-SO 151 0 min 0,000 mm 0,0 UV-I 0 W/m 11,4 C 12,8 C 3,2 km/h (1 Bft) 100,00 %
08.08.2016 02:52 12,7 C 91 % 1022,8 hPa 0,0 l/m 2,2 km/h (1 Bft) S-SO 151 0 min 0,000 mm 0,0 UV-I 0 W/m 11,3 C 12,7 C 3,2 km/h (1 Bft) 100,00 %
08.08.2016 02:54 12,6 C 92 % 1022,8 hPa 0,0 l/m 2,2 km/h (1 Bft) S-SO 151 0 min 0,000 mm 0,0 UV-I 0 W/m 11,3 C 12,6 C 3,2 km/h (1 Bft) 100,00 %
08.08.2016 02:56 12,6 C 92 % 1022,8 hPa 0,0 l/m 2,2 km/h (1 Bft) S-SO 151 0 min 0,000 mm 0,0 UV-I 0 W/m 11,3 C 12,6 C 3,2 km/h (1 Bft) 100,00 %
08.08.2016 02:58 12,5 C 92 % 1022,8 hPa 0,0 l/m 1,8 km/h (1 Bft) S-SO 151 0 min 0,000 mm 0,0 UV-I 0 W/m 11,2 C 12,5 C 3,2 km/h (1 Bft) 100,00 %
08.08.2016 03:00 12,5 C 92 % 1022,7 hPa 0,0 l/m 0,5 km/h (0 Bft) S-SO 151 0 min 0,000 mm 0,0 UV-I 0 W/m 11,2 C 12,5 C 1,6 km/h (1 Bft) 100,00 %
08.08.2016 03:02 12,4 C 92 % 1022,7 hPa 0,0 l/m 2,4 km/h (1 Bft) S-SO 151 0 min 0,000 mm 0,0 UV-I 0 W/m 11,1 C 12,4 C 3,2 km/h (1 Bft) 95,12 %
08.08.2016 03:04 12,4 C 92 % 1022,7 hPa 0,0 l/m 2,5 km/h (1 Bft) S-SO 151 0 min 0,000 mm 0,0 UV-I 0 W/m 11,1 C 12,4 C 3,2 km/h (1 Bft) 100,00 %
08.08.2016 03:06 12,4 C 92 % 1022,7 hPa 0,0 l/m 0,8 km/h (0 Bft) S-SO 151 0 min 0,000 mm 0,0 UV-I 0 W/m 11,1 C 12,4 C 3,2 km/h (1 Bft) 100,00 %
08.08.2016 03:08 12,5 C 92 % 1022,7 hPa 0,0 l/m 0,2 km/h (0 Bft) S-SO 151 0 min 0,000 mm 0,0 UV-I 0 W/m 11,2 C 12,5 C 1,6 km/h (1 Bft) 98,00 %
08.08.2016 03:10 12,6 C 93 % 1022,7 hPa 0,0 l/m 0,2 km/h (0 Bft) S-SO 151 0 min 0,000 mm 0,0 UV-I 0 W/m 11,5 C 12,6 C 1,6 km/h (1 Bft) 100,00 %
08.08.2016 03:12 12,6 C 92 % 1022,7 hPa 0,0 l/m 1,2 km/h (1 Bft) S-SO 151 0 min 0,000 mm 0,0 UV-I 0 W/m 11,3 C 12,6 C 1,6 km/h (1 Bft) 100,00 %
08.08.2016 03:14 12,7 C 92 % 1022,7 hPa 0,0 l/m 0,9 km/h (0 Bft) S-SO 151 0 min 0,000 mm 0,0 UV-I 0 W/m 11,4 C 12,7 C 3,2 km/h (1 Bft) 100,00 %
08.08.2016 03:16 12,7 C 92 % 1022,6 hPa 0,0 l/m 0,0 km/h (0 Bft) S-SO 151 0 min 0,000 mm 0,0 UV-I 0 W/m 11,4 C 12,7 C 0,0 km/h (0 Bft) 100,00 %
08.08.2016 03:18 12,7 C 92 % 1022,6 hPa 0,0 l/m 0,8 km/h (0 Bft) S-SO 151 0 min 0,000 mm 0,0 UV-I 0 W/m 11,4 C 12,7 C 1,6 km/h (1 Bft) 100,00 %
08.08.2016 03:20 12,6 C 92 % 1022,6 hPa 0,0 l/m 0,5 km/h (0 Bft) S-SO 151 0 min 0,000 mm 0,0 UV-I 0 W/m 11,3 C 12,6 C 1,6 km/h (1 Bft) 93,18 %
08.08.2016 03:22 12,6 C 92 % 1022,6 hPa 0,0 l/m 0,7 km/h (0 Bft) S-SO 151 0 min 0,000 mm 0,0 UV-I 0 W/m 11,3 C 12,6 C 1,6 km/h (1 Bft) 100,00 %
08.08.2016 03:24 12,5 C 92 % 1022,6 hPa 0,0 l/m 1,2 km/h (1 Bft) S-SO 151 0 min 0,000 mm 0,0 UV-I 0 W/m 11,2 C 12,5 C 1,6 km/h (1 Bft) 97,87 %
08.08.2016 03:26 12,4 C 92 % 1022,6 hPa 0,0 l/m 0,3 km/h (0 Bft) S-SO 151 0 min 0,000 mm 0,0 UV-I 0 W/m 11,1 C 12,4 C 1,6 km/h (1 Bft) 100,00 %
08.08.2016 03:28 12,4 C 92 % 1022,6 hPa 0,0 l/m 0,0 km/h (0 Bft) S-SO 151 0 min 0,000 mm 0,0 UV-I 0 W/m 11,1 C 12,4 C 0,0 km/h (0 Bft) 100,00 %
08.08.2016 03:30 12,4 C 93 % 1022,5 hPa 0,0 l/m 0,0 km/h (0 Bft) S-SO 151 0 min 0,000 mm 0,0 UV-I 0 W/m 11,3 C 12,4 C 0,0 km/h (0 Bft) 97,37 %
08.08.2016 03:32 12,4 C 93 % 1022,6 hPa 0,0 l/m 0,0 km/h (0 Bft) S-SO 151 0 min 0,000 mm 0,0 UV-I 0 W/m 11,3 C 12,4 C 0,0 km/h (0 Bft) 100,00 %
08.08.2016 03:34 12,4 C 93 % 1022,5 hPa 0,0 l/m 0,0 km/h (0 Bft) S-SO 151 0 min 0,000 mm 0,0 UV-I 0 W/m 11,3 C 12,4 C 0,0 km/h (0 Bft) 98,11 %
08.08.2016 03:36 12,3 C 93 % 1022,5 hPa 0,0 l/m 0,0 km/h (0 Bft) S-SO 151 0 min 0,000 mm 0,0 UV-I 0 W/m 11,2 C 12,3 C 0,0 km/h (0 Bft) 100,00 %
08.08.2016 03:38 12,3 C 93 % 1022,5 hPa 0,0 l/m 0,0 km/h (0 Bft) S-SO 151 0 min 0,000 mm 0,0 UV-I 0 W/m 11,2 C 12,3 C 0,0 km/h (0 Bft) 100,00 %
08.08.2016 03:40 12,3 C 93 % 1022,4 hPa 0,0 l/m 0,0 km/h (0 Bft) S-SO 151 0 min 0,000 mm 0,0 UV-I 0 W/m 11,2 C 12,3 C 1,6 km/h (1 Bft) 100,00 %
08.08.2016 03:42 12,4 C 93 % 1022,4 hPa 0,0 l/m 0,2 km/h (0 Bft) S-SO 151 0 min 0,000 mm 0,0 UV-I 0 W/m 11,3 C 12,4 C 1,6 km/h (1 Bft) 100,00 %
08.08.2016 03:44 12,3 C 93 % 1022,4 hPa 0,0 l/m 0,1 km/h (0 Bft) S-SO 151 0 min 0,000 mm 0,0 UV-I 0 W/m 11,2 C 12,3 C 1,6 km/h (1 Bft) 100,00 %
08.08.2016 03:46 12,3 C 92 % 1022,3 hPa 0,0 l/m 2,1 km/h (1 Bft) S-SO 151 0 min 0,000 mm 0,0 UV-I 0 W/m 11,0 C 12,3 C 3,2 km/h (1 Bft) 98,21 %
08.08.2016 03:48 12,3 C 92 % 1022,3 hPa 0,0 l/m 2,3 km/h (1 Bft) S-SO 151 0 min 0,000 mm 0,0 UV-I 0 W/m 11,0 C 12,3 C 3,2 km/h (1 Bft) 95,74 %
08.08.2016 03:50 12,3 C 92 % 1022,2 hPa 0,0 l/m 3,1 km/h (1 Bft) S-SO 151 0 min 0,000 mm 0,0 UV-I 0 W/m 11,0 C 12,3 C 4,8 km/h (1 Bft) 95,24 %
08.08.2016 03:52 12,2 C 92 % 1022,2 hPa 0,0 l/m 2,9 km/h (1 Bft) S-SO 151 0 min 0,000 mm 0,0 UV-I 0 W/m 10,9 C 12,2 C 4,8 km/h (1 Bft) 97,87 %
08.08.2016 03:54 12,2 C 93 % 1022,2 hPa 0,0 l/m 3,1 km/h (1 Bft) S-SO 151 0 min 0,000 mm 0,0 UV-I 0 W/m 11,1 C 12,2 C 3,2 km/h (1 Bft) 98,00 %
08.08.2016 03:56 12,2 C 93 % 1022,2 hPa 0,0 l/m 2,3 km/h (1 Bft) S-SO 151 0 min 0,000 mm 0,0 UV-I 0 W/m 11,1 C 12,2 C 3,2 km/h (1 Bft) 98,00 %
08.08.2016 03:58 12,2 C 93 % 1022,2 hPa 0,0 l/m 2,4 km/h (1 Bft) S-SO 151 0 min 0,000 mm 0,0 UV-I 0 W/m 11,1 C 12,2 C 3,2 km/h (1 Bft) 95,12 %
08.08.2016 04:00 12,2 C 93 % 1022,2 hPa 0,0 l/m 3,0 km/h (1 Bft) S-SO 151 0 min 0,000 mm 0,0 UV-I 0 W/m 11,1 C 12,2 C 3,2 km/h (1 Bft) 95,74 %
08.08.2016 04:04 11,9 C 93 % 1022,2 hPa 0,0 l/m 3,0 km/h (1 Bft) S-SO 151 0 min 0,000 mm 0,0 UV-I 0 W/m 10,8 C 11,9 C 3,2 km/h (1 Bft) 100,00 %
08.08.2016 04:06 11,9 C 93 % 1022,2 hPa 0,0 l/m 1,9 km/h (1 Bft) S-SO 151 0 min 0,000 mm 0,0 UV-I 0 W/m 10,8 C 11,9 C 4,8 km/h (1 Bft) 95,74 %
08.08.2016 04:08 11,9 C 94 % 1022,2 hPa 0,0 l/m 4,0 km/h (1 Bft) S-SO 152 0 min 0,000 mm 0,0 UV-I 0 W/m 11,0 C 11,9 C 6,4 km/h (2 Bft) 97,87 %
08.08.2016 04:10 12,0 C 94 % 1022,3 hPa 0,0 l/m 4,0 km/h (1 Bft) S-SO 152 0 min 0,000 mm 0,0 UV-I 0 W/m 11,1 C 12,0 C 4,8 km/h (1 Bft) 97,73 %
08.08.2016 04:12 12,0 C 94 % 1022,2 hPa 0,0 l/m 2,7 km/h (1 Bft) S-SO 152 0 min 0,000 mm 0,0 UV-I 0 W/m 11,1 C 12,0 C 3,2 km/h (1 Bft) 98,00 %
08.08.2016 04:14 12,1 C 94 % 1022,2 hPa 0,0 l/m 2,7 km/h (1 Bft) S-SO 152 0 min 0,000 mm 0,0 UV-I 0 W/m 11,2 C 12,1 C 4,8 km/h (1 Bft) 98,00 %
08.08.2016 04:16 12,2 C 93 % 1022,2 hPa 0,0 l/m 1,7 km/h (1 Bft) S-SO 152 0 min 0,000 mm 0,0 UV-I 0 W/m 11,1 C 12,2 C 3,2 km/h (1 Bft) 97,37 %
08.08.2016 04:18 12,2 C 93 % 1022,2 hPa 0,0 l/m 2,0 km/h (1 Bft) S-SO 152 0 min 0,000 mm 0,0 UV-I 0 W/m 11,1 C 12,2 C 3,2 km/h (1 Bft) 100,00 %
08.08.2016 04:20 12,2 C 93 % 1022,1 hPa 0,0 l/m 2,9 km/h (1 Bft) S-SO 152 0 min 0,000 mm 0,0 UV-I 0 W/m 11,1 C 12,2 C 3,2 km/h (1 Bft) 96,00 %
08.08.2016 04:22 12,3 C 93 % 1022,2 hPa 0,0 l/m 3,3 km/h (1 Bft) S-SO 152 0 min 0,000 mm 0,0 UV-I 0 W/m 11,2 C 12,3 C 4,8 km/h (1 Bft) 100,00 %
08.08.2016 04:24 12,3 C 92 % 1022,2 hPa 0,0 l/m 2,9 km/h (1 Bft) S-SO 152 0 min 0,000 mm 0,0 UV-I 0 W/m 11,0 C 12,3 C 4,8 km/h (1 Bft) 100,00 %
08.08.2016 04:26 12,2 C 92 % 1022,2 hPa 0,0 l/m 2,7 km/h (1 Bft) S-SO 152 0 min 0,000 mm 0,0 UV-I 0 W/m 10,9 C 12,2 C 4,8 km/h (1 Bft) 100,00 %
08.08.2016 04:28 12,2 C 92 % 1022,1 hPa 0,0 l/m 3,4 km/h (1 Bft) S-SO 152 0 min 0,000 mm 0,0 UV-I 0 W/m 10,9 C 12,2 C 4,8 km/h (1 Bft) 98,00 %
08.08.2016 04:30 12,2 C 92 % 1022,1 hPa 0,0 l/m 2,6 km/h (1 Bft) S-SO 152 0 min 0,000 mm 0,0 UV-I 0 W/m 10,9 C 12,2 C 4,8 km/h (1 Bft) 100,00 %
08.08.2016 04:32 12,2 C 92 % 1022,1 hPa 0,0 l/m 2,5 km/h (1 Bft) S-SO 152 0 min 0,000 mm 0,0 UV-I 0 W/m 10,9 C 12,2 C 4,8 km/h (1 Bft) 100,00 %
08.08.2016 04:34 12,2 C 93 % 1022,1 hPa 0,0 l/m 2,2 km/h (1 Bft) S-SO 152 0 min 0,000 mm 0,0 UV-I 0 W/m 11,1 C 12,2 C 3,2 km/h (1 Bft) 100,00 %
08.08.2016 04:36 12,2 C 93 % 1022,1 hPa 0,0 l/m 1,3 km/h (1 Bft) S-SO 152 0 min 0,000 mm 0,0 UV-I 0 W/m 11,1 C 12,2 C 3,2 km/h (1 Bft) 100,00 %
08.08.2016 04:38 12,2 C 92 % 1022,1 hPa 0,0 l/m 1,6 km/h (1 Bft) S-SO 152 0 min 0,000 mm 0,0 UV-I 0 W/m 10,9 C 12,2 C 3,2 km/h (1 Bft) 100,00 %
08.08.2016 04:40 12,2 C 93 % 1022,2 hPa 0,0 l/m 3,6 km/h (1 Bft) S-SO 152 0 min 0,000 mm 0,0 UV-I 0 W/m 11,1 C 12,2 C 4,8 km/h (1 Bft) 100,00 %
08.08.2016 04:42 12,3 C 92 % 1022,1 hPa 0,0 l/m 3,3 km/h (1 Bft) S-SO 152 0 min 0,000 mm 0,0 UV-I 0 W/m 11,0 C 12,3 C 4,8 km/h (1 Bft) 100,00 %
08.08.2016 04:44 12,4 C 92 % 1022,0 hPa 0,0 l/m 3,9 km/h (1 Bft) S-SO 152 0 min 0,000 mm 0,0 UV-I 0 W/m 11,1 C 12,4 C 4,8 km/h (1 Bft) 100,00 %
08.08.2016 04:46 12,4 C 92 % 1022,0 hPa 0,0 l/m 3,7 km/h (1 Bft) S-SO 152 0 min 0,000 mm 0,0 UV-I 0 W/m 11,1 C 12,4 C 4,8 km/h (1 Bft) 100,00 %
08.08.2016 04:48 12,4 C 92 % 1022,0 hPa 0,0 l/m 3,3 km/h (1 Bft) S-SO 152 0 min 0,000 mm 0,0 UV-I 0 W/m 11,1 C 12,4 C 4,8 km/h (1 Bft) 100,00 %
08.08.2016 04:50 12,3 C 92 % 1021,9 hPa 0,0 l/m 2,5 km/h (1 Bft) S-SO 152 0 min 0,000 mm 0,0 UV-I 0 W/m 11,0 C 12,3 C 3,2 km/h (1 Bft) 100,00 %
08.08.2016 04:52 12,3 C 92 % 1022,0 hPa 0,0 l/m 1,3 km/h (1 Bft) S-SO 152 0 min 0,000 mm 0,0 UV-I 0 W/m 11,0 C 12,3 C 3,2 km/h (1 Bft) 97,87 %
08.08.2016 04:54 12,3 C 92 % 1022,0 hPa 0,0 l/m 0,4 km/h (0 Bft) S-SO 152 0 min 0,000 mm 0,0 UV-I 0 W/m 11,0 C 12,3 C 1,6 km/h (1 Bft) 100,00 %
08.08.2016 04:56 12,3 C 92 % 1021,9 hPa 0,0 l/m 0,8 km/h (0 Bft) S-SO 152 0 min 0,000 mm 0,0 UV-I 0 W/m 11,0 C 12,3 C 3,2 km/h (1 Bft) 100,00 %
08.08.2016 04:58 12,3 C 92 % 1021,9 hPa 0,0 l/m 0,1 km/h (0 Bft) S-SO 152 0 min 0,000 mm 0,0 UV-I 0 W/m 11,0 C 12,3 C 1,6 km/h (1 Bft) 100,00 %
08.08.2016 05:00 12,3 C 92 % 1021,9 hPa 0,0 l/m 0,5 km/h (0 Bft) S-SO 152 0 min 0,000 mm 0,0 UV-I 0 W/m 11,0 C 12,3 C 1,6 km/h (1 Bft) 100,00 %
08.08.2016 05:02 12,2 C 92 % 1021,9 hPa 0,0 l/m 1,9 km/h (1 Bft) S-SO 152 0 min 0,000 mm 0,0 UV-I 0 W/m 10,9 C 12,2 C 3,2 km/h (1 Bft) 100,00 %
08.08.2016 05:04 12,2 C 92 % 1021,8 hPa 0,0 l/m 1,5 km/h (1 Bft) S-SO 152 0 min 0,000 mm 0,0 UV-I 0 W/m 10,9 C 12,2 C 3,2 km/h (1 Bft) 100,00 %
08.08.2016 05:06 12,1 C 92 % 1021,9 hPa 0,0 l/m 0,0 km/h (0 Bft) S-SO 152 0 min 0,000 mm 0,0 UV-I 0 W/m 10,8 C 12,1 C 1,6 km/h (1 Bft) 100,00 %
08.08.2016 05:08 12,1 C 92 % 1021,9 hPa 0,0 l/m 0,1 km/h (0 Bft) S-SO 152 0 min 0,000 mm 0,0 UV-I 0 W/m 10,8 C 12,1 C 1,6 km/h (1 Bft) 100,00 %
08.08.2016 05:10 12,0 C 92 % 1021,9 hPa 0,0 l/m 0,0 km/h (0 Bft) S-SO 152 0 min 0,000 mm 0,0 UV-I 0 W/m 10,7 C 12,0 C 1,6 km/h (1 Bft) 100,00 %
08.08.2016 05:12 11,9 C 92 % 1021,9 hPa 0,0 l/m 1,4 km/h (1 Bft) S-SO 152 0 min 0,000 mm 0,0 UV-I 0 W/m 10,6 C 11,9 C 1,6 km/h (1 Bft) 100,00 %
08.08.2016 05:14 11,8 C 92 % 1021,9 hPa 0,0 l/m 1,4 km/h (1 Bft) S-SO 152 0 min 0,000 mm 0,0 UV-I 0 W/m 10,5 C 11,8 C 3,2 km/h (1 Bft) 97,14 %
08.08.2016 05:16 11,7 C 93 % 1021,8 hPa 0,0 l/m 1,8 km/h (1 Bft) S-SO 152 0 min 0,000 mm 0,0 UV-I 0 W/m 10,6 C 11,7 C 3,2 km/h (1 Bft) 100,00 %
08.08.2016 05:18 11,6 C 93 % 1021,8 hPa 0,0 l/m 1,3 km/h (1 Bft) S-SO 152 0 min 0,000 mm 0,0 UV-I 0 W/m 10,5 C 11,6 C 1,6 km/h (1 Bft) 100,00 %
08.08.2016 05:20 11,6 C 93 % 1021,8 hPa 0,0 l/m 1,4 km/h (1 Bft) S-SO 152 0 min 0,000 mm 0,0 UV-I 0 W/m 10,5 C 11,6 C 3,2 km/h (1 Bft) 100,00 %
08.08.2016 05:22 11,6 C 93 % 1021,9 hPa 0,0 l/m 1,5 km/h (1 Bft) S-SO 152 0 min 0,000 mm 0,0 UV-I 0 W/m 10,5 C 11,6 C 3,2 km/h (1 Bft) 100,00 %
08.08.2016 05:24 11,6 C 94 % 1021,9 hPa 0,0 l/m 0,4 km/h (0 Bft) S-SO 152 0 min 0,000 mm 0,0 UV-I 0 W/m 10,7 C 11,6 C 1,6 km/h (1 Bft) 100,00 %
08.08.2016 05:26 11,6 C 94 % 1021,9 hPa 0,0 l/m 0,0 km/h (0 Bft) S-SO 152 0 min 0,000 mm 0,0 UV-I 0 W/m 10,7 C 11,6 C 0,0 km/h (0 Bft) 98,00 %
08.08.2016 05:28 11,6 C 94 % 1021,9 hPa 0,0 l/m 0,0 km/h (0 Bft) S-SO 152 0 min 0,000 mm 0,0 UV-I 0 W/m 10,7 C 11,6 C 0,0 km/h (0 Bft) 100,00 %
08.08.2016 05:30 11,7 C 94 % 1021,9 hPa 0,0 l/m 0,0 km/h (0 Bft) S-SO 152 0 min 0,000 mm 0,0 UV-I 0 W/m 10,8 C 11,7 C 0,0 km/h (0 Bft) 97,37 %
08.08.2016 05:32 11,7 C 94 % 1021,9 hPa 0,0 l/m 0,0 km/h (0 Bft) S-SO 152 0 min 0,000 mm 0,0 UV-I 0 W/m 10,8 C 11,7 C 0,0 km/h (0 Bft) 100,00 %
08.08.2016 05:34 11,6 C 94 % 1021,9 hPa 0,0 l/m 0,0 km/h (0 Bft) S-SO 152 0 min 0,000 mm 0,0 UV-I 0 W/m 10,7 C 11,6 C 0,0 km/h (0 Bft) 100,00 %
08.08.2016 05:36 11,6 C 94 % 1021,9 hPa 0,0 l/m 1,2 km/h (1 Bft) S-SO 152 0 min 0,000 mm 0,0 UV-I 0 W/m 10,7 C 11,6 C 3,2 km/h (1 Bft) 97,87 %
08.08.2016 05:38 11,6 C 94 % 1021,9 hPa 0,0 l/m 2,6 km/h (1 Bft) S-SO 152 0 min 0,000 mm 0,0 UV-I 0 W/m 10,7 C 11,6 C 3,2 km/h (1 Bft) 100,00 %
08.08.2016 05:40 11,6 C 94 % 1021,9 hPa 0,0 l/m 1,3 km/h (1 Bft) S-SO 152 0 min 0,000 mm 0,0 UV-I 0 W/m 10,7 C 11,6 C 1,6 km/h (1 Bft) 97,87 %
08.08.2016 05:42 11,6 C 94 % 1021,9 hPa 0,0 l/m 1,0 km/h (0 Bft) S-SO 152 0 min 0,000 mm 0,0 UV-I 0 W/m 10,7 C 11,6 C 1,6 km/h (1 Bft) 100,00 %
08.08.2016 05:44 11,6 C 94 % 1021,9 hPa 0,0 l/m 1,5 km/h (1 Bft) S-SO 152 0 min 0,000 mm 0,0 UV-I 0 W/m 10,7 C 11,6 C 1,6 km/h (1 Bft) 98,11 %
08.08.2016 05:46 11,5 C 94 % 1021,9 hPa 0,0 l/m 1,1 km/h (1 Bft) S-SO 152 0 min 0,000 mm 0,0 UV-I 2 W/m 10,6 C 11,5 C 1,6 km/h (1 Bft) 95,74 %
08.08.2016 05:48 11,5 C 94 % 1021,9 hPa 0,0 l/m 0,3 km/h (0 Bft) S-SO 152 0 min 0,000 mm 0,0 UV-I 5 W/m 10,6 C 11,5 C 1,6 km/h (1 Bft) 98,00 %
08.08.2016 05:50 11,6 C 94 % 1021,9 hPa 0,0 l/m 0,9 km/h (0 Bft) S-SO 152 0 min 0,000 mm 0,0 UV-I 5 W/m 10,7 C 11,6 C 1,6 km/h (1 Bft) 97,44 %
08.08.2016 05:52 11,6 C 94 % 1022,0 hPa 0,0 l/m 0,8 km/h (0 Bft) S-SO 152 0 min 0,000 mm 0,0 UV-I 5 W/m 10,7 C 11,6 C 1,6 km/h (1 Bft) 96,00 %
08.08.2016 05:54 11,6 C 94 % 1021,9 hPa 0,0 l/m 0,8 km/h (0 Bft) S-SO 152 0 min 0,000 mm 0,0 UV-I 7 W/m 10,7 C 11,6 C 1,6 km/h (1 Bft) 97,73 %
08.08.2016 05:56 11,7 C 94 % 1021,9 hPa 0,0 l/m 0,3 km/h (0 Bft) S-SO 152 0 min 0,000 mm 0,0 UV-I 7 W/m 10,8 C 11,7 C 1,6 km/h (1 Bft) 98,21 %
08.08.2016 05:58 11,7 C 94 % 1021,9 hPa 0,0 l/m 0,0 km/h (0 Bft) S-SO 152 0 min 0,000 mm 0,0 UV-I 8 W/m 10,8 C 11,7 C 0,0 km/h (0 Bft) 94,74 %
08.08.2016 06:00 11,6 C 93 % 1021,9 hPa 0,0 l/m 0,0 km/h (0 Bft) S-SO 152 2 min 0,000 mm 0,0 UV-I 9 W/m 10,5 C 11,6 C 0,0 km/h (0 Bft) 97,87 %
08.08.2016 06:02 11,6 C 94 % 1022,0 hPa 0,0 l/m 0,0 km/h (0 Bft) S-SO 152 0 min 0,000 mm 0,0 UV-I 10 W/m 10,7 C 11,6 C 0,0 km/h (0 Bft) 95,74 %
08.08.2016 06:04 11,6 C 93 % 1021,9 hPa 0,0 l/m 0,0 km/h (0 Bft) S-SO 152 0 min 0,000 mm 0,0 UV-I 11 W/m 10,5 C 11,6 C 0,0 km/h (0 Bft) 95,74 %
08.08.2016 06:06 11,6 C 93 % 1021,9 hPa 0,0 l/m 0,0 km/h (0 Bft) S-SO 152 0 min 0,000 mm 0,0 UV-I 11 W/m 10,5 C 11,6 C 0,0 km/h (0 Bft) 98,00 %
08.08.2016 06:08 11,6 C 93 % 1021,9 hPa 0,0 l/m 0,0 km/h (0 Bft) S-SO 152 0 min 0,000 mm 0,0 UV-I 12 W/m 10,5 C 11,6 C 0,0 km/h (0 Bft) 96,00 %
08.08.2016 06:10 11,6 C 93 % 1021,9 hPa 0,0 l/m 0,0 km/h (0 Bft) S-SO 152 0 min 0,000 mm 0,0 UV-I 12 W/m 10,5 C 11,6 C 0,0 km/h (0 Bft) 97,87 %
08.08.2016 06:12 11,5 C 94 % 1022,0 hPa 0,0 l/m 0,0 km/h (0 Bft) S-SO 152 0 min 0,000 mm 0,0 UV-I 13 W/m 10,6 C 11,5 C 0,0 km/h (0 Bft) 97,37 %
08.08.2016 06:14 11,4 C 93 % 1021,9 hPa 0,0 l/m 0,5 km/h (0 Bft) S-SO 152 0 min 0,000 mm 0,0 UV-I 14 W/m 10,3 C 11,4 C 1,6 km/h (1 Bft) 100,00 %
08.08.2016 06:16 11,4 C 93 % 1021,9 hPa 0,0 l/m 0,0 km/h (0 Bft) S-SO 152 0 min 0,000 mm 0,0 UV-I 14 W/m 10,3 C 11,4 C 0,0 km/h (0 Bft) 96,00 %
08.08.2016 06:18 11,3 C 94 % 1021,9 hPa 0,0 l/m 0,0 km/h (0 Bft) S-SO 152 0 min 0,000 mm 0,0 UV-I 16 W/m 10,4 C 11,3 C 0,0 km/h (0 Bft) 97,87 %
08.08.2016 06:20 11,3 C 94 % 1021,9 hPa 0,0 l/m 0,0 km/h (0 Bft) S-SO 152 0 min 0,000 mm 0,0 UV-I 16 W/m 10,4 C 11,3 C 0,0 km/h (0 Bft) 100,00 %
08.08.2016 06:22 11,3 C 94 % 1021,9 hPa 0,0 l/m 0,0 km/h (0 Bft) S-SO 152 0 min 0,000 mm 0,0 UV-I 17 W/m 10,4 C 11,3 C 0,0 km/h (0 Bft) 100,00 %
08.08.2016 06:24 11,3 C 95 % 1021,9 hPa 0,0 l/m 0,0 km/h (0 Bft) S-SO 152 0 min 0,000 mm 0,0 UV-I 18 W/m 10,5 C 11,3 C 0,0 km/h (0 Bft) 95,74 %
08.08.2016 06:26 11,3 C 95 % 1021,9 hPa 0,0 l/m 0,0 km/h (0 Bft) S-SO 152 0 min 0,000 mm 0,0 UV-I 18 W/m 10,5 C 11,3 C 0,0 km/h (0 Bft) 100,00 %
08.08.2016 06:28 11,3 C 95 % 1021,9 hPa 0,0 l/m 0,0 km/h (0 Bft) S-SO 152 0 min 0,000 mm 0,0 UV-I 18 W/m 10,5 C 11,3 C 0,0 km/h (0 Bft) 100,00 %
08.08.2016 06:30 11,4 C 95 % 1021,9 hPa 0,0 l/m 0,0 km/h (0 Bft) S-SO 152 0 min 0,000 mm 0,0 UV-I 19 W/m 10,6 C 11,4 C 0,0 km/h (0 Bft) 100,00 %
08.08.2016 06:32 11,5 C 95 % 1021,9 hPa 0,0 l/m 0,0 km/h (0 Bft) S-SO 152 0 min 0,000 mm 0,0 UV-I 19 W/m 10,7 C 11,5 C 0,0 km/h (0 Bft) 100,00 %
08.08.2016 06:34 11,6 C 95 % 1021,9 hPa 0,0 l/m 0,0 km/h (0 Bft) S-SO 152 0 min 0,000 mm 0,0 UV-I 20 W/m 10,8 C 11,6 C 0,0 km/h (0 Bft) 100,00 %
08.08.2016 06:36 11,6 C 94 % 1021,9 hPa 0,0 l/m 0,0 km/h (0 Bft) S-SO 152 0 min 0,000 mm 0,0 UV-I 21 W/m 10,7 C 11,6 C 0,0 km/h (0 Bft) 100,00 %
08.08.2016 06:38 11,6 C 94 % 1021,9 hPa 0,0 l/m 0,0 km/h (0 Bft) S-SO 152 0 min 0,000 mm 0,0 UV-I 21 W/m 10,7 C 11,6 C 0,0 km/h (0 Bft) 100,00 %
08.08.2016 06:40 11,6 C 94 % 1021,9 hPa 0,0 l/m 0,0 km/h (0 Bft) S-SO 152 0 min 0,000 mm 0,0 UV-I 21 W/m 10,7 C 11,6 C 0,0 km/h (0 Bft) 98,00 %
08.08.2016 06:42 11,7 C 94 % 1021,9 hPa 0,0 l/m 0,0 km/h (0 Bft) S-SO 152 0 min 0,000 mm 0,0 UV-I 23 W/m 10,8 C 11,7 C 0,0 km/h (0 Bft) 100,00 %
08.08.2016 06:44 11,8 C 95 % 1021,9 hPa 0,0 l/m 0,0 km/h (0 Bft) S-SO 152 0 min 0,000 mm 0,0 UV-I 23 W/m 11,0 C 11,8 C 0,0 km/h (0 Bft) 97,37 %
08.08.2016 06:46 11,8 C 94 % 1021,9 hPa 0,0 l/m 0,0 km/h (0 Bft) S-SO 152 0 min 0,000 mm 0,0 UV-I 23 W/m 10,9 C 11,8 C 0,0 km/h (0 Bft) 100,00 %
08.08.2016 06:48 11,9 C 94 % 1021,9 hPa 0,0 l/m 0,0 km/h (0 Bft) S-SO 152 0 min 0,000 mm 0,0 UV-I 24 W/m 11,0 C 11,9 C 0,0 km/h (0 Bft) 97,87 %
08.08.2016 06:50 12,1 C 94 % 1021,9 hPa 0,0 l/m 0,0 km/h (0 Bft) S-SO 152 0 min 0,000 mm 0,0 UV-I 25 W/m 11,2 C 12,1 C 0,0 km/h (0 Bft) 100,00 %
08.08.2016 06:52 12,2 C 94 % 1021,9 hPa 0,0 l/m 0,0 km/h (0 Bft) S-SO 152 0 min 0,000 mm 0,0 UV-I 25 W/m 11,3 C 12,2 C 0,0 km/h (0 Bft) 100,00 %
08.08.2016 06:54 12,3 C 94 % 1021,9 hPa 0,0 l/m 0,5 km/h (0 Bft) S-SO 152 0 min 0,000 mm 0,0 UV-I 25 W/m 11,4 C 12,3 C 1,6 km/h (1 Bft) 100,00 %
08.08.2016 06:56 12,3 C 94 % 1021,9 hPa 0,0 l/m 0,8 km/h (0 Bft) S-SO 152 0 min 0,000 mm 0,0 UV-I 26 W/m 11,4 C 12,3 C 1,6 km/h (1 Bft) 100,00 %
08.08.2016 06:58 12,4 C 94 % 1021,9 hPa 0,0 l/m 0,6 km/h (0 Bft) S-SO 152 0 min 0,000 mm 0,0 UV-I 33 W/m 11,5 C 12,4 C 1,6 km/h (1 Bft) 100,00 %
08.08.2016 07:00 12,4 C 94 % 1021,9 hPa 0,0 l/m 0,1 km/h (0 Bft) S-SO 152 0 min 0,000 mm 0,0 UV-I 84 W/m 11,5 C 12,4 C 1,6 km/h (1 Bft) 100,00 %
08.08.2016 07:02 12,5 C 93 % 1021,9 hPa 0,0 l/m 0,0 km/h (0 Bft) S-SO 152 2 min 0,000 mm 0,0 UV-I 105 W/m 11,4 C 12,5 C 0,0 km/h (0 Bft) 100,00 %
08.08.2016 07:04 12,6 C 93 % 1022,0 hPa 0,0 l/m 0,0 km/h (0 Bft) S-SO 152 2 min 0,000 mm 0,0 UV-I 110 W/m 11,5 C 12,6 C 0,0 km/h (0 Bft) 96,00 %
08.08.2016 07:06 12,7 C 93 % 1022,0 hPa 0,0 l/m 0,0 km/h (0 Bft) S-SO 152 2 min 0,000 mm 0,0 UV-I 114 W/m 11,6 C 12,7 C 0,0 km/h (0 Bft) 100,00 %
08.08.2016 07:08 12,8 C 93 % 1022,0 hPa 0,0 l/m 0,0 km/h (0 Bft) S-SO 152 2 min 0,000 mm 0,0 UV-I 116 W/m 11,7 C 12,8 C 0,0 km/h (0 Bft) 100,00 %
08.08.2016 07:10 13,0 C 93 % 1022,0 hPa 0,0 l/m 0,0 km/h (0 Bft) S-SO 152 2 min 0,000 mm 0,0 UV-I 118 W/m 11,9 C 13,0 C 0,0 km/h (0 Bft) 97,92 %
08.08.2016 07:12 13,1 C 93 % 1022,0 hPa 0,0 l/m 0,0 km/h (0 Bft) S-SO 152 2 min 0,000 mm 0,0 UV-I 120 W/m 12,0 C 13,1 C 0,0 km/h (0 Bft) 100,00 %
08.08.2016 07:14 13,2 C 93 % 1022,0 hPa 0,0 l/m 0,0 km/h (0 Bft) S-SO 152 2 min 0,000 mm 0,0 UV-I 121 W/m 12,1 C 13,2 C 0,0 km/h (0 Bft) 100,00 %
08.08.2016 07:16 13,4 C 93 % 1021,9 hPa 0,0 l/m 1,3 km/h (1 Bft) S-SO 152 2 min 0,000 mm 0,0 UV-I 123 W/m 12,3 C 13,4 C 3,2 km/h (1 Bft) 100,00 %
08.08.2016 07:18 13,6 C 92 % 1021,9 hPa 0,0 l/m 0,3 km/h (0 Bft) S-SO 152 2 min 0,000 mm 0,0 UV-I 128 W/m 12,3 C 13,6 C 1,6 km/h (1 Bft) 97,87 %
08.08.2016 07:20 13,7 C 91 % 1021,9 hPa 0,0 l/m 1,2 km/h (1 Bft) S-SO 152 2 min 0,000 mm 0,0 UV-I 136 W/m 12,3 C 13,7 C 3,2 km/h (1 Bft) 100,00 %
08.08.2016 07:22 13,7 C 91 % 1021,9 hPa 0,0 l/m 0,7 km/h (0 Bft) S-SO 152 2 min 0,000 mm 0,0 UV-I 148 W/m 12,3 C 13,7 C 1,6 km/h (1 Bft) 100,00 %
08.08.2016 07:24 13,7 C 91 % 1021,9 hPa 0,0 l/m 1,3 km/h (1 Bft) S-SO 152 2 min 0,000 mm 0,0 UV-I 160 W/m 12,3 C 13,7 C 3,2 km/h (1 Bft) 100,00 %
08.08.2016 07:26 13,8 C 91 % 1021,9 hPa 0,0 l/m 2,2 km/h (1 Bft) S-SO 152 2 min 0,000 mm 0,0 UV-I 174 W/m 12,4 C 13,8 C 3,2 km/h (1 Bft) 97,37 %
08.08.2016 07:28 13,9 C 90 % 1021,9 hPa 0,0 l/m 2,3 km/h (1 Bft) S-SO 152 2 min 0,000 mm 0,0 UV-I 185 W/m 12,3 C 13,9 C 3,2 km/h (1 Bft) 100,00 %
08.08.2016 07:30 14,1 C 91 % 1021,9 hPa 0,0 l/m 2,1 km/h (1 Bft) S-SO 152 2 min 0,000 mm 0,0 UV-I 193 W/m 12,7 C 14,1 C 3,2 km/h (1 Bft) 100,00 %
08.08.2016 07:32 14,2 C 89 % 1022,0 hPa 0,0 l/m 1,3 km/h (1 Bft) S-SO 152 2 min 0,000 mm 0,0 UV-I 199 W/m 12,4 C 14,2 C 3,2 km/h (1 Bft) 97,56 %
08.08.2016 07:34 14,3 C 90 % 1022,0 hPa 0,0 l/m 1,5 km/h (1 Bft) S-SO 152 2 min 0,000 mm 0,0 UV-I 205 W/m 12,7 C 14,3 C 3,2 km/h (1 Bft) 100,00 %
08.08.2016 07:36 14,4 C 89 % 1022,0 hPa 0,0 l/m 1,6 km/h (1 Bft) S-SO 152 2 min 0,000 mm 0,0 UV-I 210 W/m 12,6 C 14,4 C 3,2 km/h (1 Bft) 100,00 %
08.08.2016 07:38 14,5 C 90 % 1022,0 hPa 0,0 l/m 2,3 km/h (1 Bft) S-SO 152 2 min 0,000 mm 0,0 UV-I 215 W/m 12,9 C 14,5 C 3,2 km/h (1 Bft) 100,00 %
08.08.2016 07:40 14,6 C 89 % 1022,0 hPa 0,0 l/m 2,1 km/h (1 Bft) S-SO 152 2 min 0,000 mm 0,5 UV-I 221 W/m 12,8 C 14,6 C 3,2 km/h (1 Bft) 100,00 %
08.08.2016 07:42 14,7 C 88 % 1022,0 hPa 0,0 l/m 2,5 km/h (1 Bft) S-SO 152 2 min 0,000 mm 0,5 UV-I 226 W/m 12,7 C 14,7 C 3,2 km/h (1 Bft) 100,00 %
08.08.2016 07:44 14,8 C 88 % 1022,0 hPa 0,0 l/m 0,8 km/h (0 Bft) S-SO 152 2 min 0,000 mm 0,5 UV-I 231 W/m 12,8 C 14,8 C 3,2 km/h (1 Bft) 100,00 %
08.08.2016 07:46 14,8 C 87 % 1022,0 hPa 0,0 l/m 1,0 km/h (0 Bft) S-SO 152 2 min 0,000 mm 0,5 UV-I 237 W/m 12,7 C 14,8 C 1,6 km/h (1 Bft) 100,00 %
08.08.2016 07:48 14,9 C 87 % 1022,0 hPa 0,0 l/m 1,7 km/h (1 Bft) S-SO 149 2 min 0,000 mm 0,6 UV-I 241 W/m 12,8 C 14,9 C 4,8 km/h (1 Bft) 100,00 %
08.08.2016 07:50 15,1 C 87 % 1022,0 hPa 0,0 l/m 2,6 km/h (1 Bft) S-SO 147 2 min 0,000 mm 0,6 UV-I 247 W/m 13,0 C 15,1 C 4,8 km/h (1 Bft) 100,00 %
08.08.2016 07:52 15,2 C 88 % 1022,0 hPa 0,0 l/m 1,6 km/h (1 Bft) O-SO 109 2 min 0,000 mm 0,6 UV-I 253 W/m 13,2 C 15,2 C 4,8 km/h (1 Bft) 100,00 %
08.08.2016 07:54 15,3 C 87 % 1022,1 hPa 0,0 l/m 1,5 km/h (1 Bft) O-SO 108 2 min 0,000 mm 0,6 UV-I 257 W/m 13,1 C 15,3 C 3,2 km/h (1 Bft) 100,00 %
08.08.2016 07:56 15,3 C 87 % 1022,0 hPa 0,0 l/m 1,3 km/h (1 Bft) O 82 2 min 0,000 mm 0,7 UV-I 260 W/m 13,1 C 15,3 C 3,2 km/h (1 Bft) 100,00 %
08.08.2016 07:58 15,3 C 87 % 1022,0 hPa 0,0 l/m 0,4 km/h (0 Bft) O 82 2 min 0,000 mm 0,7 UV-I 258 W/m 13,1 C 15,3 C 1,6 km/h (1 Bft) 98,00 %
08.08.2016 08:00 15,3 C 87 % 1022,0 hPa 0,0 l/m 0,4 km/h (0 Bft) O 82 2 min 0,102 mm 0,7 UV-I 256 W/m 13,1 C 15,3 C 1,6 km/h (1 Bft) 95,74 %
08.08.2016 08:02 15,4 C 87 % 1022,0 hPa 0,0 l/m 0,5 km/h (0 Bft) O 82 2 min 0,000 mm 0,7 UV-I 250 W/m 13,2 C 15,4 C 1,6 km/h (1 Bft) 95,74 %
08.08.2016 08:04 15,4 C 86 % 1021,9 hPa 0,0 l/m 1,3 km/h (1 Bft) O 80 2 min 0,000 mm 0,8 UV-I 245 W/m 13,1 C 15,4 C 3,2 km/h (1 Bft) 97,87 %
08.08.2016 08:06 15,6 C 87 % 1021,8 hPa 0,0 l/m 4,5 km/h (1 Bft) NO 55 2 min 0,000 mm 0,8 UV-I 239 W/m 13,4 C 15,6 C 6,4 km/h (2 Bft) 98,00 %
08.08.2016 08:08 15,7 C 88 % 1021,8 hPa 0,0 l/m 4,3 km/h (1 Bft) N-NO 30 2 min 0,000 mm 0,8 UV-I 237 W/m 13,7 C 15,7 C 6,4 km/h (2 Bft) 97,56 %
08.08.2016 08:10 15,8 C 87 % 1021,8 hPa 0,0 l/m 3,3 km/h (1 Bft) N-NO 24 2 min 0,000 mm 0,9 UV-I 241 W/m 13,6 C 15,8 C 4,8 km/h (1 Bft) 96,00 %
08.08.2016 08:12 15,8 C 86 % 1021,8 hPa 0,0 l/m 1,8 km/h (1 Bft) N-NO 24 2 min 0,000 mm 0,9 UV-I 248 W/m 13,5 C 15,8 C 3,2 km/h (1 Bft) 98,00 %
08.08.2016 08:14 15,8 C 86 % 1021,8 hPa 0,0 l/m 0,9 km/h (0 Bft) N-NO 15 2 min 0,000 mm 0,9 UV-I 263 W/m 13,5 C 15,8 C 3,2 km/h (1 Bft) 97,37 %
08.08.2016 08:16 15,8 C 86 % 1021,9 hPa 0,0 l/m 0,3 km/h (0 Bft) N-NO 15 2 min 0,000 mm 0,9 UV-I 280 W/m 13,5 C 15,8 C 1,6 km/h (1 Bft) 97,87 %
08.08.2016 08:18 15,9 C 87 % 1021,9 hPa 0,0 l/m 1,9 km/h (1 Bft) N-NO 15 2 min 0,000 mm 1,0 UV-I 297 W/m 13,7 C 15,9 C 3,2 km/h (1 Bft) 97,87 %
08.08.2016 08:20 16,0 C 85 % 1021,9 hPa 0,0 l/m 1,1 km/h (1 Bft) N-NO 15 2 min 0,000 mm 1,0 UV-I 315 W/m 13,5 C 16,0 C 3,2 km/h (1 Bft) 96,00 %
08.08.2016 08:22 16,0 C 86 % 1021,8 hPa 0,0 l/m 0,4 km/h (0 Bft) N-NO 15 2 min 0,000 mm 1,0 UV-I 327 W/m 13,7 C 16,0 C 3,2 km/h (1 Bft) 97,87 %
08.08.2016 08:24 16,1 C 86 % 1021,8 hPa 0,0 l/m 0,8 km/h (0 Bft) NO 36 2 min 0,000 mm 1,1 UV-I 337 W/m 13,8 C 16,1 C 4,8 km/h (1 Bft) 98,04 %
08.08.2016 08:26 16,2 C 85 % 1021,8 hPa 0,0 l/m 3,5 km/h (1 Bft) NO 38 2 min 0,000 mm 1,1 UV-I 341 W/m 13,7 C 16,2 C 4,8 km/h (1 Bft) 95,92 %
08.08.2016 08:28 16,3 C 85 % 1021,7 hPa 0,0 l/m 3,0 km/h (1 Bft) NO 44 2 min 0,000 mm 1,1 UV-I 348 W/m 13,8 C 16,3 C 4,8 km/h (1 Bft) 95,83 %
08.08.2016 08:30 16,4 C 85 % 1021,7 hPa 0,0 l/m 2,3 km/h (1 Bft) NO 44 2 min 0,000 mm 1,2 UV-I 353 W/m 13,9 C 16,4 C 3,2 km/h (1 Bft) 97,14 %
08.08.2016 08:32 16,4 C 84 % 1021,7 hPa 0,0 l/m 2,4 km/h (1 Bft) NO 46 2 min 0,000 mm 1,2 UV-I 358 W/m 13,7 C 16,4 C 4,8 km/h (1 Bft) 100,00 %
08.08.2016 08:34 16,3 C 85 % 1021,7 hPa 0,0 l/m 2,8 km/h (1 Bft) NO 46 2 min 0,000 mm 1,2 UV-I 359 W/m 13,8 C 16,3 C 4,8 km/h (1 Bft) 100,00 %
08.08.2016 08:36 16,4 C 85 % 1021,7 hPa 0,0 l/m 2,7 km/h (1 Bft) NO 44 2 min 0,000 mm 1,3 UV-I 362 W/m 13,9 C 16,4 C 4,8 km/h (1 Bft) 100,00 %
08.08.2016 08:38 16,6 C 85 % 1021,7 hPa 0,0 l/m 4,0 km/h (1 Bft) NO 44 2 min 0,000 mm 1,3 UV-I 364 W/m 14,1 C 16,6 C 6,4 km/h (2 Bft) 100,00 %
08.08.2016 08:40 16,5 C 83 % 1021,7 hPa 0,0 l/m 0,8 km/h (0 Bft) NO 44 2 min 0,000 mm 1,3 UV-I 363 W/m 13,6 C 16,5 C 3,2 km/h (1 Bft) 98,00 %
08.08.2016 08:42 16,6 C 84 % 1021,6 hPa 0,0 l/m 2,9 km/h (1 Bft) NO 43 2 min 0,000 mm 1,3 UV-I 359 W/m 13,9 C 16,6 C 4,8 km/h (1 Bft) 97,37 %
08.08.2016 08:44 16,7 C 83 % 1021,6 hPa 0,0 l/m 1,5 km/h (1 Bft) NO 39 2 min 0,000 mm 1,4 UV-I 352 W/m 13,8 C 16,7 C 4,8 km/h (1 Bft) 98,00 %
08.08.2016 08:46 16,9 C 83 % 1021,6 hPa 0,0 l/m 0,2 km/h (0 Bft) NO 39 2 min 0,000 mm 1,4 UV-I 346 W/m 14,0 C 16,9 C 1,6 km/h (1 Bft) 100,00 %
08.08.2016 08:48 16,9 C 81 % 1021,5 hPa 0,0 l/m 1,4 km/h (1 Bft) NO 39 2 min 0,000 mm 1,5 UV-I 340 W/m 13,6 C 16,9 C 3,2 km/h (1 Bft) 100,00 %
08.08.2016 08:50 17,1 C 82 % 1021,5 hPa 0,0 l/m 0,8 km/h (0 Bft) NO 39 2 min 0,000 mm 1,5 UV-I 336 W/m 14,0 C 17,1 C 4,8 km/h (1 Bft) 100,00 %
08.08.2016 08:52 17,1 C 81 % 1021,5 hPa 0,0 l/m 0,6 km/h (0 Bft) NO 34 2 min 0,000 mm 1,5 UV-I 334 W/m 13,8 C 17,1 C 3,2 km/h (1 Bft) 100,00 %
08.08.2016 08:54 17,1 C 82 % 1021,5 hPa 0,0 l/m 0,5 km/h (0 Bft) NO 34 2 min 0,000 mm 1,6 UV-I 335 W/m 14,0 C 17,1 C 1,6 km/h (1 Bft) 98,00 %
08.08.2016 08:56 17,2 C 82 % 1021,4 hPa 0,0 l/m 2,3 km/h (1 Bft) NO 45 2 min 0,000 mm 1,6 UV-I 340 W/m 14,1 C 17,2 C 6,4 km/h (2 Bft) 98,00 %
08.08.2016 08:58 17,3 C 81 % 1021,4 hPa 0,0 l/m 3,6 km/h (1 Bft) NO 46 2 min 0,000 mm 1,7 UV-I 332 W/m 14,0 C 17,3 C 4,8 km/h (1 Bft) 100,00 %
08.08.2016 09:00 17,4 C 81 % 1021,4 hPa 0,0 l/m 4,4 km/h (1 Bft) NO 49 2 min 0,177 mm 1,7 UV-I 320 W/m 14,1 C 17,4 C 8,0 km/h (2 Bft) 98,00 %
08.08.2016 09:02 17,7 C 81 % 1021,4 hPa 0,0 l/m 5,7 km/h (1 Bft) NO 49 2 min 0,000 mm 1,8 UV-I 308 W/m 14,4 C 17,7 C 8,0 km/h (2 Bft) 100,00 %
08.08.2016 09:04 17,7 C 80 % 1021,4 hPa 0,0 l/m 3,0 km/h (1 Bft) O 81 2 min 0,000 mm 1,8 UV-I 305 W/m 14,2 C 17,7 C 6,4 km/h (2 Bft) 100,00 %
08.08.2016 09:06 17,8 C 80 % 1021,4 hPa 0,0 l/m 2,6 km/h (1 Bft) O-SO 112 2 min 0,000 mm 1,8 UV-I 307 W/m 14,3 C 17,8 C 6,4 km/h (2 Bft) 100,00 %
08.08.2016 09:08 17,7 C 77 % 1021,3 hPa 0,0 l/m 1,0 km/h (0 Bft) O-SO 113 2 min 0,000 mm 1,9 UV-I 315 W/m 13,6 C 17,7 C 3,2 km/h (1 Bft) 100,00 %
08.08.2016 09:10 17,8 C 78 % 1021,4 hPa 0,0 l/m 1,3 km/h (1 Bft) O-SO 119 2 min 0,000 mm 1,9 UV-I 330 W/m 13,9 C 17,8 C 3,2 km/h (1 Bft) 100,00 %
08.08.2016 09:12 17,9 C 77 % 1021,4 hPa 0,0 l/m 2,0 km/h (1 Bft) SO 143 2 min 0,000 mm 2,0 UV-I 358 W/m 13,8 C 17,9 C 4,8 km/h (1 Bft) 100,00 %
08.08.2016 09:14 18,1 C 78 % 1021,4 hPa 0,0 l/m 1,4 km/h (1 Bft) SO 143 2 min 0,000 mm 2,0 UV-I 384 W/m 14,2 C 18,1 C 3,2 km/h (1 Bft) 100,00 %
08.08.2016 09:16 18,1 C 76 % 1021,4 hPa 0,0 l/m 4,0 km/h (1 Bft) O-NO 69 2 min 0,000 mm 2,1 UV-I 412 W/m 13,8 C 18,1 C 6,4 km/h (2 Bft) 100,00 %
08.08.2016 09:18 18,2 C 78 % 1021,4 hPa 0,0 l/m 3,3 km/h (1 Bft) O-NO 63 2 min 0,000 mm 2,1 UV-I 435 W/m 14,3 C 18,2 C 4,8 km/h (1 Bft) 100,00 %
08.08.2016 09:20 18,3 C 78 % 1021,4 hPa 0,0 l/m 4,8 km/h (1 Bft) N-NO 19 2 min 0,000 mm 2,1 UV-I 448 W/m 14,4 C 18,3 C 8,0 km/h (2 Bft) 95,74 %
08.08.2016 09:22 18,5 C 75 % 1021,4 hPa 0,0 l/m 1,9 km/h (1 Bft) N-NW 348 2 min 0,000 mm 2,2 UV-I 465 W/m 14,0 C 18,5 C 4,8 km/h (1 Bft) 100,00 %
08.08.2016 09:24 18,5 C 75 % 1021,4 hPa 0,0 l/m 0,8 km/h (0 Bft) N 351 2 min 0,000 mm 2,2 UV-I 481 W/m 14,0 C 18,5 C 1,6 km/h (1 Bft) 97,73 %
08.08.2016 09:26 18,5 C 75 % 1021,4 hPa 0,0 l/m 2,0 km/h (1 Bft) N-NW 333 2 min 0,000 mm 2,2 UV-I 496 W/m 14,0 C 18,5 C 4,8 km/h (1 Bft) 97,56 %
08.08.2016 09:28 18,4 C 75 % 1021,5 hPa 0,0 l/m 1,3 km/h (1 Bft) N-NW 333 2 min 0,000 mm 2,3 UV-I 506 W/m 13,9 C 18,4 C 3,2 km/h (1 Bft) 98,00 %
08.08.2016 09:30 18,4 C 76 % 1021,5 hPa 0,0 l/m 1,7 km/h (1 Bft) N-NW 328 2 min 0,000 mm 2,3 UV-I 514 W/m 14,1 C 18,4 C 4,8 km/h (1 Bft) 100,00 %
08.08.2016 09:32 18,4 C 77 % 1021,5 hPa 0,0 l/m 2,3 km/h (1 Bft) W-NW 296 2 min 0,000 mm 2,4 UV-I 520 W/m 14,3 C 18,4 C 4,8 km/h (1 Bft) 100,00 %
08.08.2016 09:34 18,4 C 75 % 1021,4 hPa 0,0 l/m 0,8 km/h (0 Bft) W-NW 296 2 min 0,000 mm 2,4 UV-I 526 W/m 13,9 C 18,4 C 4,8 km/h (1 Bft) 97,87 %
08.08.2016 09:36 18,4 C 77 % 1021,4 hPa 0,0 l/m 2,8 km/h (1 Bft) W-NW 292 2 min 0,000 mm 2,5 UV-I 531 W/m 14,3 C 18,4 C 4,8 km/h (1 Bft) 100,00 %
08.08.2016 09:38 18,4 C 76 % 1021,4 hPa 0,0 l/m 2,2 km/h (1 Bft) N 350 2 min 0,000 mm 2,6 UV-I 535 W/m 14,1 C 18,4 C 6,4 km/h (2 Bft) 100,00 %
08.08.2016 09:40 18,8 C 77 % 1021,3 hPa 0,0 l/m 3,7 km/h (1 Bft) N-NO 30 2 min 0,000 mm 2,6 UV-I 540 W/m 14,7 C 18,8 C 4,8 km/h (1 Bft) 100,00 %
08.08.2016 09:42 18,9 C 76 % 1021,3 hPa 0,0 l/m 1,5 km/h (1 Bft) N-NO 23 2 min 0,000 mm 2,6 UV-I 545 W/m 14,6 C 18,9 C 3,2 km/h (1 Bft) 93,62 %
08.08.2016 09:44 18,8 C 73 % 1021,3 hPa 0,0 l/m 1,2 km/h (1 Bft) N 355 2 min 0,000 mm 2,7 UV-I 549 W/m 13,9 C 18,8 C 3,2 km/h (1 Bft) 100,00 %
08.08.2016 09:46 18,9 C 75 % 1021,2 hPa 0,0 l/m 1,0 km/h (0 Bft) N 355 2 min 0,000 mm 2,7 UV-I 556 W/m 14,4 C 18,9 C 3,2 km/h (1 Bft) 97,87 %
08.08.2016 09:48 18,9 C 74 % 1021,2 hPa 0,0 l/m 1,0 km/h (0 Bft) N 355 2 min 0,000 mm 2,8 UV-I 561 W/m 14,2 C 18,9 C 3,2 km/h (1 Bft) 97,87 %
08.08.2016 09:50 18,9 C 73 % 1021,1 hPa 0,0 l/m 1,0 km/h (0 Bft) N 5 2 min 0,000 mm 2,9 UV-I 566 W/m 13,9 C 18,9 C 3,2 km/h (1 Bft) 98,00 %
08.08.2016 09:52 19,2 C 73 % 1021,1 hPa 0,0 l/m 1,5 km/h (1 Bft) N-NW 347 2 min 0,000 mm 2,9 UV-I 571 W/m 14,2 C 19,2 C 3,2 km/h (1 Bft) 97,56 %
08.08.2016 09:54 19,4 C 75 % 1021,1 hPa 0,0 l/m 5,6 km/h (1 Bft) N-NO 28 2 min 0,000 mm 3,0 UV-I 576 W/m 14,8 C 19,4 C 8,0 km/h (2 Bft) 94,00 %
08.08.2016 09:56 19,4 C 71 % 1021,1 hPa 0,0 l/m 3,1 km/h (1 Bft) NO 49 2 min 0,000 mm 3,0 UV-I 581 W/m 14,0 C 19,4 C 6,4 km/h (2 Bft) 97,87 %
08.08.2016 09:58 19,4 C 73 % 1021,0 hPa 0,0 l/m 3,2 km/h (1 Bft) N-NO 25 2 min 0,000 mm 3,0 UV-I 586 W/m 14,4 C 19,4 C 6,4 km/h (2 Bft) 97,87 %
08.08.2016 10:00 19,4 C 73 % 1021,1 hPa 0,0 l/m 3,0 km/h (1 Bft) N-NO 30 2 min 0,280 mm 3,1 UV-I 590 W/m 14,4 C 19,4 C 6,4 km/h (2 Bft) 97,87 %
08.08.2016 10:02 19,4 C 72 % 1021,0 hPa 0,0 l/m 4,9 km/h (1 Bft) O-NO 69 2 min 0,000 mm 3,1 UV-I 595 W/m 14,2 C 19,4 C 8,0 km/h (2 Bft) 98,00 %
08.08.2016 10:04 19,6 C 73 % 1021,0 hPa 0,0 l/m 6,0 km/h (2 Bft) NO 48 2 min 0,000 mm 3,2 UV-I 600 W/m 14,6 C 19,6 C 8,0 km/h (2 Bft) 95,45 %
08.08.2016 10:06 19,6 C 73 % 1021,0 hPa 0,0 l/m 5,1 km/h (1 Bft) O-NO 67 2 min 0,000 mm 3,2 UV-I 606 W/m 14,6 C 19,6 C 8,0 km/h (2 Bft) 98,00 %
08.08.2016 10:08 19,6 C 71 % 1020,9 hPa 0,0 l/m 3,6 km/h (1 Bft) O-NO 69 2 min 0,000 mm 3,2 UV-I 610 W/m 14,2 C 19,6 C 8,0 km/h (2 Bft) 94,74 %
08.08.2016 10:10 19,7 C 71 % 1021,0 hPa 0,0 l/m 5,4 km/h (1 Bft) N-NO 24 2 min 0,000 mm 3,3 UV-I 615 W/m 14,3 C 19,7 C 8,0 km/h (2 Bft) 96,23 %
08.08.2016 10:12 19,8 C 72 % 1020,9 hPa 0,0 l/m 4,3 km/h (1 Bft) NO 49 2 min 0,000 mm 3,4 UV-I 620 W/m 14,6 C 19,8 C 9,7 km/h (2 Bft) 97,87 %
08.08.2016 10:14 19,9 C 68 % 1021,0 hPa 0,0 l/m 5,7 km/h (1 Bft) O-NO 63 2 min 0,000 mm 3,4 UV-I 624 W/m 13,8 C 19,9 C 9,7 km/h (2 Bft) 97,87 %
08.08.2016 10:16 19,8 C 69 % 1021,0 hPa 0,0 l/m 4,1 km/h (1 Bft) NO 53 2 min 0,000 mm 3,4 UV-I 627 W/m 13,9 C 19,8 C 6,4 km/h (2 Bft) 98,00 %
08.08.2016 10:18 19,8 C 69 % 1020,9 hPa 0,0 l/m 1,6 km/h (1 Bft) O-NO 69 2 min 0,000 mm 3,5 UV-I 633 W/m 13,9 C 19,8 C 3,2 km/h (1 Bft) 97,44 %
08.08.2016 10:20 19,8 C 69 % 1020,9 hPa 0,0 l/m 2,5 km/h (1 Bft) O-NO 62 2 min 0,000 mm 3,5 UV-I 637 W/m 13,9 C 19,8 C 4,8 km/h (1 Bft) 97,87 %
08.08.2016 10:22 19,9 C 69 % 1020,9 hPa 0,0 l/m 3,3 km/h (1 Bft) O 86 2 min 0,000 mm 3,6 UV-I 642 W/m 14,0 C 19,9 C 6,4 km/h (2 Bft) 95,45 %
08.08.2016 10:24 20,0 C 70 % 1020,9 hPa 0,0 l/m 3,7 km/h (1 Bft) O-SO 117 2 min 0,000 mm 3,6 UV-I 646 W/m 14,4 C 20,0 C 8,0 km/h (2 Bft) 98,00 %
08.08.2016 10:26 20,2 C 73 % 1020,9 hPa 0,0 l/m 3,4 km/h (1 Bft) N-NO 27 2 min 0,000 mm 3,7 UV-I 649 W/m 15,2 C 20,2 C 8,0 km/h (2 Bft) 100,00 %
08.08.2016 10:28 20,5 C 71 % 1020,9 hPa 0,0 l/m 5,7 km/h (1 Bft) O-NO 74 2 min 0,000 mm 3,7 UV-I 651 W/m 15,1 C 20,5 C 8,0 km/h (2 Bft) 93,62 %
08.08.2016 10:30 20,4 C 68 % 1020,9 hPa 0,0 l/m 3,5 km/h (1 Bft) O 80 2 min 0,000 mm 3,8 UV-I 655 W/m 14,3 C 20,4 C 6,4 km/h (2 Bft) 97,73 %
08.08.2016 10:32 20,2 C 69 % 1020,9 hPa 0,0 l/m 2,0 km/h (1 Bft) O 80 2 min 0,000 mm 3,8 UV-I 659 W/m 14,3 C 20,2 C 4,8 km/h (1 Bft) 100,00 %
08.08.2016 10:34 20,1 C 71 % 1020,9 hPa 0,0 l/m 0,9 km/h (0 Bft) O 80 2 min 0,000 mm 3,9 UV-I 663 W/m 14,7 C 20,1 C 3,2 km/h (1 Bft) 100,00 %
08.08.2016 10:36 20,1 C 71 % 1020,9 hPa 0,0 l/m 0,4 km/h (0 Bft) O 80 2 min 0,000 mm 3,9 UV-I 669 W/m 14,7 C 20,1 C 1,6 km/h (1 Bft) 97,56 %
08.08.2016 10:38 20,3 C 74 % 1020,9 hPa 0,0 l/m 1,6 km/h (1 Bft) O-NO 74 2 min 0,000 mm 4,0 UV-I 670 W/m 15,5 C 20,3 C 3,2 km/h (1 Bft) 100,00 %
08.08.2016 10:40 20,7 C 73 % 1020,9 hPa 0,0 l/m 4,7 km/h (1 Bft) NO 36 2 min 0,000 mm 4,0 UV-I 676 W/m 15,7 C 20,7 C 9,7 km/h (2 Bft) 100,00 %
08.08.2016 10:42 20,8 C 70 % 1020,9 hPa 0,0 l/m 4,9 km/h (1 Bft) N 351 2 min 0,000 mm 4,1 UV-I 682 W/m 15,1 C 20,8 C 11,3 km/h (2 Bft) 98,00 %
08.08.2016 10:44 20,8 C 69 % 1020,9 hPa 0,0 l/m 3,0 km/h (1 Bft) N-NO 32 2 min 0,000 mm 4,1 UV-I 684 W/m 14,9 C 20,8 C 6,4 km/h (2 Bft) 97,56 %
08.08.2016 10:46 20,7 C 69 % 1021,0 hPa 0,0 l/m 2,1 km/h (1 Bft) O-SO 109 2 min 0,000 mm 4,2 UV-I 688 W/m 14,8 C 20,7 C 4,8 km/h (1 Bft) 100,00 %
08.08.2016 10:48 20,6 C 73 % 1020,9 hPa 0,0 l/m 0,9 km/h (0 Bft) O 88 2 min 0,000 mm 4,2 UV-I 693 W/m 15,6 C 20,6 C 3,2 km/h (1 Bft) 100,00 %
08.08.2016 10:50 20,7 C 70 % 1020,9 hPa 0,0 l/m 1,9 km/h (1 Bft) NW 311 2 min 0,000 mm 4,3 UV-I 696 W/m 15,0 C 20,7 C 4,8 km/h (1 Bft) 100,00 %
08.08.2016 10:52 20,8 C 71 % 1020,9 hPa 0,0 l/m 2,7 km/h (1 Bft) NW 311 2 min 0,000 mm 4,4 UV-I 700 W/m 15,3 C 20,8 C 4,8 km/h (1 Bft) 98,21 %
08.08.2016 10:54 20,8 C 74 % 1020,8 hPa 0,0 l/m 1,4 km/h (1 Bft) NW 313 2 min 0,000 mm 4,4 UV-I 704 W/m 16,0 C 20,8 C 4,8 km/h (1 Bft) 100,00 %
08.08.2016 10:56 21,2 C 72 % 1020,8 hPa 0,0 l/m 2,6 km/h (1 Bft) N-NO 28 2 min 0,000 mm 4,4 UV-I 707 W/m 15,9 C 21,2 C 4,8 km/h (1 Bft) 100,00 %
08.08.2016 10:58 21,3 C 67 % 1020,8 hPa 0,0 l/m 4,2 km/h (1 Bft) O-NO 61 2 min 0,000 mm 4,5 UV-I 712 W/m 14,9 C 21,3 C 6,4 km/h (2 Bft) 100,00 %
08.08.2016 11:00 21,2 C 68 % 1020,8 hPa 0,0 l/m 3,0 km/h (1 Bft) O-SO 110 2 min 0,381 mm 4,5 UV-I 715 W/m 15,1 C 21,2 C 4,8 km/h (1 Bft) 100,00 %
08.08.2016 11:02 21,1 C 67 % 1020,8 hPa 0,0 l/m 3,1 km/h (1 Bft) O-SO 115 2 min 0,000 mm 4,6 UV-I 718 W/m 14,7 C 21,1 C 4,8 km/h (1 Bft) 100,00 %
08.08.2016 11:04 21,1 C 69 % 1020,8 hPa 0,0 l/m 1,2 km/h (1 Bft) NO 40 2 min 0,000 mm 4,6 UV-I 721 W/m 15,2 C 21,1 C 3,2 km/h (1 Bft) 100,00 %
08.08.2016 11:06 21,3 C 68 % 1020,7 hPa 0,0 l/m 3,0 km/h (1 Bft) N-NW 342 2 min 0,000 mm 4,6 UV-I 722 W/m 15,1 C 21,3 C 6,4 km/h (2 Bft) 100,00 %
08.08.2016 11:08 21,3 C 68 % 1020,7 hPa 0,0 l/m 3,7 km/h (1 Bft) N-NO 28 2 min 0,000 mm 4,7 UV-I 728 W/m 15,1 C 21,3 C 8,0 km/h (2 Bft) 100,00 %
08.08.2016 11:10 21,3 C 66 % 1020,7 hPa 0,0 l/m 1,8 km/h (1 Bft) N-NO 32 2 min 0,000 mm 4,7 UV-I 730 W/m 14,7 C 21,3 C 3,2 km/h (1 Bft) 100,00 %
08.08.2016 11:12 21,2 C 67 % 1020,7 hPa 0,0 l/m 1,5 km/h (1 Bft) N-NO 27 2 min 0,000 mm 4,8 UV-I 736 W/m 14,8 C 21,2 C 3,2 km/h (1 Bft) 100,00 %
08.08.2016 11:14 21,3 C 70 % 1020,7 hPa 0,0 l/m 2,1 km/h (1 Bft) NO 56 2 min 0,000 mm 4,9 UV-I 738 W/m 15,6 C 21,3 C 4,8 km/h (1 Bft) 97,87 %
08.08.2016 11:16 21,6 C 68 % 1020,7 hPa 0,0 l/m 3,9 km/h (1 Bft) NO 50 2 min 0,000 mm 4,9 UV-I 740 W/m 15,4 C 21,6 C 6,4 km/h (2 Bft) 100,00 %
08.08.2016 11:18 21,9 C 69 % 1020,6 hPa 0,0 l/m 2,6 km/h (1 Bft) NO 36 2 min 0,000 mm 4,9 UV-I 745 W/m 15,9 C 21,9 C 4,8 km/h (1 Bft) 100,00 %
08.08.2016 11:20 21,9 C 68 % 1020,6 hPa 0,0 l/m 0,8 km/h (0 Bft) N 350 2 min 0,000 mm 5,0 UV-I 749 W/m 15,7 C 21,9 C 3,2 km/h (1 Bft) 100,00 %
08.08.2016 11:22 22,1 C 67 % 1020,5 hPa 0,0 l/m 3,0 km/h (1 Bft) O-NO 57 2 min 0,000 mm 5,0 UV-I 747 W/m 15,7 C 22,1 C 4,8 km/h (1 Bft) 100,00 %
08.08.2016 11:24 22,1 C 63 % 1020,5 hPa 0,0 l/m 3,6 km/h (1 Bft) N-NO 28 2 min 0,000 mm 5,0 UV-I 751 W/m 14,7 C 22,1 C 6,4 km/h (2 Bft) 100,00 %
08.08.2016 11:26 21,9 C 64 % 1020,5 hPa 0,0 l/m 3,7 km/h (1 Bft) O 84 2 min 0,000 mm 5,1 UV-I 758 W/m 14,8 C 21,9 C 6,4 km/h (2 Bft) 100,00 %
08.08.2016 11:28 21,8 C 67 % 1020,5 hPa 0,0 l/m 3,9 km/h (1 Bft) O-SO 102 2 min 0,000 mm 5,1 UV-I 763 W/m 15,4 C 21,8 C 6,4 km/h (2 Bft) 100,00 %
08.08.2016 11:30 21,8 C 65 % 1020,4 hPa 0,0 l/m 4,2 km/h (1 Bft) O 86 2 min 0,000 mm 5,2 UV-I 763 W/m 14,9 C 21,8 C 6,4 km/h (2 Bft) 100,00 %
08.08.2016 11:32 21,8 C 66 % 1020,4 hPa 0,0 l/m 1,2 km/h (1 Bft) O 81 2 min 0,000 mm 5,2 UV-I 765 W/m 15,2 C 21,8 C 3,2 km/h (1 Bft) 100,00 %
08.08.2016 11:34 22,0 C 67 % 1020,4 hPa 0,0 l/m 1,2 km/h (1 Bft) NW 318 2 min 0,000 mm 5,3 UV-I 769 W/m 15,6 C 22,0 C 3,2 km/h (1 Bft) 100,00 %
08.08.2016 11:36 22,2 C 67 % 1020,4 hPa 0,0 l/m 3,5 km/h (1 Bft) NW 322 2 min 0,000 mm 5,3 UV-I 770 W/m 15,8 C 22,2 C 6,4 km/h (2 Bft) 100,00 %
08.08.2016 11:38 22,2 C 67 % 1020,4 hPa 0,0 l/m 1,8 km/h (1 Bft) NW 320 2 min 0,000 mm 5,3 UV-I 770 W/m 15,8 C 22,2 C 3,2 km/h (1 Bft) 100,00 %
08.08.2016 11:40 22,3 C 65 % 1020,4 hPa 0,0 l/m 1,9 km/h (1 Bft) O-NO 78 2 min 0,000 mm 5,3 UV-I 772 W/m 15,4 C 22,3 C 4,8 km/h (1 Bft) 100,00 %
08.08.2016 11:42 22,3 C 64 % 1020,3 hPa 0,0 l/m 3,7 km/h (1 Bft) NO 55 2 min 0,000 mm 5,4 UV-I 777 W/m 15,2 C 22,3 C 4,8 km/h (1 Bft) 100,00 %
08.08.2016 11:44 22,3 C 62 % 1020,3 hPa 0,0 l/m 2,8 km/h (1 Bft) O-NO 78 2 min 0,000 mm 5,4 UV-I 779 W/m 14,7 C 22,3 C 4,8 km/h (1 Bft) 97,87 %
08.08.2016 11:46 22,2 C 63 % 1020,3 hPa 0,0 l/m 2,2 km/h (1 Bft) S-SO 167 2 min 0,000 mm 5,1 UV-I 780 W/m 14,8 C 22,2 C 8,0 km/h (2 Bft) 98,00 %
08.08.2016 11:48 22,1 C 64 % 1020,2 hPa 0,0 l/m 2,7 km/h (1 Bft) S 188 2 min 0,000 mm 5,4 UV-I 781 W/m 15,0 C 22,1 C 4,8 km/h (1 Bft) 97,37 %
08.08.2016 11:50 22,3 C 66 % 1020,3 hPa 0,0 l/m 2,4 km/h (1 Bft) NO 43 2 min 0,000 mm 5,5 UV-I 785 W/m 15,6 C 22,3 C 6,4 km/h (2 Bft) 95,74 %
08.08.2016 11:52 22,6 C 63 % 1020,2 hPa 0,0 l/m 3,7 km/h (1 Bft) O-NO 66 2 min 0,000 mm 5,5 UV-I 785 W/m 15,2 C 22,6 C 6,4 km/h (2 Bft) 96,00 %
08.08.2016 11:54 22,4 C 66 % 1020,2 hPa 0,0 l/m 1,1 km/h (1 Bft) O-NO 66 2 min 0,000 mm 5,6 UV-I 789 W/m 15,7 C 22,4 C 3,2 km/h (1 Bft) 92,45 %
08.08.2016 11:56 22,6 C 69 % 1020,2 hPa 0,0 l/m 0,6 km/h (0 Bft) O-NO 66 2 min 0,000 mm 5,6 UV-I 792 W/m 16,6 C 22,6 C 3,2 km/h (1 Bft) 94,74 %
08.08.2016 11:58 22,8 C 67 % 1020,2 hPa 0,0 l/m 6,0 km/h (2 Bft) O-NO 57 2 min 0,000 mm 5,6 UV-I 790 W/m 16,3 C 22,8 C 8,0 km/h (2 Bft) 97,87 %
08.08.2016 12:00 23,1 C 64 % 1020,2 hPa 0,0 l/m 7,7 km/h (2 Bft) N-NO 26 2 min 0,457 mm 5,7 UV-I 793 W/m 15,9 C 22,7 C 11,3 km/h (2 Bft) 97,87 %
08.08.2016 12:02 23,2 C 61 % 1020,1 hPa 0,0 l/m 5,1 km/h (1 Bft) O-NO 71 2 min 0,000 mm 5,7 UV-I 796 W/m 15,3 C 23,2 C 9,7 km/h (2 Bft) 98,00 %
08.08.2016 12:04 22,9 C 60 % 1020,1 hPa 0,0 l/m 2,3 km/h (1 Bft) N 350 2 min 0,000 mm 5,7 UV-I 796 W/m 14,7 C 22,9 C 4,8 km/h (1 Bft) 98,11 %
08.08.2016 12:06 22,7 C 61 % 1020,1 hPa 0,0 l/m 1,1 km/h (1 Bft) SW 220 2 min 0,000 mm 5,5 UV-I 799 W/m 14,8 C 22,7 C 4,8 km/h (1 Bft) 97,14 %
08.08.2016 12:08 22,8 C 65 % 1020,1 hPa 0,0 l/m 2,2 km/h (1 Bft) N-NW 334 2 min 0,000 mm 5,7 UV-I 801 W/m 15,9 C 22,8 C 6,4 km/h (2 Bft) 98,00 %
08.08.2016 12:10 22,9 C 64 % 1020,0 hPa 0,0 l/m 2,5 km/h (1 Bft) N-NW 339 2 min 0,000 mm 5,2 UV-I 803 W/m 15,7 C 22,9 C 4,8 km/h (1 Bft) 98,00 %
08.08.2016 12:12 23,3 C 63 % 1020,0 hPa 0,0 l/m 2,2 km/h (1 Bft) NW 324 2 min 0,000 mm 5,8 UV-I 804 W/m 15,9 C 23,3 C 4,8 km/h (1 Bft) 94,00 %
08.08.2016 12:14 23,3 C 58 % 1020,0 hPa 0,0 l/m 2,3 km/h (1 Bft) N-NW 339 2 min 0,000 mm 5,8 UV-I 803 W/m 14,6 C 23,3 C 6,4 km/h (2 Bft) 100,00 %
08.08.2016 12:16 23,0 C 60 % 1019,9 hPa 0,0 l/m 1,8 km/h (1 Bft) N-NW 346 2 min 0,000 mm 5,8 UV-I 805 W/m 14,8 C 23,0 C 3,2 km/h (1 Bft) 94,55 %
08.08.2016 12:18 22,9 C 61 % 1019,9 hPa 0,0 l/m 3,9 km/h (1 Bft) O-SO 115 2 min 0,000 mm 5,9 UV-I 806 W/m 15,0 C 22,9 C 6,4 km/h (2 Bft) 97,62 %
08.08.2016 12:20 22,8 C 59 % 1019,9 hPa 0,0 l/m 2,4 km/h (1 Bft) S-SO 150 2 min 0,000 mm 5,9 UV-I 809 W/m 14,4 C 22,8 C 4,8 km/h (1 Bft) 98,11 %
08.08.2016 12:22 22,9 C 67 % 1019,8 hPa 0,0 l/m 0,6 km/h (0 Bft) S-SO 150 2 min 0,000 mm 6,0 UV-I 811 W/m 16,4 C 22,9 C 1,6 km/h (1 Bft) 97,87 %
08.08.2016 12:24 22,9 C 60 % 1019,8 hPa 0,0 l/m 1,2 km/h (1 Bft) SW 232 2 min 0,000 mm 6,0 UV-I 814 W/m 14,7 C 22,9 C 3,2 km/h (1 Bft) 98,00 %
08.08.2016 12:26 22,8 C 59 % 1019,8 hPa 0,0 l/m 2,6 km/h (1 Bft) S 173 2 min 0,000 mm 6,0 UV-I 816 W/m 14,4 C 22,8 C 6,4 km/h (2 Bft) 100,00 %
08.08.2016 12:28 22,9 C 60 % 1019,7 hPa 0,0 l/m 3,1 km/h (1 Bft) W-SW 247 2 min 0,000 mm 6,0 UV-I 817 W/m 14,7 C 22,9 C 6,4 km/h (2 Bft) 100,00 %
08.08.2016 12:30 23,2 C 61 % 1019,7 hPa 0,0 l/m 3,8 km/h (1 Bft) N 11 2 min 0,000 mm 6,0 UV-I 816 W/m 15,3 C 23,2 C 8,0 km/h (2 Bft) 100,00 %
08.08.2016 12:32 23,5 C 58 % 1019,7 hPa 0,0 l/m 2,7 km/h (1 Bft) N 5 2 min 0,000 mm 6,0 UV-I 815 W/m 14,7 C 23,5 C 6,4 km/h (2 Bft) 100,00 %
08.08.2016 12:34 23,7 C 60 % 1019,7 hPa 0,0 l/m 3,3 km/h (1 Bft) NW 324 2 min 0,000 mm 5,6 UV-I 820 W/m 15,5 C 23,7 C 12,9 km/h (3 Bft) 100,00 %
08.08.2016 12:36 23,8 C 58 % 1019,7 hPa 0,0 l/m 2,9 km/h (1 Bft) W-NW 290 2 min 0,000 mm 5,6 UV-I 822 W/m 15,0 C 23,8 C 4,8 km/h (1 Bft) 100,00 %
08.08.2016 12:38 23,8 C 57 % 1019,7 hPa 0,0 l/m 2,7 km/h (1 Bft) N-NW 327 2 min 0,000 mm 6,2 UV-I 825 W/m 14,8 C 23,8 C 6,4 km/h (2 Bft) 100,00 %
08.08.2016 12:40 23,8 C 62 % 1019,6 hPa 0,0 l/m 2,1 km/h (1 Bft) NW 323 2 min 0,000 mm 6,1 UV-I 822 W/m 16,1 C 23,8 C 3,2 km/h (1 Bft) 100,00 %
08.08.2016 12:42 24,0 C 58 % 1019,6 hPa 0,0 l/m 1,5 km/h (1 Bft) N-NW 331 2 min 0,000 mm 6,1 UV-I 819 W/m 15,2 C 24,0 C 6,4 km/h (2 Bft) 97,56 %
08.08.2016 12:44 24,1 C 55 % 1019,6 hPa 0,0 l/m 2,2 km/h (1 Bft) NW 326 2 min 0,000 mm 6,1 UV-I 823 W/m 14,5 C 24,1 C 6,4 km/h (2 Bft) 100,00 %
08.08.2016 12:46 24,1 C 55 % 1019,6 hPa 0,0 l/m 4,5 km/h (1 Bft) W 263 2 min 0,000 mm 6,1 UV-I 823 W/m 14,5 C 24,1 C 6,4 km/h (2 Bft) 100,00 %
08.08.2016 12:48 23,9 C 57 % 1019,6 hPa 0,0 l/m 4,6 km/h (1 Bft) W 273 2 min 0,000 mm 6,2 UV-I 826 W/m 14,9 C 23,9 C 6,4 km/h (2 Bft) 100,00 %
08.08.2016 12:50 24,1 C 58 % 1019,6 hPa 0,0 l/m 1,6 km/h (1 Bft) NO 35 2 min 0,000 mm 6,1 UV-I 822 W/m 15,3 C 24,1 C 4,8 km/h (1 Bft) 100,00 %
08.08.2016 12:52 24,3 C 59 % 1019,6 hPa 0,0 l/m 1,6 km/h (1 Bft) NW 319 2 min 0,000 mm 6,1 UV-I 821 W/m 15,8 C 24,3 C 4,8 km/h (1 Bft) 100,00 %
08.08.2016 12:54 24,4 C 60 % 1019,5 hPa 0,0 l/m 2,4 km/h (1 Bft) W-NW 299 2 min 0,000 mm 6,2 UV-I 824 W/m 16,1 C 24,4 C 6,4 km/h (2 Bft) 100,00 %
08.08.2016 12:56 24,6 C 59 % 1019,5 hPa 0,0 l/m 2,6 km/h (1 Bft) NW 319 2 min 0,000 mm 6,2 UV-I 828 W/m 16,0 C 24,6 C 4,8 km/h (1 Bft) 96,36 %
08.08.2016 12:58 24,7 C 55 % 1019,5 hPa 0,0 l/m 4,4 km/h (1 Bft) NO 45 2 min 0,000 mm 6,2 UV-I 826 W/m 15,0 C 24,7 C 8,0 km/h (2 Bft) 100,00 %
08.08.2016 13:00 24,6 C 61 % 1019,6 hPa 0,0 l/m 3,1 km/h (1 Bft) N-NO 24 2 min 0,000 mm 6,2 UV-I 825 W/m 16,6 C 24,6 C 6,4 km/h (2 Bft) 100,00 %
08.08.2016 13:02 24,7 C 57 % 1019,5 hPa 0,0 l/m 5,4 km/h (1 Bft) NO 47 2 min 0,508 mm 6,2 UV-I 828 W/m 15,6 C 24,7 C 9,7 km/h (2 Bft) 100,00 %
08.08.2016 13:04 24,8 C 54 % 1019,5 hPa 0,0 l/m 3,2 km/h (1 Bft) NW 313 2 min 0,000 mm 6,2 UV-I 824 W/m 14,8 C 24,8 C 4,8 km/h (1 Bft) 100,00 %
08.08.2016 13:06 24,6 C 54 % 1019,5 hPa 0,0 l/m 2,6 km/h (1 Bft) NW 310 2 min 0,000 mm 6,2 UV-I 829 W/m 14,7 C 24,6 C 4,8 km/h (1 Bft) 100,00 %
08.08.2016 13:08 24,5 C 57 % 1019,4 hPa 0,0 l/m 2,0 km/h (1 Bft) N-NO 28 2 min 0,000 mm 6,2 UV-I 830 W/m 15,4 C 24,5 C 3,2 km/h (1 Bft) 98,00 %
08.08.2016 13:10 24,6 C 57 % 1019,4 hPa 0,0 l/m 3,8 km/h (1 Bft) W 275 2 min 0,000 mm 6,2 UV-I 829 W/m 15,5 C 24,6 C 8,0 km/h (2 Bft) 97,87 %
08.08.2016 13:12 24,5 C 58 % 1019,4 hPa 0,0 l/m 2,7 km/h (1 Bft) NW 309 2 min 0,000 mm 6,2 UV-I 827 W/m 15,7 C 24,5 C 4,8 km/h (1 Bft) 100,00 %
08.08.2016 13:14 24,5 C 56 % 1019,4 hPa 0,0 l/m 1,2 km/h (1 Bft) W-NW 297 2 min 0,000 mm 6,2 UV-I 828 W/m 15,1 C 24,5 C 4,8 km/h (1 Bft) 97,37 %
08.08.2016 13:16 24,6 C 56 % 1019,4 hPa 0,0 l/m 1,8 km/h (1 Bft) S 191 2 min 0,000 mm 6,3 UV-I 832 W/m 15,2 C 24,6 C 4,8 km/h (1 Bft) 98,11 %
08.08.2016 13:18 24,6 C 57 % 1019,4 hPa 0,0 l/m 3,2 km/h (1 Bft) N-NO 24 2 min 0,000 mm 6,3 UV-I 833 W/m 15,5 C 24,6 C 6,4 km/h (2 Bft) 100,00 %
08.08.2016 13:20 24,6 C 56 % 1019,4 hPa 0,0 l/m 1,7 km/h (1 Bft) O-SO 107 2 min 0,000 mm 6,3 UV-I 832 W/m 15,2 C 24,6 C 3,2 km/h (1 Bft) 100,00 %
08.08.2016 13:22 24,6 C 55 % 1019,4 hPa 0,0 l/m 1,9 km/h (1 Bft) O 91 2 min 0,000 mm 6,3 UV-I 830 W/m 14,9 C 24,6 C 4,8 km/h (1 Bft) 100,00 %
08.08.2016 13:24 24,6 C 54 % 1019,4 hPa 0,0 l/m 2,2 km/h (1 Bft) SO 139 2 min 0,000 mm 6,2 UV-I 829 W/m 14,7 C 24,6 C 4,8 km/h (1 Bft) 100,00 %
08.08.2016 13:26 24,7 C 57 % 1019,4 hPa 0,0 l/m 2,6 km/h (1 Bft) N 10 2 min 0,000 mm 6,2 UV-I 826 W/m 15,6 C 24,7 C 4,8 km/h (1 Bft) 97,87 %
08.08.2016 13:28 24,8 C 56 % 1019,4 hPa 0,0 l/m 2,8 km/h (1 Bft) N-NW 344 2 min 0,000 mm 6,2 UV-I 824 W/m 15,4 C 24,8 C 4,8 km/h (1 Bft) 100,00 %
08.08.2016 13:30 24,8 C 53 % 1019,3 hPa 0,0 l/m 2,5 km/h (1 Bft) SW 214 2 min 0,000 mm 6,2 UV-I 827 W/m 14,6 C 24,8 C 4,8 km/h (1 Bft) 100,00 %
08.08.2016 13:32 24,8 C 56 % 1019,4 hPa 0,0 l/m 6,4 km/h (2 Bft) SW 230 2 min 0,000 mm 6,2 UV-I 825 W/m 15,4 C 24,8 C 17,7 km/h (3 Bft) 100,00 %
08.08.2016 13:34 24,7 C 53 % 1019,4 hPa 0,0 l/m 6,6 km/h (2 Bft) S-SW 208 2 min 0,000 mm 6,2 UV-I 826 W/m 14,5 C 24,7 C 11,3 km/h (2 Bft) 100,00 %
08.08.2016 13:36 24,6 C 50 % 1019,3 hPa 0,0 l/m 2,5 km/h (1 Bft) S 174 2 min 0,000 mm 6,2 UV-I 828 W/m 13,5 C 24,6 C 4,8 km/h (1 Bft) 100,00 %
08.08.2016 13:38 24,6 C 54 % 1019,3 hPa 0,0 l/m 7,1 km/h (2 Bft) SO 126 2 min 0,000 mm 6,2 UV-I 826 W/m 14,7 C 24,4 C 11,3 km/h (2 Bft) 100,00 %
08.08.2016 13:40 24,8 C 53 % 1019,3 hPa 0,0 l/m 6,0 km/h (2 Bft) S 169 2 min 0,000 mm 6,2 UV-I 827 W/m 14,6 C 24,8 C 11,3 km/h (2 Bft) 97,56 %
08.08.2016 13:42 24,6 C 52 % 1019,3 hPa 0,0 l/m 3,8 km/h (1 Bft) S-SO 162 2 min 0,000 mm 6,2 UV-I 830 W/m 14,1 C 24,6 C 8,0 km/h (2 Bft) 98,15 %
08.08.2016 13:44 24,6 C 53 % 1019,3 hPa 0,0 l/m 2,6 km/h (1 Bft) SW 219 2 min 0,000 mm 6,2 UV-I 829 W/m 14,4 C 24,6 C 4,8 km/h (1 Bft) 95,45 %
08.08.2016 13:46 24,7 C 55 % 1019,3 hPa 0,0 l/m 6,8 km/h (2 Bft) SW 221 2 min 0,000 mm 6,1 UV-I 824 W/m 15,0 C 24,6 C 12,9 km/h (3 Bft) 98,00 %
08.08.2016 13:48 24,7 C 53 % 1019,3 hPa 0,0 l/m 7,1 km/h (2 Bft) W-SW 254 2 min 0,000 mm 6,1 UV-I 825 W/m 14,5 C 24,5 C 11,3 km/h (2 Bft) 97,73 %
08.08.2016 13:50 24,7 C 51 % 1019,3 hPa 0,0 l/m 5,0 km/h (1 Bft) W-NW 295 2 min 0,000 mm 6,1 UV-I 822 W/m 13,9 C 24,7 C 11,3 km/h (2 Bft) 96,00 %
08.08.2016 13:52 24,7 C 52 % 1019,2 hPa 0,0 l/m 4,5 km/h (1 Bft) W-NW 297 2 min 0,000 mm 6,1 UV-I 819 W/m 14,2 C 24,7 C 8,0 km/h (2 Bft) 97,37 %
08.08.2016 13:54 24,7 C 52 % 1019,2 hPa 0,0 l/m 4,8 km/h (1 Bft) W-SW 240 2 min 0,000 mm 6,0 UV-I 817 W/m 14,2 C 24,7 C 6,4 km/h (2 Bft) 92,86 %
08.08.2016 13:56 24,7 C 53 % 1019,2 hPa 0,0 l/m 3,8 km/h (1 Bft) S-SW 198 2 min 0,000 mm 6,0 UV-I 818 W/m 14,5 C 24,7 C 9,7 km/h (2 Bft) 100,00 %
08.08.2016 13:58 25,0 C 52 % 1019,2 hPa 0,0 l/m 2,9 km/h (1 Bft) W 265 2 min 0,000 mm 5,2 UV-I 822 W/m 14,4 C 25,0 C 6,4 km/h (2 Bft) 92,00 %
08.08.2016 14:00 25,1 C 51 % 1019,1 hPa 0,0 l/m 3,4 km/h (1 Bft) W-NW 286 2 min 0,533 mm 6,0 UV-I 820 W/m 14,2 C 25,1 C 8,0 km/h (2 Bft) 94,34 %
08.08.2016 14:02 25,2 C 48 % 1019,1 hPa 0,0 l/m 2,4 km/h (1 Bft) W-NW 300 2 min 0,000 mm 6,0 UV-I 820 W/m 13,4 C 25,2 C 4,8 km/h (1 Bft) 97,56 %
08.08.2016 14:04 25,3 C 51 % 1019,1 hPa 0,0 l/m 5,1 km/h (1 Bft) SW 232 2 min 0,000 mm 6,0 UV-I 819 W/m 14,4 C 25,3 C 11,3 km/h (2 Bft) 96,23 %
08.08.2016 14:06 25,3 C 51 % 1019,1 hPa 0,0 l/m 4,6 km/h (1 Bft) SW 236 2 min 0,000 mm 6,0 UV-I 820 W/m 14,4 C 25,3 C 8,0 km/h (2 Bft) 97,37 %
08.08.2016 14:08 25,4 C 52 % 1019,1 hPa 0,0 l/m 5,0 km/h (1 Bft) S 171 2 min 0,000 mm 6,0 UV-I 820 W/m 14,8 C 25,4 C 11,3 km/h (2 Bft) 98,00 %
08.08.2016 14:10 25,3 C 49 % 1019,0 hPa 0,0 l/m 5,3 km/h (1 Bft) S-SO 165 2 min 0,000 mm 6,0 UV-I 818 W/m 13,8 C 25,3 C 9,7 km/h (2 Bft) 98,11 %
08.08.2016 14:12 25,1 C 46 % 1019,0 hPa 0,0 l/m 3,1 km/h (1 Bft) S-SO 161 2 min 0,000 mm 5,9 UV-I 816 W/m 12,7 C 25,1 C 9,7 km/h (2 Bft) 97,22 %
08.08.2016 14:14 25,2 C 51 % 1019,0 hPa 0,0 l/m 4,8 km/h (1 Bft) S 186 2 min 0,000 mm 5,8 UV-I 810 W/m 14,3 C 25,2 C 11,3 km/h (2 Bft) 98,18 %
08.08.2016 14:16 25,3 C 47 % 1018,9 hPa 0,0 l/m 5,7 km/h (1 Bft) SO 128 2 min 0,000 mm 5,9 UV-I 811 W/m 13,2 C 25,3 C 11,3 km/h (2 Bft) 100,00 %
08.08.2016 14:18 25,3 C 47 % 1018,9 hPa 0,0 l/m 5,3 km/h (1 Bft) S 183 2 min 0,000 mm 5,8 UV-I 810 W/m 13,2 C 25,3 C 9,7 km/h (2 Bft) 100,00 %
08.08.2016 14:20 25,4 C 48 % 1018,9 hPa 0,0 l/m 6,1 km/h (2 Bft) SW 223 2 min 0,000 mm 5,8 UV-I 810 W/m 13,6 C 25,4 C 9,7 km/h (2 Bft) 97,87 %
08.08.2016 14:22 25,5 C 49 % 1018,9 hPa 0,0 l/m 5,2 km/h (1 Bft) S-SO 157 2 min 0,000 mm 5,8 UV-I 806 W/m 14,0 C 25,5 C 9,7 km/h (2 Bft) 100,00 %
08.08.2016 14:24 25,5 C 49 % 1018,8 hPa 0,0 l/m 9,0 km/h (2 Bft) SW 217 2 min 0,000 mm 5,2 UV-I 807 W/m 14,0 C 24,9 C 12,9 km/h (3 Bft) 100,00 %
08.08.2016 14:26 25,6 C 51 % 1018,9 hPa 0,0 l/m 7,1 km/h (2 Bft) W 281 2 min 0,000 mm 5,7 UV-I 801 W/m 14,7 C 25,4 C 11,3 km/h (2 Bft) 100,00 %
08.08.2016 14:28 25,7 C 50 % 1018,8 hPa 0,0 l/m 7,5 km/h (2 Bft) W-NW 294 2 min 0,000 mm 5,6 UV-I 796 W/m 14,5 C 25,4 C 14,5 km/h (3 Bft) 100,00 %
08.08.2016 14:30 25,7 C 51 % 1018,8 hPa 0,0 l/m 2,3 km/h (1 Bft) N 9 2 min 0,000 mm 5,7 UV-I 799 W/m 14,8 C 25,7 C 4,8 km/h (1 Bft) 100,00 %
08.08.2016 14:32 25,7 C 50 % 1018,9 hPa 0,0 l/m 2,5 km/h (1 Bft) N 349 2 min 0,000 mm 5,6 UV-I 795 W/m 14,5 C 25,7 C 4,8 km/h (1 Bft) 100,00 %
08.08.2016 14:34 25,7 C 48 % 1018,8 hPa 0,0 l/m 1,5 km/h (1 Bft) N-NW 339 2 min 0,000 mm 5,5 UV-I 791 W/m 13,9 C 25,7 C 3,2 km/h (1 Bft) 100,00 %
08.08.2016 14:36 25,7 C 50 % 1018,8 hPa 0,0 l/m 3,8 km/h (1 Bft) N-NO 13 2 min 0,000 mm 5,5 UV-I 789 W/m 14,5 C 25,7 C 8,0 km/h (2 Bft) 100,00 %
08.08.2016 14:38 25,9 C 50 % 1018,8 hPa 0,0 l/m 2,9 km/h (1 Bft) N-NO 32 2 min 0,000 mm 5,5 UV-I 788 W/m 14,7 C 25,9 C 6,4 km/h (2 Bft) 100,00 %
08.08.2016 14:40 25,8 C 51 % 1018,8 hPa 0,0 l/m 1,7 km/h (1 Bft) N-NO 32 2 min 0,000 mm 5,5 UV-I 788 W/m 14,9 C 25,8 C 4,8 km/h (1 Bft) 97,37 %
08.08.2016 14:42 25,8 C 47 % 1018,8 hPa 0,0 l/m 2,8 km/h (1 Bft) S 187 2 min 0,000 mm 5,4 UV-I 784 W/m 13,6 C 25,8 C 4,8 km/h (1 Bft) 98,00 %
08.08.2016 14:44 25,7 C 49 % 1018,7 hPa 0,0 l/m 5,2 km/h (1 Bft) W 268 2 min 0,000 mm 5,4 UV-I 783 W/m 14,2 C 25,7 C 9,7 km/h (2 Bft) 98,11 %
08.08.2016 14:46 25,8 C 48 % 1018,7 hPa 0,0 l/m 3,7 km/h (1 Bft) SW 227 2 min 0,000 mm 5,3 UV-I 782 W/m 13,9 C 25,8 C 9,7 km/h (2 Bft) 100,00 %
08.08.2016 14:48 25,8 C 49 % 1018,7 hPa 0,0 l/m 1,5 km/h (1 Bft) S 175 2 min 0,000 mm 5,3 UV-I 779 W/m 14,3 C 25,8 C 4,8 km/h (1 Bft) 97,87 %
08.08.2016 14:50 25,9 C 46 % 1018,6 hPa 0,0 l/m 4,8 km/h (1 Bft) S-SW 211 2 min 0,000 mm 5,2 UV-I 773 W/m 13,4 C 25,9 C 9,7 km/h (2 Bft) 100,00 %
08.08.2016 14:52 25,8 C 47 % 1018,6 hPa 0,0 l/m 4,0 km/h (1 Bft) S-SO 162 2 min 0,000 mm 5,2 UV-I 770 W/m 13,6 C 25,8 C 8,0 km/h (2 Bft) 100,00 %
08.08.2016 14:54 25,7 C 45 % 1018,6 hPa 0,0 l/m 3,9 km/h (1 Bft) SO 139 2 min 0,000 mm 5,1 UV-I 766 W/m 12,9 C 25,7 C 6,4 km/h (2 Bft) 100,00 %
08.08.2016 14:56 25,6 C 45 % 1018,5 hPa 0,0 l/m 3,8 km/h (1 Bft) O 98 2 min 0,000 mm 5,1 UV-I 768 W/m 12,8 C 25,6 C 6,4 km/h (2 Bft) 100,00 %
08.08.2016 14:58 25,7 C 49 % 1018,5 hPa 0,0 l/m 5,0 km/h (1 Bft) N-NO 17 2 min 0,000 mm 5,1 UV-I 761 W/m 14,2 C 25,7 C 8,0 km/h (2 Bft) 100,00 %
08.08.2016 15:00 26,0 C 46 % 1018,5 hPa 0,0 l/m 3,7 km/h (1 Bft) N 5 2 min 0,534 mm 5,0 UV-I 756 W/m 13,5 C 26,0 C 6,4 km/h (2 Bft) 100,00 %
08.08.2016 15:02 26,0 C 48 % 1018,6 hPa 0,0 l/m 3,1 km/h (1 Bft) N-NW 348 2 min 0,000 mm 5,0 UV-I 758 W/m 14,1 C 26,0 C 6,4 km/h (2 Bft) 98,00 %
08.08.2016 15:04 26,1 C 51 % 1018,5 hPa 0,0 l/m 0,9 km/h (0 Bft) N 355 2 min 0,000 mm 5,0 UV-I 754 W/m 15,2 C 26,1 C 3,2 km/h (1 Bft) 100,00 %
08.08.2016 15:06 26,3 C 52 % 1018,5 hPa 0,0 l/m 1,9 km/h (1 Bft) S 186 2 min 0,000 mm 4,9 UV-I 749 W/m 15,6 C 26,3 C 3,2 km/h (1 Bft) 100,00 %
08.08.2016 15:08 26,3 C 50 % 1018,5 hPa 0,0 l/m 1,9 km/h (1 Bft) O-NO 60 2 min 0,000 mm 4,9 UV-I 753 W/m 15,0 C 26,3 C 4,8 km/h (1 Bft) 100,00 %
08.08.2016 15:10 26,4 C 50 % 1018,5 hPa 0,0 l/m 4,0 km/h (1 Bft) NO 53 2 min 0,000 mm 4,9 UV-I 749 W/m 15,1 C 26,4 C 6,4 km/h (2 Bft) 100,00 %
08.08.2016 15:12 26,3 C 46 % 1018,5 hPa 0,0 l/m 2,1 km/h (1 Bft) O 83 2 min 0,000 mm 4,8 UV-I 744 W/m 13,7 C 26,3 C 3,2 km/h (1 Bft) 100,00 %
08.08.2016 15:14 26,3 C 54 % 1018,5 hPa 0,0 l/m 2,8 km/h (1 Bft) N-NO 25 2 min 0,000 mm 4,8 UV-I 743 W/m 16,2 C 26,3 C 4,8 km/h (1 Bft) 100,00 %
08.08.2016 15:16 26,4 C 48 % 1018,5 hPa 0,0 l/m 3,2 km/h (1 Bft) W 269 2 min 0,000 mm 4,7 UV-I 742 W/m 14,5 C 26,4 C 9,7 km/h (2 Bft) 100,00 %
08.08.2016 15:18 26,3 C 43 % 1018,4 hPa 0,0 l/m 8,5 km/h (2 Bft) S 173 2 min 0,000 mm 4,7 UV-I 740 W/m 12,7 C 25,9 C 12,9 km/h (3 Bft) 100,00 %
08.08.2016 15:20 26,2 C 43 % 1018,5 hPa 0,0 l/m 4,2 km/h (1 Bft) S 183 2 min 0,000 mm 3,7 UV-I 736 W/m 12,6 C 26,2 C 8,0 km/h (2 Bft) 100,00 %
08.08.2016 15:22 26,2 C 48 % 1018,4 hPa 0,0 l/m 3,4 km/h (1 Bft) W-SW 248 2 min 0,000 mm 4,6 UV-I 730 W/m 14,3 C 26,2 C 6,4 km/h (2 Bft) 100,00 %
08.08.2016 15:24 26,3 C 45 % 1018,4 hPa 0,0 l/m 4,6 km/h (1 Bft) W-NW 302 2 min 0,000 mm 4,5 UV-I 727 W/m 13,4 C 26,3 C 8,0 km/h (2 Bft) 97,87 %
08.08.2016 15:26 26,4 C 46 % 1018,3 hPa 0,0 l/m 2,5 km/h (1 Bft) W-NW 302 2 min 0,000 mm 4,5 UV-I 722 W/m 13,8 C 26,4 C 4,8 km/h (1 Bft) 100,00 %
08.08.2016 15:28 26,4 C 44 % 1018,3 hPa 0,0 l/m 5,7 km/h (1 Bft) SW 236 2 min 0,000 mm 4,0 UV-I 718 W/m 13,1 C 26,4 C 11,3 km/h (2 Bft) 100,00 %
08.08.2016 15:30 26,3 C 44 % 1018,3 hPa 0,0 l/m 5,2 km/h (1 Bft) SW 233 2 min 0,000 mm 4,4 UV-I 715 W/m 13,1 C 26,3 C 9,7 km/h (2 Bft) 100,00 %
08.08.2016 15:32 26,2 C 44 % 1018,2 hPa 0,0 l/m 7,8 km/h (2 Bft) SW 225 2 min 0,000 mm 4,3 UV-I 712 W/m 13,0 C 25,9 C 12,9 km/h (3 Bft) 97,92 %
08.08.2016 15:34 26,3 C 48 % 1018,3 hPa 0,0 l/m 7,8 km/h (2 Bft) SW 229 2 min 0,000 mm 4,3 UV-I 707 W/m 14,4 C 26,0 C 11,3 km/h (2 Bft) 100,00 %
08.08.2016 15:36 26,4 C 47 % 1018,3 hPa 0,0 l/m 5,8 km/h (2 Bft) W-SW 242 2 min 0,000 mm 4,2 UV-I 703 W/m 14,2 C 26,4 C 9,7 km/h (2 Bft) 100,00 %
08.08.2016 15:38 26,3 C 47 % 1018,2 hPa 0,0 l/m 3,8 km/h (1 Bft) W 267 2 min 0,000 mm 4,2 UV-I 701 W/m 14,1 C 26,3 C 4,8 km/h (1 Bft) 94,00 %
08.08.2016 15:40 26,4 C 44 % 1018,1 hPa 0,0 l/m 3,4 km/h (1 Bft) W-SW 257 2 min 0,000 mm 4,1 UV-I 696 W/m 13,1 C 26,4 C 8,0 km/h (2 Bft) 97,56 %
08.08.2016 15:42 26,4 C 47 % 1018,1 hPa 0,0 l/m 5,4 km/h (1 Bft) SW 218 2 min 0,000 mm 4,0 UV-I 690 W/m 14,2 C 26,4 C 11,3 km/h (2 Bft) 96,00 %
08.08.2016 15:44 26,3 C 47 % 1018,1 hPa 0,0 l/m 6,7 km/h (2 Bft) S 171 2 min 0,000 mm 4,0 UV-I 684 W/m 14,1 C 26,2 C 12,9 km/h (3 Bft) 96,00 %
08.08.2016 15:46 26,3 C 46 % 1018,1 hPa 0,0 l/m 4,8 km/h (1 Bft) SW 215 2 min 0,000 mm 3,9 UV-I 680 W/m 13,7 C 26,3 C 8,0 km/h (2 Bft) 98,00 %
08.08.2016 15:48 26,4 C 49 % 1018,0 hPa 0,0 l/m 5,8 km/h (2 Bft) S 182 2 min 0,000 mm 3,9 UV-I 679 W/m 14,8 C 26,4 C 9,7 km/h (2 Bft) 95,74 %
08.08.2016 15:50 26,4 C 46 % 1018,0 hPa 0,0 l/m 4,5 km/h (1 Bft) SW 229 2 min 0,000 mm 3,9 UV-I 676 W/m 13,8 C 26,4 C 8,0 km/h (2 Bft) 97,37 %
08.08.2016 15:52 26,5 C 47 % 1018,0 hPa 0,0 l/m 6,9 km/h (2 Bft) SW 229 2 min 0,000 mm 3,8 UV-I 670 W/m 14,3 C 26,4 C 12,9 km/h (3 Bft) 98,00 %
08.08.2016 15:54 26,6 C 48 % 1017,9 hPa 0,0 l/m 6,3 km/h (2 Bft) S-SW 196 2 min 0,000 mm 3,7 UV-I 665 W/m 14,7 C 26,6 C 11,3 km/h (2 Bft) 97,73 %
08.08.2016 15:56 26,6 C 47 % 1017,9 hPa 0,0 l/m 7,0 km/h (2 Bft) SW 215 2 min 0,000 mm 3,7 UV-I 661 W/m 14,3 C 26,5 C 9,7 km/h (2 Bft) 96,23 %
08.08.2016 15:58 26,5 C 46 % 1017,9 hPa 0,0 l/m 5,0 km/h (1 Bft) W-NW 303 2 min 0,000 mm 3,7 UV-I 657 W/m 13,9 C 26,5 C 8,0 km/h (2 Bft) 100,00 %
08.08.2016 16:00 26,6 C 47 % 1017,8 hPa 0,0 l/m 2,6 km/h (1 Bft) W-SW 250 2 min 0,000 mm 3,6 UV-I 653 W/m 14,3 C 26,6 C 8,0 km/h (2 Bft) 96,23 %
08.08.2016 16:02 26,7 C 49 % 1017,8 hPa 0,0 l/m 8,9 km/h (2 Bft) W-SW 240 2 min 0,482 mm 3,6 UV-I 651 W/m 15,1 C 26,2 C 12,9 km/h (3 Bft) 98,00 %
08.08.2016 16:04 26,7 C 47 % 1017,8 hPa 0,0 l/m 5,1 km/h (1 Bft) S-SW 194 2 min 0,000 mm 3,5 UV-I 645 W/m 14,4 C 26,7 C 6,4 km/h (2 Bft) 97,87 %
08.08.2016 16:06 26,7 C 45 % 1017,8 hPa 0,0 l/m 4,6 km/h (1 Bft) W-SW 250 2 min 0,000 mm 3,4 UV-I 635 W/m 13,8 C 26,7 C 11,3 km/h (2 Bft) 95,45 %
08.08.2016 16:08 26,7 C 48 % 1017,8 hPa 0,0 l/m 5,8 km/h (2 Bft) W 267 2 min 0,000 mm 2,8 UV-I 632 W/m 14,8 C 26,7 C 12,9 km/h (3 Bft) 97,62 %
08.08.2016 16:10 26,7 C 45 % 1017,8 hPa 0,0 l/m 5,6 km/h (1 Bft) W 273 2 min 0,000 mm 3,3 UV-I 630 W/m 13,8 C 26,7 C 12,9 km/h (3 Bft) 100,00 %
08.08.2016 16:12 26,7 C 49 % 1017,7 hPa 0,0 l/m 5,1 km/h (1 Bft) W 281 2 min 0,000 mm 3,2 UV-I 626 W/m 15,1 C 26,7 C 11,3 km/h (2 Bft) 100,00 %
08.08.2016 16:14 26,8 C 44 % 1017,7 hPa 0,0 l/m 1,9 km/h (1 Bft) W-NW 283 2 min 0,000 mm 3,2 UV-I 622 W/m 13,5 C 26,8 C 6,4 km/h (2 Bft) 100,00 %
08.08.2016 16:16 26,6 C 44 % 1017,7 hPa 0,0 l/m 0,9 km/h (0 Bft) SW 226 2 min 0,000 mm 3,2 UV-I 616 W/m 13,3 C 26,6 C 3,2 km/h (1 Bft) 100,00 %
08.08.2016 16:18 26,7 C 47 % 1017,6 hPa 0,0 l/m 5,9 km/h (2 Bft) S-SO 164 2 min 0,000 mm 3,1 UV-I 613 W/m 14,4 C 26,7 C 12,9 km/h (3 Bft) 100,00 %
08.08.2016 16:20 26,5 C 46 % 1017,7 hPa 0,0 l/m 3,8 km/h (1 Bft) O-SO 123 2 min 0,000 mm 3,1 UV-I 585 W/m 13,9 C 26,5 C 6,4 km/h (2 Bft) 100,00 %
08.08.2016 16:22 26,5 C 46 % 1017,6 hPa 0,0 l/m 3,3 km/h (1 Bft) O-SO 119 2 min 0,000 mm 3,0 UV-I 604 W/m 13,9 C 26,5 C 6,4 km/h (2 Bft) 100,00 %
08.08.2016 16:24 26,6 C 47 % 1017,6 hPa 0,0 l/m 2,9 km/h (1 Bft) SO 132 2 min 0,000 mm 3,0 UV-I 596 W/m 14,3 C 26,6 C 4,8 km/h (1 Bft) 97,87 %
08.08.2016 16:26 26,7 C 45 % 1017,6 hPa 0,0 l/m 4,3 km/h (1 Bft) O-SO 105 2 min 0,000 mm 2,9 UV-I 590 W/m 13,8 C 26,7 C 9,7 km/h (2 Bft) 100,00 %
08.08.2016 16:28 26,8 C 47 % 1017,6 hPa 0,0 l/m 2,7 km/h (1 Bft) W-NW 302 2 min 0,000 mm 2,9 UV-I 588 W/m 14,5 C 26,8 C 4,8 km/h (1 Bft) 100,00 %
08.08.2016 16:30 26,8 C 45 % 1017,6 hPa 0,0 l/m 1,5 km/h (1 Bft) W-NW 294 2 min 0,000 mm 2,9 UV-I 586 W/m 13,9 C 26,8 C 4,8 km/h (1 Bft) 100,00 %
08.08.2016 16:32 26,7 C 48 % 1017,6 hPa 0,0 l/m 1,2 km/h (1 Bft) W 267 2 min 0,000 mm 2,8 UV-I 576 W/m 14,8 C 26,7 C 3,2 km/h (1 Bft) 100,00 %
08.08.2016 16:34 26,6 C 49 % 1017,5 hPa 0,0 l/m 4,9 km/h (1 Bft) S-SW 213 2 min 0,000 mm 2,6 UV-I 571 W/m 15,0 C 26,6 C 11,3 km/h (2 Bft) 100,00 %
08.08.2016 16:36 26,5 C 46 % 1017,5 hPa 0,0 l/m 2,9 km/h (1 Bft) S-SO 151 2 min 0,000 mm 2,7 UV-I 566 W/m 13,9 C 26,5 C 6,4 km/h (2 Bft) 100,00 %
08.08.2016 16:38 26,5 C 47 % 1017,5 hPa 0,0 l/m 4,8 km/h (1 Bft) S 185 2 min 0,000 mm 2,6 UV-I 546 W/m 14,3 C 26,5 C 9,7 km/h (2 Bft) 100,00 %
08.08.2016 16:40 26,5 C 48 % 1017,5 hPa 0,0 l/m 2,1 km/h (1 Bft) S 186 2 min 0,000 mm 2,6 UV-I 557 W/m 14,6 C 26,5 C 4,8 km/h (1 Bft) 100,00 %
08.08.2016 16:42 26,6 C 44 % 1017,4 hPa 0,0 l/m 2,4 km/h (1 Bft) O-SO 109 2 min 0,000 mm 2,5 UV-I 552 W/m 13,3 C 26,6 C 6,4 km/h (2 Bft) 100,00 %
08.08.2016 16:44 26,6 C 46 % 1017,4 hPa 0,0 l/m 4,1 km/h (1 Bft) O 84 2 min 0,000 mm 2,5 UV-I 547 W/m 14,0 C 26,6 C 6,4 km/h (2 Bft) 96,00 %
08.08.2016 16:46 26,6 C 46 % 1017,4 hPa 0,0 l/m 3,4 km/h (1 Bft) O 90 2 min 0,000 mm 2,4 UV-I 542 W/m 14,0 C 26,6 C 4,8 km/h (1 Bft) 100,00 %
08.08.2016 16:48 26,6 C 46 % 1017,4 hPa 0,0 l/m 1,6 km/h (1 Bft) O-SO 119 2 min 0,000 mm 2,4 UV-I 538 W/m 14,0 C 26,6 C 3,2 km/h (1 Bft) 95,74 %
08.08.2016 16:50 26,7 C 46 % 1017,4 hPa 0,0 l/m 2,5 km/h (1 Bft) O-NO 60 2 min 0,000 mm 2,4 UV-I 531 W/m 14,1 C 26,7 C 4,8 km/h (1 Bft) 97,22 %
08.08.2016 16:52 26,8 C 47 % 1017,4 hPa 0,0 l/m 1,8 km/h (1 Bft) NO 54 2 min 0,000 mm 2,3 UV-I 527 W/m 14,5 C 26,8 C 4,8 km/h (1 Bft) 100,00 %
08.08.2016 16:54 26,8 C 45 % 1017,3 hPa 0,0 l/m 4,8 km/h (1 Bft) N 355 2 min 0,000 mm 2,2 UV-I 523 W/m 13,9 C 26,8 C 9,7 km/h (2 Bft) 100,00 %
08.08.2016 16:56 26,9 C 48 % 1017,3 hPa 0,0 l/m 2,9 km/h (1 Bft) N-NO 24 2 min 0,000 mm 2,2 UV-I 516 W/m 14,9 C 26,9 C 8,0 km/h (2 Bft) 97,37 %
08.08.2016 16:58 27,1 C 48 % 1017,3 hPa 0,0 l/m 2,0 km/h (1 Bft) W-NW 292 2 min 0,000 mm 2,2 UV-I 513 W/m 15,1 C 27,1 C 4,8 km/h (1 Bft) 100,00 %
08.08.2016 17:00 27,1 C 47 % 1017,3 hPa 0,0 l/m 2,0 km/h (1 Bft) W-NW 287 2 min 0,407 mm 2,1 UV-I 509 W/m 14,8 C 27,1 C 3,2 km/h (1 Bft) 98,00 %
08.08.2016 17:02 26,9 C 45 % 1017,2 hPa 0,0 l/m 3,8 km/h (1 Bft) SW 230 2 min 0,000 mm 2,1 UV-I 504 W/m 13,9 C 26,9 C 6,4 km/h (2 Bft) 100,00 %
08.08.2016 17:04 27,0 C 46 % 1017,2 hPa 0,0 l/m 2,0 km/h (1 Bft) W 279 2 min 0,000 mm 2,0 UV-I 499 W/m 14,4 C 27,0 C 4,8 km/h (1 Bft) 100,00 %
08.08.2016 17:06 26,9 C 46 % 1017,2 hPa 0,0 l/m 3,5 km/h (1 Bft) SW 214 2 min 0,000 mm 2,0 UV-I 495 W/m 14,3 C 26,9 C 11,3 km/h (2 Bft) 100,00 %
08.08.2016 17:08 26,9 C 46 % 1017,2 hPa 0,0 l/m 5,9 km/h (2 Bft) S-SW 200 2 min 0,000 mm 2,0 UV-I 491 W/m 14,3 C 26,9 C 9,7 km/h (2 Bft) 100,00 %
08.08.2016 17:10 26,9 C 46 % 1017,3 hPa 0,0 l/m 3,3 km/h (1 Bft) S-SO 158 2 min 0,000 mm 1,9 UV-I 484 W/m 14,3 C 26,9 C 8,0 km/h (2 Bft) 100,00 %
08.08.2016 17:12 26,8 C 48 % 1017,2 hPa 0,0 l/m 1,3 km/h (1 Bft) S-SW 200 2 min 0,000 mm 1,9 UV-I 477 W/m 14,9 C 26,8 C 3,2 km/h (1 Bft) 100,00 %
08.08.2016 17:14 26,8 C 46 % 1017,2 hPa 0,0 l/m 3,0 km/h (1 Bft) S 172 2 min 0,000 mm 1,8 UV-I 473 W/m 14,2 C 26,8 C 6,4 km/h (2 Bft) 98,00 %
08.08.2016 17:16 26,7 C 47 % 1017,2 hPa 0,0 l/m 4,5 km/h (1 Bft) S 188 2 min 0,000 mm 1,8 UV-I 466 W/m 14,4 C 26,7 C 9,7 km/h (2 Bft) 97,87 %
08.08.2016 17:18 26,7 C 46 % 1017,2 hPa 0,0 l/m 3,1 km/h (1 Bft) S-SO 166 2 min 0,000 mm 1,8 UV-I 459 W/m 14,1 C 26,7 C 6,4 km/h (2 Bft) 100,00 %
08.08.2016 17:20 26,8 C 48 % 1017,2 hPa 0,0 l/m 3,9 km/h (1 Bft) W-SW 245 2 min 0,000 mm 1,7 UV-I 453 W/m 14,9 C 26,8 C 6,4 km/h (2 Bft) 100,00 %
08.08.2016 17:22 26,9 C 47 % 1017,1 hPa 0,0 l/m 5,4 km/h (1 Bft) W 262 2 min 0,000 mm 1,7 UV-I 448 W/m 14,6 C 26,9 C 8,0 km/h (2 Bft) 100,00 %
08.08.2016 17:24 26,9 C 47 % 1017,1 hPa 0,0 l/m 2,1 km/h (1 Bft) W 273 2 min 0,000 mm 1,6 UV-I 440 W/m 14,6 C 26,9 C 3,2 km/h (1 Bft) 98,11 %
08.08.2016 17:26 26,8 C 46 % 1017,1 hPa 0,0 l/m 0,8 km/h (0 Bft) SW 223 2 min 0,000 mm 1,6 UV-I 435 W/m 14,2 C 26,8 C 1,6 km/h (1 Bft) 98,00 %
08.08.2016 17:28 26,8 C 48 % 1017,0 hPa 0,0 l/m 0,2 km/h (0 Bft) SW 223 2 min 0,000 mm 1,5 UV-I 430 W/m 14,9 C 26,8 C 1,6 km/h (1 Bft) 100,00 %
08.08.2016 17:30 26,9 C 47 % 1017,0 hPa 0,0 l/m 2,7 km/h (1 Bft) N 355 2 min 0,000 mm 1,5 UV-I 423 W/m 14,6 C 26,9 C 6,4 km/h (2 Bft) 97,62 %
08.08.2016 17:32 27,1 C 48 % 1017,0 hPa 0,0 l/m 1,3 km/h (1 Bft) N-NO 13 2 min 0,000 mm 1,4 UV-I 413 W/m 15,1 C 27,1 C 3,2 km/h (1 Bft) 96,36 %
08.08.2016 17:34 27,1 C 48 % 1017,0 hPa 0,0 l/m 2,1 km/h (1 Bft) N 9 2 min 0,000 mm 1,4 UV-I 406 W/m 15,1 C 27,1 C 3,2 km/h (1 Bft) 97,92 %
08.08.2016 17:36 27,0 C 48 % 1017,0 hPa 0,0 l/m 3,0 km/h (1 Bft) N 355 2 min 0,000 mm 1,4 UV-I 402 W/m 15,0 C 27,0 C 8,0 km/h (2 Bft) 97,87 %
08.08.2016 17:38 26,9 C 47 % 1017,0 hPa 0,0 l/m 4,7 km/h (1 Bft) N 5 2 min 0,000 mm 1,3 UV-I 394 W/m 14,6 C 26,9 C 9,7 km/h (2 Bft) 97,37 %
08.08.2016 17:40 26,9 C 46 % 1016,9 hPa 0,0 l/m 1,3 km/h (1 Bft) N-NO 12 2 min 0,000 mm 1,3 UV-I 389 W/m 14,3 C 26,9 C 3,2 km/h (1 Bft) 95,74 %
08.08.2016 17:42 26,8 C 47 % 1016,9 hPa 0,0 l/m 4,9 km/h (1 Bft) NO 48 2 min 0,000 mm 1,3 UV-I 384 W/m 14,5 C 26,8 C 9,7 km/h (2 Bft) 95,74 %
08.08.2016 17:44 26,9 C 48 % 1016,8 hPa 0,0 l/m 7,0 km/h (2 Bft) O-NO 63 2 min 0,000 mm 1,2 UV-I 378 W/m 14,9 C 26,8 C 9,7 km/h (2 Bft) 97,87 %
08.08.2016 17:46 26,9 C 47 % 1016,8 hPa 0,0 l/m 3,7 km/h (1 Bft) O-NO 66 2 min 0,000 mm 1,2 UV-I 369 W/m 14,6 C 26,9 C 8,0 km/h (2 Bft) 98,00 %
08.08.2016 17:48 26,8 C 46 % 1016,8 hPa 0,0 l/m 1,4 km/h (1 Bft) O-NO 67 2 min 0,000 mm 1,2 UV-I 361 W/m 14,2 C 26,8 C 3,2 km/h (1 Bft) 97,87 %
08.08.2016 17:50 26,7 C 47 % 1016,8 hPa 0,0 l/m 0,1 km/h (0 Bft) O-NO 67 2 min 0,000 mm 1,1 UV-I 359 W/m 14,4 C 26,7 C 1,6 km/h (1 Bft) 98,00 %
08.08.2016 17:52 26,8 C 48 % 1016,8 hPa 0,0 l/m 1,1 km/h (1 Bft) SO 125 2 min 0,000 mm 1,1 UV-I 355 W/m 14,9 C 26,8 C 3,2 km/h (1 Bft) 95,12 %
08.08.2016 17:54 26,7 C 47 % 1016,8 hPa 0,0 l/m 2,2 km/h (1 Bft) S-SO 161 2 min 0,000 mm 1,1 UV-I 349 W/m 14,4 C 26,7 C 6,4 km/h (2 Bft) 95,74 %
08.08.2016 17:56 26,7 C 48 % 1016,8 hPa 0,0 l/m 1,2 km/h (1 Bft) S-SW 203 2 min 0,000 mm 1,0 UV-I 340 W/m 14,8 C 26,7 C 3,2 km/h (1 Bft) 95,74 %
08.08.2016 17:58 26,8 C 49 % 1016,8 hPa 0,0 l/m 3,8 km/h (1 Bft) W 268 2 min 0,000 mm 1,0 UV-I 332 W/m 15,2 C 26,8 C 6,4 km/h (2 Bft) 98,00 %
08.08.2016 18:00 26,8 C 51 % 1016,7 hPa 0,0 l/m 1,3 km/h (1 Bft) N-NW 342 2 min 0,000 mm 0,9 UV-I 325 W/m 15,8 C 26,8 C 4,8 km/h (1 Bft) 97,87 %
08.08.2016 18:02 26,8 C 49 % 1016,8 hPa 0,0 l/m 2,9 km/h (1 Bft) N-NW 339 2 min 0,305 mm 0,9 UV-I 321 W/m 15,2 C 26,8 C 6,4 km/h (2 Bft) 98,00 %
08.08.2016 18:04 26,7 C 49 % 1016,8 hPa 0,0 l/m 1,5 km/h (1 Bft) N-NW 347 2 min 0,000 mm 0,9 UV-I 316 W/m 15,1 C 26,7 C 3,2 km/h (1 Bft) 95,12 %
08.08.2016 18:06 26,7 C 50 % 1016,7 hPa 0,0 l/m 1,1 km/h (1 Bft) NW 323 2 min 0,000 mm 0,9 UV-I 314 W/m 15,4 C 26,7 C 3,2 km/h (1 Bft) 100,00 %
08.08.2016 18:08 26,7 C 49 % 1016,7 hPa 0,0 l/m 1,4 km/h (1 Bft) NW 323 2 min 0,000 mm 0,8 UV-I 309 W/m 15,1 C 26,7 C 3,2 km/h (1 Bft) 100,00 %
08.08.2016 18:10 26,7 C 51 % 1016,7 hPa 0,0 l/m 0,7 km/h (0 Bft) N-NW 348 2 min 0,000 mm 0,8 UV-I 306 W/m 15,7 C 26,7 C 4,8 km/h (1 Bft) 100,00 %
08.08.2016 18:12 26,8 C 49 % 1016,7 hPa 0,0 l/m 2,5 km/h (1 Bft) N-NO 13 2 min 0,000 mm 0,8 UV-I 299 W/m 15,2 C 26,8 C 4,8 km/h (1 Bft) 100,00 %
08.08.2016 18:14 26,8 C 50 % 1016,7 hPa 0,0 l/m 1,8 km/h (1 Bft) N-NW 344 2 min 0,000 mm 0,8 UV-I 293 W/m 15,5 C 26,8 C 3,2 km/h (1 Bft) 100,00 %
08.08.2016 18:16 26,7 C 49 % 1016,6 hPa 0,0 l/m 1,5 km/h (1 Bft) N 11 2 min 0,000 mm 0,7 UV-I 287 W/m 15,1 C 26,7 C 3,2 km/h (1 Bft) 100,00 %
08.08.2016 18:18 26,7 C 49 % 1016,6 hPa 0,0 l/m 4,7 km/h (1 Bft) N-NO 27 2 min 0,000 mm 0,7 UV-I 280 W/m 15,1 C 26,7 C 6,4 km/h (2 Bft) 97,37 %
08.08.2016 18:20 26,6 C 50 % 1016,6 hPa 0,0 l/m 5,1 km/h (1 Bft) N-NO 22 2 min 0,000 mm 0,7 UV-I 276 W/m 15,3 C 26,6 C 8,0 km/h (2 Bft) 98,11 %
08.08.2016 18:22 26,6 C 50 % 1016,6 hPa 0,0 l/m 3,5 km/h (1 Bft) N 11 2 min 0,000 mm 0,7 UV-I 271 W/m 15,3 C 26,6 C 6,4 km/h (2 Bft) 100,00 %
08.08.2016 18:24 26,6 C 49 % 1016,6 hPa 0,0 l/m 2,7 km/h (1 Bft) N 11 2 min 0,000 mm 0,6 UV-I 266 W/m 15,0 C 26,6 C 4,8 km/h (1 Bft) 100,00 %
08.08.2016 18:26 26,6 C 49 % 1016,6 hPa 0,0 l/m 1,6 km/h (1 Bft) N 11 2 min 0,000 mm 0,6 UV-I 260 W/m 15,0 C 26,6 C 3,2 km/h (1 Bft) 98,00 %
08.08.2016 18:28 26,6 C 49 % 1016,5 hPa 0,0 l/m 2,3 km/h (1 Bft) N-NO 19 2 min 0,000 mm 0,6 UV-I 253 W/m 15,0 C 26,6 C 4,8 km/h (1 Bft) 100,00 %
08.08.2016 18:30 26,6 C 48 % 1016,5 hPa 0,0 l/m 1,8 km/h (1 Bft) N-NO 19 2 min 0,000 mm 0,6 UV-I 248 W/m 14,7 C 26,6 C 4,8 km/h (1 Bft) 98,11 %
08.08.2016 18:32 26,6 C 50 % 1016,5 hPa 0,0 l/m 1,9 km/h (1 Bft) N-NO 19 2 min 0,000 mm 0,5 UV-I 240 W/m 15,3 C 26,6 C 3,2 km/h (1 Bft) 97,37 %
08.08.2016 18:34 26,6 C 51 % 1016,5 hPa 0,0 l/m 1,4 km/h (1 Bft) N-NO 17 2 min 0,000 mm 0,5 UV-I 233 W/m 15,6 C 26,6 C 3,2 km/h (1 Bft) 100,00 %
08.08.2016 18:36 26,7 C 51 % 1016,5 hPa 0,0 l/m 2,7 km/h (1 Bft) N 351 2 min 0,000 mm 0,5 UV-I 227 W/m 15,7 C 26,7 C 4,8 km/h (1 Bft) 100,00 %
08.08.2016 18:38 26,7 C 51 % 1016,3 hPa 0,0 l/m 1,1 km/h (1 Bft) N-NW 346 2 min 0,000 mm 0,5 UV-I 222 W/m 15,7 C 26,7 C 3,2 km/h (1 Bft) 100,00 %
08.08.2016 18:40 26,7 C 50 % 1016,4 hPa 0,0 l/m 2,0 km/h (1 Bft) N 355 2 min 0,000 mm 0,5 UV-I 217 W/m 15,4 C 26,7 C 4,8 km/h (1 Bft) 100,00 %
08.08.2016 18:42 26,6 C 50 % 1016,4 hPa 0,0 l/m 1,9 km/h (1 Bft) N 355 2 min 0,000 mm 0,0 UV-I 212 W/m 15,3 C 26,6 C 3,2 km/h (1 Bft) 100,00 %
08.08.2016 18:44 26,6 C 51 % 1016,4 hPa 0,0 l/m 3,2 km/h (1 Bft) N-NO 20 2 min 0,000 mm 0,0 UV-I 206 W/m 15,6 C 26,6 C 4,8 km/h (1 Bft) 100,00 %
08.08.2016 18:46 26,6 C 51 % 1016,4 hPa 0,0 l/m 3,8 km/h (1 Bft) N-NO 21 2 min 0,000 mm 0,0 UV-I 200 W/m 15,6 C 26,6 C 6,4 km/h (2 Bft) 100,00 %
08.08.2016 18:48 26,6 C 51 % 1016,3 hPa 0,0 l/m 4,3 km/h (1 Bft) N-NO 19 2 min 0,000 mm 0,0 UV-I 193 W/m 15,6 C 26,6 C 6,4 km/h (2 Bft) 97,87 %
08.08.2016 18:50 26,5 C 52 % 1016,4 hPa 0,0 l/m 3,5 km/h (1 Bft) N-NO 21 2 min 0,000 mm 0,0 UV-I 187 W/m 15,8 C 26,5 C 6,4 km/h (2 Bft) 100,00 %
08.08.2016 18:52 26,6 C 51 % 1016,3 hPa 0,0 l/m 3,9 km/h (1 Bft) N-NO 21 2 min 0,000 mm 0,0 UV-I 179 W/m 15,6 C 26,6 C 6,4 km/h (2 Bft) 100,00 %
08.08.2016 18:54 26,5 C 51 % 1016,3 hPa 0,0 l/m 3,4 km/h (1 Bft) N-NO 21 2 min 0,000 mm 0,0 UV-I 173 W/m 15,5 C 26,5 C 6,4 km/h (2 Bft) 100,00 %
08.08.2016 18:56 26,4 C 51 % 1016,3 hPa 0,0 l/m 1,7 km/h (1 Bft) N-NO 21 2 min 0,000 mm 0,0 UV-I 167 W/m 15,4 C 26,4 C 4,8 km/h (1 Bft) 100,00 %
08.08.2016 18:58 26,4 C 51 % 1016,3 hPa 0,0 l/m 0,5 km/h (0 Bft) N-NO 21 2 min 0,000 mm 0,0 UV-I 159 W/m 15,4 C 26,4 C 1,6 km/h (1 Bft) 100,00 %
08.08.2016 19:00 26,4 C 52 % 1016,3 hPa 0,0 l/m 2,4 km/h (1 Bft) N-NO 21 2 min 0,000 mm 0,0 UV-I 154 W/m 15,7 C 26,4 C 4,8 km/h (1 Bft) 100,00 %
08.08.2016 19:02 26,4 C 51 % 1016,3 hPa 0,0 l/m 1,7 km/h (1 Bft) N-NO 21 2 min 0,177 mm 0,0 UV-I 148 W/m 15,4 C 26,4 C 3,2 km/h (1 Bft) 100,00 %
08.08.2016 19:04 26,4 C 51 % 1016,3 hPa 0,0 l/m 2,3 km/h (1 Bft) N-NO 21 2 min 0,000 mm 0,0 UV-I 142 W/m 15,4 C 26,4 C 4,8 km/h (1 Bft) 100,00 %
08.08.2016 19:06 26,3 C 53 % 1016,3 hPa 0,0 l/m 1,9 km/h (1 Bft) N-NO 17 2 min 0,000 mm 0,0 UV-I 135 W/m 15,9 C 26,3 C 6,4 km/h (2 Bft) 100,00 %
08.08.2016 19:08 26,3 C 52 % 1016,3 hPa 0,0 l/m 3,4 km/h (1 Bft) N-NO 18 2 min 0,000 mm 0,0 UV-I 129 W/m 15,6 C 26,3 C 6,4 km/h (2 Bft) 100,00 %
08.08.2016 19:10 26,2 C 52 % 1016,3 hPa 0,0 l/m 3,9 km/h (1 Bft) N-NO 19 2 min 0,000 mm 0,0 UV-I 122 W/m 15,6 C 26,2 C 6,4 km/h (2 Bft) 97,37 %
08.08.2016 19:12 26,1 C 54 % 1016,3 hPa 0,0 l/m 0,8 km/h (0 Bft) N-NO 19 2 min 0,000 mm 0,0 UV-I 116 W/m 16,0 C 26,1 C 3,2 km/h (1 Bft) 100,00 %
08.08.2016 19:14 26,1 C 54 % 1016,3 hPa 0,0 l/m 1,7 km/h (1 Bft) N-NO 19 2 min 0,000 mm 0,0 UV-I 111 W/m 16,0 C 26,1 C 3,2 km/h (1 Bft) 100,00 %
08.08.2016 19:16 26,1 C 54 % 1016,3 hPa 0,0 l/m 0,3 km/h (0 Bft) N-NO 19 2 min 0,000 mm 0,0 UV-I 107 W/m 16,0 C 26,1 C 1,6 km/h (1 Bft) 98,00 %
08.08.2016 19:18 26,1 C 53 % 1016,3 hPa 0,0 l/m 0,7 km/h (0 Bft) N-NO 19 2 min 0,000 mm 0,0 UV-I 102 W/m 15,8 C 26,1 C 1,6 km/h (1 Bft) 95,74 %
08.08.2016 19:20 26,0 C 54 % 1016,3 hPa 0,0 l/m 0,2 km/h (0 Bft) N 11 2 min 0,000 mm 0,0 UV-I 96 W/m 16,0 C 26,0 C 1,6 km/h (1 Bft) 95,00 %
08.08.2016 19:22 25,9 C 54 % 1016,3 hPa 0,0 l/m 0,1 km/h (0 Bft) N 11 2 min 0,000 mm 0,0 UV-I 91 W/m 15,9 C 25,9 C 1,6 km/h (1 Bft) 98,00 %
08.08.2016 19:24 25,8 C 55 % 1016,3 hPa 0,0 l/m 0,1 km/h (0 Bft) N 11 0 min 0,000 mm 0,0 UV-I 86 W/m 16,1 C 25,8 C 1,6 km/h (1 Bft) 94,34 %
08.08.2016 19:26 25,8 C 54 % 1016,3 hPa 0,0 l/m 0,9 km/h (0 Bft) N 11 0 min 0,000 mm 0,0 UV-I 82 W/m 15,8 C 25,8 C 3,2 km/h (1 Bft) 97,44 %
08.08.2016 19:28 25,9 C 53 % 1016,3 hPa 0,0 l/m 0,3 km/h (0 Bft) N 11 0 min 0,000 mm 0,0 UV-I 76 W/m 15,6 C 25,9 C 1,6 km/h (1 Bft) 95,92 %
08.08.2016 19:30 25,9 C 53 % 1016,3 hPa 0,0 l/m 0,2 km/h (0 Bft) N 11 0 min 0,000 mm 0,0 UV-I 72 W/m 15,6 C 25,9 C 1,6 km/h (1 Bft) 98,00 %
08.08.2016 19:32 25,9 C 53 % 1016,3 hPa 0,0 l/m 0,2 km/h (0 Bft) N 11 0 min 0,000 mm 0,0 UV-I 67 W/m 15,6 C 25,9 C 1,6 km/h (1 Bft) 97,56 %
08.08.2016 19:34 25,9 C 54 % 1016,4 hPa 0,0 l/m 0,0 km/h (0 Bft) N 11 0 min 0,000 mm 0,0 UV-I 62 W/m 15,9 C 25,9 C 1,6 km/h (1 Bft) 97,87 %
08.08.2016 19:36 25,8 C 54 % 1016,4 hPa 0,0 l/m 0,1 km/h (0 Bft) N 11 0 min 0,000 mm 0,0 UV-I 58 W/m 15,8 C 25,8 C 1,6 km/h (1 Bft) 98,11 %
08.08.2016 19:38 25,8 C 54 % 1016,3 hPa 0,0 l/m 0,0 km/h (0 Bft) N 11 0 min 0,000 mm 0,0 UV-I 53 W/m 15,8 C 25,8 C 0,0 km/h (0 Bft) 98,00 %
08.08.2016 19:40 25,7 C 55 % 1016,3 hPa 0,0 l/m 0,3 km/h (0 Bft) N 11 0 min 0,000 mm 0,0 UV-I 49 W/m 16,0 C 25,7 C 1,6 km/h (1 Bft) 95,74 %
08.08.2016 19:42 25,7 C 55 % 1016,3 hPa 0,0 l/m 0,2 km/h (0 Bft) N 11 0 min 0,000 mm 0,0 UV-I 47 W/m 16,0 C 25,7 C 1,6 km/h (1 Bft) 95,74 %
08.08.2016 19:44 25,6 C 55 % 1016,3 hPa 0,0 l/m 0,0 km/h (0 Bft) N 11 0 min 0,000 mm 0,0 UV-I 43 W/m 15,9 C 25,6 C 0,0 km/h (0 Bft) 97,37 %
08.08.2016 19:46 25,4 C 56 % 1016,3 hPa 0,0 l/m 0,2 km/h (0 Bft) N 11 0 min 0,000 mm 0,0 UV-I 39 W/m 16,0 C 25,4 C 1,6 km/h (1 Bft) 96,23 %
08.08.2016 19:48 25,4 C 56 % 1016,3 hPa 0,0 l/m 0,8 km/h (0 Bft) N 11 0 min 0,000 mm 0,0 UV-I 37 W/m 16,0 C 25,4 C 1,6 km/h (1 Bft) 100,00 %
08.08.2016 19:50 25,3 C 57 % 1016,3 hPa 0,0 l/m 0,3 km/h (0 Bft) N 11 0 min 0,000 mm 0,0 UV-I 33 W/m 16,2 C 25,3 C 1,6 km/h (1 Bft) 100,00 %
08.08.2016 19:52 25,2 C 57 % 1016,3 hPa 0,0 l/m 0,0 km/h (0 Bft) N 11 0 min 0,000 mm 0,0 UV-I 31 W/m 16,1 C 25,2 C 0,0 km/h (0 Bft) 98,00 %
08.08.2016 19:54 25,0 C 57 % 1016,3 hPa 0,0 l/m 0,3 km/h (0 Bft) N 11 0 min 0,000 mm 0,0 UV-I 26 W/m 15,9 C 25,0 C 1,6 km/h (1 Bft) 100,00 %
08.08.2016 19:56 24,8 C 59 % 1016,3 hPa 0,0 l/m 0,5 km/h (0 Bft) N 11 0 min 0,000 mm 0,0 UV-I 24 W/m 16,2 C 24,8 C 1,6 km/h (1 Bft) 100,00 %
08.08.2016 19:58 24,7 C 58 % 1016,3 hPa 0,0 l/m 0,1 km/h (0 Bft) N 11 0 min 0,000 mm 0,0 UV-I 20 W/m 15,9 C 24,7 C 1,6 km/h (1 Bft) 100,00 %
08.08.2016 20:00 24,6 C 60 % 1016,3 hPa 0,0 l/m 0,4 km/h (0 Bft) N 11 0 min 0,051 mm 0,0 UV-I 19 W/m 16,3 C 24,6 C 1,6 km/h (1 Bft) 100,00 %
08.08.2016 20:02 24,4 C 64 % 1016,3 hPa 0,0 l/m 0,8 km/h (0 Bft) N 11 0 min 0,000 mm 0,0 UV-I 18 W/m 17,1 C 24,4 C 1,6 km/h (1 Bft) 100,00 %
08.08.2016 20:04 24,0 C 67 % 1016,4 hPa 0,0 l/m 1,5 km/h (1 Bft) N 11 0 min 0,000 mm 0,0 UV-I 17 W/m 17,5 C 24,0 C 3,2 km/h (1 Bft) 96,36 %
08.08.2016 20:06 23,6 C 68 % 1016,3 hPa 0,0 l/m 1,4 km/h (1 Bft) N 11 0 min 0,000 mm 0,0 UV-I 16 W/m 17,3 C 23,6 C 3,2 km/h (1 Bft) 97,87 %
08.08.2016 20:08 23,3 C 69 % 1016,4 hPa 0,0 l/m 1,8 km/h (1 Bft) N 11 0 min 0,000 mm 0,0 UV-I 15 W/m 17,3 C 23,3 C 3,2 km/h (1 Bft) 100,00 %
08.08.2016 20:10 23,2 C 67 % 1016,4 hPa 0,0 l/m 0,8 km/h (0 Bft) N 11 0 min 0,000 mm 0,0 UV-I 14 W/m 16,7 C 23,2 C 1,6 km/h (1 Bft) 100,00 %
08.08.2016 20:12 23,1 C 66 % 1016,4 hPa 0,0 l/m 0,0 km/h (0 Bft) N 11 0 min 0,000 mm 0,0 UV-I 13 W/m 16,4 C 23,1 C 0,0 km/h (0 Bft) 100,00 %
08.08.2016 20:14 23,1 C 66 % 1016,4 hPa 0,0 l/m 0,0 km/h (0 Bft) N 11 0 min 0,000 mm 0,0 UV-I 12 W/m 16,4 C 23,1 C 1,6 km/h (1 Bft) 100,00 %
08.08.2016 20:16 23,1 C 66 % 1016,4 hPa 0,0 l/m 1,8 km/h (1 Bft) N 11 2 min 0,000 mm 0,0 UV-I 11 W/m 16,4 C 23,1 C 3,2 km/h (1 Bft) 100,00 %
08.08.2016 20:18 23,1 C 69 % 1016,3 hPa 0,0 l/m 1,5 km/h (1 Bft) N 11 0 min 0,000 mm 0,0 UV-I 11 W/m 17,1 C 23,1 C 3,2 km/h (1 Bft) 100,00 %
08.08.2016 20:20 22,8 C 71 % 1016,3 hPa 0,0 l/m 0,3 km/h (0 Bft) N 11 0 min 0,000 mm 0,0 UV-I 9 W/m 17,3 C 22,8 C 1,6 km/h (1 Bft) 100,00 %
08.08.2016 20:22 22,6 C 71 % 1016,3 hPa 0,0 l/m 1,1 km/h (1 Bft) N 11 0 min 0,000 mm 0,0 UV-I 9 W/m 17,1 C 22,6 C 1,6 km/h (1 Bft) 100,00 %
08.08.2016 20:24 22,4 C 73 % 1016,3 hPa 0,0 l/m 1,1 km/h (1 Bft) N 11 0 min 0,000 mm 0,0 UV-I 7 W/m 17,3 C 22,4 C 1,6 km/h (1 Bft) 96,43 %
08.08.2016 20:26 22,2 C 73 % 1016,3 hPa 0,0 l/m 1,4 km/h (1 Bft) N 11 0 min 0,000 mm 0,0 UV-I 6 W/m 17,1 C 22,2 C 1,6 km/h (1 Bft) 100,00 %
08.08.2016 20:28 21,9 C 73 % 1016,3 hPa 0,0 l/m 0,6 km/h (0 Bft) N 11 0 min 0,000 mm 0,0 UV-I 5 W/m 16,8 C 21,9 C 3,2 km/h (1 Bft) 100,00 %
08.08.2016 20:30 21,7 C 73 % 1016,3 hPa 0,0 l/m 0,0 km/h (0 Bft) N 11 0 min 0,000 mm 0,0 UV-I 5 W/m 16,6 C 21,7 C 0,0 km/h (0 Bft) 100,00 %
08.08.2016 20:32 21,6 C 73 % 1016,3 hPa 0,0 l/m 0,0 km/h (0 Bft) N 11 0 min 0,000 mm 0,0 UV-I 0 W/m 16,5 C 21,6 C 0,0 km/h (0 Bft) 100,00 %
08.08.2016 20:34 21,5 C 74 % 1016,4 hPa 0,0 l/m 0,0 km/h (0 Bft) N 11 0 min 0,000 mm 0,0 UV-I 0 W/m 16,7 C 21,5 C 0,0 km/h (0 Bft) 95,74 %
08.08.2016 20:36 21,4 C 74 % 1016,4 hPa 0,0 l/m 0,0 km/h (0 Bft) N 11 0 min 0,000 mm 0,0 UV-I 0 W/m 16,6 C 21,4 C 0,0 km/h (0 Bft) 98,11 %
08.08.2016 20:38 21,4 C 74 % 1016,4 hPa 0,0 l/m 0,3 km/h (0 Bft) N 11 0 min 0,000 mm 0,0 UV-I 0 W/m 16,6 C 21,4 C 1,6 km/h (1 Bft) 100,00 %
08.08.2016 20:40 21,3 C 75 % 1016,4 hPa 0,0 l/m 2,3 km/h (1 Bft) N 11 0 min 0,000 mm 0,0 UV-I 0 W/m 16,7 C 21,3 C 3,2 km/h (1 Bft) 100,00 %
08.08.2016 20:42 21,1 C 76 % 1016,4 hPa 0,0 l/m 3,4 km/h (1 Bft) N 11 0 min 0,000 mm 0,0 UV-I 0 W/m 16,7 C 21,1 C 4,8 km/h (1 Bft) 98,00 %
08.08.2016 20:44 20,9 C 76 % 1016,4 hPa 0,0 l/m 3,1 km/h (1 Bft) N 11 0 min 0,000 mm 0,0 UV-I 0 W/m 16,5 C 20,9 C 3,2 km/h (1 Bft) 100,00 %
08.08.2016 20:46 20,7 C 78 % 1016,4 hPa 0,0 l/m 2,9 km/h (1 Bft) N 11 0 min 0,000 mm 0,0 UV-I 0 W/m 16,7 C 20,7 C 3,2 km/h (1 Bft) 97,92 %
08.08.2016 20:48 20,6 C 78 % 1016,5 hPa 0,0 l/m 2,0 km/h (1 Bft) N 11 0 min 0,000 mm 0,0 UV-I 0 W/m 16,6 C 20,6 C 3,2 km/h (1 Bft) 100,00 %
08.08.2016 20:50 20,5 C 78 % 1016,5 hPa 0,0 l/m 1,9 km/h (1 Bft) N 11 0 min 0,000 mm 0,0 UV-I 0 W/m 16,5 C 20,5 C 3,2 km/h (1 Bft) 100,00 %
08.08.2016 20:52 20,4 C 78 % 1016,5 hPa 0,0 l/m 1,7 km/h (1 Bft) N 11 0 min 0,000 mm 0,0 UV-I 0 W/m 16,4 C 20,4 C 3,2 km/h (1 Bft) 96,23 %
08.08.2016 20:54 20,3 C 79 % 1016,5 hPa 0,0 l/m 2,3 km/h (1 Bft) N 11 0 min 0,000 mm 0,0 UV-I 0 W/m 16,5 C 20,3 C 3,2 km/h (1 Bft) 100,00 %
08.08.2016 20:56 20,2 C 79 % 1016,5 hPa 0,0 l/m 2,5 km/h (1 Bft) N 11 0 min 0,000 mm 0,0 UV-I 0 W/m 16,4 C 20,2 C 3,2 km/h (1 Bft) 100,00 %
08.08.2016 20:58 20,1 C 79 % 1016,5 hPa 0,0 l/m 1,7 km/h (1 Bft) N 11 0 min 0,000 mm 0,0 UV-I 0 W/m 16,3 C 20,1 C 3,2 km/h (1 Bft) 100,00 %
08.08.2016 21:00 20,0 C 79 % 1016,5 hPa 0,0 l/m 0,3 km/h (0 Bft) N 11 0 min 0,000 mm 0,0 UV-I 0 W/m 16,2 C 20,0 C 1,6 km/h (1 Bft) 100,00 %
08.08.2016 21:02 19,9 C 79 % 1016,6 hPa 0,0 l/m 0,0 km/h (0 Bft) N 11 0 min 0,026 mm 0,0 UV-I 0 W/m 16,1 C 19,9 C 0,0 km/h (0 Bft) 97,87 %
08.08.2016 21:04 20,0 C 79 % 1016,6 hPa 0,0 l/m 0,0 km/h (0 Bft) N 11 0 min 0,000 mm 0,0 UV-I 0 W/m 16,2 C 20,0 C 0,0 km/h (0 Bft) 98,11 %
08.08.2016 21:06 20,1 C 78 % 1016,6 hPa 0,0 l/m 0,0 km/h (0 Bft) N 11 0 min 0,000 mm 0,0 UV-I 0 W/m 16,1 C 20,1 C 0,0 km/h (0 Bft) 100,00 %
08.08.2016 21:08 20,1 C 78 % 1016,6 hPa 0,0 l/m 0,0 km/h (0 Bft) N 11 0 min 0,000 mm 0,0 UV-I 0 W/m 16,1 C 20,1 C 0,0 km/h (0 Bft) 100,00 %
08.08.2016 21:10 20,2 C 78 % 1016,6 hPa 0,0 l/m 0,1 km/h (0 Bft) N 11 0 min 0,000 mm 0,0 UV-I 0 W/m 16,2 C 20,2 C 1,6 km/h (1 Bft) 100,00 %
08.08.2016 21:12 20,1 C 78 % 1016,6 hPa 0,0 l/m 0,6 km/h (0 Bft) N 11 0 min 0,000 mm 0,0 UV-I 0 W/m 16,1 C 20,1 C 1,6 km/h (1 Bft) 97,87 %
08.08.2016 21:14 20,1 C 78 % 1016,7 hPa 0,0 l/m 0,0 km/h (0 Bft) N 11 0 min 0,000 mm 0,0 UV-I 0 W/m 16,1 C 20,1 C 0,0 km/h (0 Bft) 97,87 %
08.08.2016 21:16 20,1 C 79 % 1016,7 hPa 0,0 l/m 0,0 km/h (0 Bft) N 11 0 min 0,000 mm 0,0 UV-I 0 W/m 16,3 C 20,1 C 0,0 km/h (0 Bft) 98,21 %
08.08.2016 21:18 20,1 C 79 % 1016,7 hPa 0,0 l/m 0,5 km/h (0 Bft) N 11 0 min 0,000 mm 0,0 UV-I 0 W/m 16,3 C 20,1 C 1,6 km/h (1 Bft) 97,37 %
08.08.2016 21:20 19,9 C 79 % 1016,7 hPa 0,0 l/m 0,2 km/h (0 Bft) N 11 0 min 0,000 mm 0,0 UV-I 0 W/m 16,1 C 19,9 C 1,6 km/h (1 Bft) 98,21 %
08.08.2016 21:22 19,7 C 81 % 1016,7 hPa 0,0 l/m 0,0 km/h (0 Bft) N 11 0 min 0,000 mm 0,0 UV-I 0 W/m 16,3 C 19,7 C 1,6 km/h (1 Bft) 97,22 %
08.08.2016 21:24 19,7 C 81 % 1016,7 hPa 0,0 l/m 0,0 km/h (0 Bft) N 11 0 min 0,000 mm 0,0 UV-I 0 W/m 16,3 C 19,7 C 0,0 km/h (0 Bft) 96,36 %
08.08.2016 21:26 19,6 C 81 % 1016,7 hPa 0,0 l/m 0,5 km/h (0 Bft) N 11 0 min 0,000 mm 0,0 UV-I 0 W/m 16,2 C 19,6 C 1,6 km/h (1 Bft) 95,74 %
08.08.2016 21:28 19,6 C 82 % 1016,7 hPa 0,0 l/m 0,1 km/h (0 Bft) N 11 0 min 0,000 mm 0,0 UV-I 0 W/m 16,4 C 19,6 C 1,6 km/h (1 Bft) 93,75 %
08.08.2016 21:30 19,5 C 82 % 1016,8 hPa 0,0 l/m 0,0 km/h (0 Bft) N 11 0 min 0,000 mm 0,0 UV-I 0 W/m 16,3 C 19,5 C 0,0 km/h (0 Bft) 97,37 %
08.08.2016 21:32 19,5 C 82 % 1016,8 hPa 0,0 l/m 0,0 km/h (0 Bft) N 11 0 min 0,000 mm 0,0 UV-I 0 W/m 16,3 C 19,5 C 0,0 km/h (0 Bft) 98,00 %
08.08.2016 21:34 19,5 C 82 % 1016,8 hPa 0,0 l/m 0,8 km/h (0 Bft) N 11 0 min 0,000 mm 0,0 UV-I 0 W/m 16,3 C 19,5 C 1,6 km/h (1 Bft) 96,23 %
08.08.2016 21:36 19,6 C 81 % 1016,8 hPa 0,0 l/m 0,8 km/h (0 Bft) N 11 0 min 0,000 mm 0,0 UV-I 0 W/m 16,2 C 19,6 C 1,6 km/h (1 Bft) 97,87 %
08.08.2016 21:38 19,6 C 81 % 1016,8 hPa 0,0 l/m 1,1 km/h (1 Bft) N 11 0 min 0,000 mm 0,0 UV-I 0 W/m 16,2 C 19,6 C 1,6 km/h (1 Bft) 97,87 %
08.08.2016 21:40 19,5 C 82 % 1016,8 hPa 0,0 l/m 0,3 km/h (0 Bft) N 11 0 min 0,000 mm 0,0 UV-I 0 W/m 16,3 C 19,5 C 1,6 km/h (1 Bft) 94,29 %
08.08.2016 21:42 19,4 C 81 % 1016,8 hPa 0,0 l/m 0,0 km/h (0 Bft) N 11 0 min 0,000 mm 0,0 UV-I 0 W/m 16,1 C 19,4 C 0,0 km/h (0 Bft) 96,23 %
08.08.2016 21:44 19,4 C 81 % 1016,8 hPa 0,0 l/m 0,2 km/h (0 Bft) N 11 0 min 0,000 mm 0,0 UV-I 0 W/m 16,1 C 19,4 C 1,6 km/h (1 Bft) 95,74 %
08.08.2016 21:46 19,3 C 81 % 1016,8 hPa 0,0 l/m 0,2 km/h (0 Bft) N 11 0 min 0,000 mm 0,0 UV-I 0 W/m 16,0 C 19,3 C 1,6 km/h (1 Bft) 97,87 %
08.08.2016 21:48 19,1 C 82 % 1016,8 hPa 0,0 l/m 0,1 km/h (0 Bft) N 11 0 min 0,000 mm 0,0 UV-I 0 W/m 16,0 C 19,1 C 1,6 km/h (1 Bft) 97,73 %
08.08.2016 21:50 19,0 C 81 % 1016,8 hPa 0,0 l/m 0,1 km/h (0 Bft) N 11 0 min 0,000 mm 0,0 UV-I 0 W/m 15,7 C 19,0 C 1,6 km/h (1 Bft) 100,00 %
08.08.2016 21:52 19,1 C 81 % 1016,8 hPa 0,0 l/m 0,0 km/h (0 Bft) N 11 0 min 0,000 mm 0,0 UV-I 0 W/m 15,8 C 19,1 C 0,0 km/h (0 Bft) 100,00 %
08.08.2016 21:54 19,1 C 81 % 1016,8 hPa 0,0 l/m 0,0 km/h (0 Bft) N 11 0 min 0,000 mm 0,0 UV-I 0 W/m 15,8 C 19,1 C 0,0 km/h (0 Bft) 97,87 %
08.08.2016 21:56 19,1 C 82 % 1016,8 hPa 0,0 l/m 0,0 km/h (0 Bft) N 11 0 min 0,000 mm 0,0 UV-I 0 W/m 16,0 C 19,1 C 0,0 km/h (0 Bft) 95,83 %
08.08.2016 21:58 19,1 C 82 % 1016,8 hPa 0,0 l/m 0,0 km/h (0 Bft) N 11 0 min 0,000 mm 0,0 UV-I 0 W/m 16,0 C 19,1 C 0,0 km/h (0 Bft) 96,88 %
08.08.2016 22:00 19,1 C 81 % 1016,8 hPa 0,0 l/m 0,0 km/h (0 Bft) N 11 0 min 0,000 mm 0,0 UV-I 0 W/m 15,8 C 19,1 C 0,0 km/h (0 Bft) 100,00 %
08.08.2016 22:02 19,1 C 82 % 1016,7 hPa 0,0 l/m 0,0 km/h (0 Bft) N 11 0 min 0,000 mm 0,0 UV-I 0 W/m 16,0 C 19,1 C 1,6 km/h (1 Bft) 100,00 %
08.08.2016 22:04 19,0 C 82 % 1016,8 hPa 0,0 l/m 0,5 km/h (0 Bft) N 11 0 min 0,000 mm 0,0 UV-I 0 W/m 15,9 C 19,0 C 1,6 km/h (1 Bft) 100,00 %
08.08.2016 22:06 18,9 C 82 % 1016,7 hPa 0,0 l/m 1,7 km/h (1 Bft) N 11 0 min 0,000 mm 0,0 UV-I 0 W/m 15,8 C 18,9 C 3,2 km/h (1 Bft) 100,00 %
08.08.2016 22:08 18,9 C 82 % 1016,7 hPa 0,0 l/m 1,8 km/h (1 Bft) N 11 0 min 0,000 mm 0,0 UV-I 0 W/m 15,8 C 18,9 C 3,2 km/h (1 Bft) 100,00 %
08.08.2016 22:10 18,8 C 82 % 1016,7 hPa 0,0 l/m 0,9 km/h (0 Bft) N 11 0 min 0,000 mm 0,0 UV-I 0 W/m 15,7 C 18,8 C 1,6 km/h (1 Bft) 100,00 %
08.08.2016 22:12 18,8 C 82 % 1016,7 hPa 0,0 l/m 1,0 km/h (0 Bft) N 11 0 min 0,000 mm 0,0 UV-I 0 W/m 15,7 C 18,8 C 1,6 km/h (1 Bft) 100,00 %
08.08.2016 22:14 18,7 C 81 % 1016,7 hPa 0,0 l/m 1,9 km/h (1 Bft) N 11 0 min 0,000 mm 0,0 UV-I 0 W/m 15,4 C 18,7 C 3,2 km/h (1 Bft) 100,00 %
08.08.2016 22:16 18,7 C 81 % 1016,7 hPa 0,0 l/m 2,1 km/h (1 Bft) N 11 0 min 0,000 mm 0,0 UV-I 0 W/m 15,4 C 18,7 C 3,2 km/h (1 Bft) 100,00 %
08.08.2016 22:18 18,7 C 81 % 1016,7 hPa 0,0 l/m 1,9 km/h (1 Bft) N 11 0 min 0,000 mm 0,0 UV-I 0 W/m 15,4 C 18,7 C 3,2 km/h (1 Bft) 100,00 %
08.08.2016 22:20 18,7 C 81 % 1016,7 hPa 0,0 l/m 1,8 km/h (1 Bft) N 11 0 min 0,000 mm 0,0 UV-I 0 W/m 15,4 C 18,7 C 3,2 km/h (1 Bft) 100,00 %
08.08.2016 22:22 18,7 C 79 % 1016,7 hPa 0,0 l/m 1,9 km/h (1 Bft) N 11 0 min 0,000 mm 0,0 UV-I 0 W/m 15,0 C 18,7 C 3,2 km/h (1 Bft) 100,00 %
08.08.2016 22:24 18,8 C 79 % 1016,7 hPa 0,0 l/m 1,8 km/h (1 Bft) N 11 0 min 0,000 mm 0,0 UV-I 0 W/m 15,1 C 18,8 C 3,2 km/h (1 Bft) 100,00 %
08.08.2016 22:26 18,8 C 79 % 1016,7 hPa 0,0 l/m 1,6 km/h (1 Bft) N 11 0 min 0,000 mm 0,0 UV-I 0 W/m 15,1 C 18,8 C 3,2 km/h (1 Bft) 100,00 %
08.08.2016 22:28 18,8 C 80 % 1016,7 hPa 0,0 l/m 1,8 km/h (1 Bft) N 11 0 min 0,000 mm 0,0 UV-I 0 W/m 15,3 C 18,8 C 3,2 km/h (1 Bft) 100,00 %
08.08.2016 22:30 18,8 C 79 % 1016,7 hPa 0,0 l/m 1,1 km/h (1 Bft) N-NO 26 0 min 0,000 mm 0,0 UV-I 0 W/m 15,1 C 18,8 C 1,6 km/h (1 Bft) 100,00 %
08.08.2016 22:32 18,8 C 79 % 1016,7 hPa 0,0 l/m 1,3 km/h (1 Bft) O 84 0 min 0,000 mm 0,0 UV-I 0 W/m 15,1 C 18,8 C 3,2 km/h (1 Bft) 100,00 %
08.08.2016 22:34 18,8 C 78 % 1016,7 hPa 0,0 l/m 2,3 km/h (1 Bft) S-SO 155 0 min 0,000 mm 0,0 UV-I 0 W/m 14,9 C 18,8 C 3,2 km/h (1 Bft) 100,00 %
08.08.2016 22:36 18,9 C 79 % 1016,8 hPa 0,0 l/m 3,2 km/h (1 Bft) S-SO 157 0 min 0,000 mm 0,0 UV-I 0 W/m 15,2 C 18,9 C 4,8 km/h (1 Bft) 100,00 %
08.08.2016 22:38 18,9 C 78 % 1016,7 hPa 0,0 l/m 2,7 km/h (1 Bft) S-SO 157 0 min 0,000 mm 0,0 UV-I 0 W/m 15,0 C 18,9 C 3,2 km/h (1 Bft) 100,00 %
08.08.2016 22:40 18,9 C 78 % 1016,7 hPa 0,0 l/m 3,4 km/h (1 Bft) S-SO 157 0 min 0,000 mm 0,0 UV-I 0 W/m 15,0 C 18,9 C 4,8 km/h (1 Bft) 100,00 %
08.08.2016 22:42 19,1 C 77 % 1016,7 hPa 0,0 l/m 4,1 km/h (1 Bft) S-SO 157 0 min 0,000 mm 0,0 UV-I 0 W/m 15,0 C 19,1 C 4,8 km/h (1 Bft) 100,00 %
08.08.2016 22:44 19,1 C 78 % 1016,7 hPa 0,0 l/m 4,2 km/h (1 Bft) S-SO 157 0 min 0,000 mm 0,0 UV-I 0 W/m 15,2 C 19,1 C 4,8 km/h (1 Bft) 100,00 %
08.08.2016 22:46 19,1 C 78 % 1016,7 hPa 0,0 l/m 3,9 km/h (1 Bft) S-SO 157 0 min 0,000 mm 0,0 UV-I 0 W/m 15,2 C 19,1 C 4,8 km/h (1 Bft) 100,00 %
08.08.2016 22:48 19,0 C 78 % 1016,7 hPa 0,0 l/m 3,4 km/h (1 Bft) S-SO 157 0 min 0,000 mm 0,0 UV-I 0 W/m 15,1 C 19,0 C 4,8 km/h (1 Bft) 100,00 %
08.08.2016 22:50 18,9 C 79 % 1016,7 hPa 0,0 l/m 4,3 km/h (1 Bft) S-SO 159 0 min 0,000 mm 0,0 UV-I 0 W/m 15,2 C 18,9 C 6,4 km/h (2 Bft) 97,87 %
08.08.2016 22:52 18,8 C 80 % 1016,7 hPa 0,0 l/m 4,3 km/h (1 Bft) S-SO 161 0 min 0,000 mm 0,0 UV-I 0 W/m 15,3 C 18,8 C 6,4 km/h (2 Bft) 100,00 %
08.08.2016 22:54 18,7 C 80 % 1016,7 hPa 0,0 l/m 4,6 km/h (1 Bft) S-SO 163 0 min 0,000 mm 0,0 UV-I 0 W/m 15,2 C 18,7 C 6,4 km/h (2 Bft) 100,00 %
08.08.2016 22:56 18,7 C 81 % 1016,7 hPa 0,0 l/m 4,5 km/h (1 Bft) S 171 0 min 0,000 mm 0,0 UV-I 0 W/m 15,4 C 18,7 C 8,0 km/h (2 Bft) 100,00 %
08.08.2016 22:58 18,7 C 81 % 1016,7 hPa 0,0 l/m 4,7 km/h (1 Bft) S 171 0 min 0,000 mm 0,0 UV-I 0 W/m 15,4 C 18,7 C 6,4 km/h (2 Bft) 95,74 %
08.08.2016 23:00 18,7 C 82 % 1016,7 hPa 0,0 l/m 3,0 km/h (1 Bft) S 171 0 min 0,000 mm 0,0 UV-I 0 W/m 15,6 C 18,7 C 6,4 km/h (2 Bft) 100,00 %
08.08.2016 23:02 18,7 C 82 % 1016,7 hPa 0,0 l/m 3,2 km/h (1 Bft) S 171 0 min 0,000 mm 0,0 UV-I 0 W/m 15,6 C 18,7 C 6,4 km/h (2 Bft) 100,00 %
08.08.2016 23:04 18,7 C 82 % 1016,8 hPa 0,0 l/m 4,3 km/h (1 Bft) S 173 0 min 0,000 mm 0,0 UV-I 0 W/m 15,6 C 18,7 C 6,4 km/h (2 Bft) 100,00 %
08.08.2016 23:06 18,7 C 83 % 1016,8 hPa 0,0 l/m 4,5 km/h (1 Bft) S 170 0 min 0,000 mm 0,0 UV-I 0 W/m 15,8 C 18,7 C 8,0 km/h (2 Bft) 100,00 %
08.08.2016 23:08 18,7 C 83 % 1016,8 hPa 0,0 l/m 4,1 km/h (1 Bft) S 171 0 min 0,000 mm 0,0 UV-I 0 W/m 15,8 C 18,7 C 6,4 km/h (2 Bft) 98,11 %
08.08.2016 23:10 18,7 C 83 % 1016,8 hPa 0,0 l/m 4,4 km/h (1 Bft) S 171 0 min 0,000 mm 0,0 UV-I 0 W/m 15,8 C 18,7 C 6,4 km/h (2 Bft) 100,00 %
08.08.2016 23:12 18,7 C 82 % 1016,7 hPa 0,0 l/m 4,3 km/h (1 Bft) S-SO 163 0 min 0,000 mm 0,0 UV-I 0 W/m 15,6 C 18,7 C 8,0 km/h (2 Bft) 95,74 %
08.08.2016 23:14 18,8 C 81 % 1016,7 hPa 0,0 l/m 5,0 km/h (1 Bft) S 170 0 min 0,000 mm 0,0 UV-I 0 W/m 15,5 C 18,8 C 8,0 km/h (2 Bft) 97,37 %
08.08.2016 23:16 18,9 C 81 % 1016,7 hPa 0,0 l/m 4,1 km/h (1 Bft) S 181 0 min 0,000 mm 0,0 UV-I 0 W/m 15,6 C 18,9 C 6,4 km/h (2 Bft) 95,56 %
08.08.2016 23:18 18,9 C 80 % 1016,7 hPa 0,0 l/m 4,4 km/h (1 Bft) S 171 0 min 0,000 mm 0,0 UV-I 0 W/m 15,4 C 18,9 C 6,4 km/h (2 Bft) 96,15 %
08.08.2016 23:20 19,1 C 80 % 1016,7 hPa 0,0 l/m 3,1 km/h (1 Bft) S-SO 167 0 min 0,000 mm 0,0 UV-I 0 W/m 15,6 C 19,1 C 8,0 km/h (2 Bft) 98,00 %
08.08.2016 23:22 19,1 C 80 % 1016,7 hPa 0,0 l/m 5,5 km/h (1 Bft) S 169 0 min 0,000 mm 0,0 UV-I 0 W/m 15,6 C 19,1 C 8,0 km/h (2 Bft) 97,87 %
08.08.2016 23:24 19,0 C 80 % 1016,7 hPa 0,0 l/m 5,5 km/h (1 Bft) S-SO 167 0 min 0,000 mm 0,0 UV-I 0 W/m 15,5 C 19,0 C 8,0 km/h (2 Bft) 97,44 %
08.08.2016 23:26 18,9 C 81 % 1016,7 hPa 0,0 l/m 4,9 km/h (1 Bft) S-SO 167 0 min 0,000 mm 0,0 UV-I 0 W/m 15,6 C 18,9 C 6,4 km/h (2 Bft) 97,87 %
08.08.2016 23:28 18,8 C 81 % 1016,7 hPa 0,0 l/m 4,9 km/h (1 Bft) S-SO 167 0 min 0,000 mm 0,0 UV-I 0 W/m 15,5 C 18,8 C 6,4 km/h (2 Bft) 96,23 %
08.08.2016 23:30 18,8 C 81 % 1016,7 hPa 0,0 l/m 5,7 km/h (1 Bft) S-SO 167 0 min 0,000 mm 0,0 UV-I 0 W/m 15,5 C 18,8 C 6,4 km/h (2 Bft) 97,56 %
08.08.2016 23:32 18,8 C 81 % 1016,7 hPa 0,0 l/m 7,0 km/h (2 Bft) S 169 0 min 0,000 mm 0,0 UV-I 0 W/m 15,5 C 18,5 C 8,0 km/h (2 Bft) 97,87 %
08.08.2016 23:34 18,8 C 81 % 1016,7 hPa 0,0 l/m 5,9 km/h (2 Bft) S 169 0 min 0,000 mm 0,0 UV-I 0 W/m 15,5 C 18,8 C 8,0 km/h (2 Bft) 98,00 %
08.08.2016 23:36 18,7 C 81 % 1016,7 hPa 0,0 l/m 4,7 km/h (1 Bft) S 169 0 min 0,000 mm 0,0 UV-I 0 W/m 15,4 C 18,7 C 8,0 km/h (2 Bft) 97,87 %
08.08.2016 23:38 18,7 C 82 % 1016,7 hPa 0,0 l/m 5,8 km/h (2 Bft) S 169 0 min 0,000 mm 0,0 UV-I 0 W/m 15,6 C 18,7 C 8,0 km/h (2 Bft) 98,00 %
08.08.2016 23:40 18,7 C 82 % 1016,7 hPa 0,0 l/m 5,6 km/h (1 Bft) S 169 0 min 0,000 mm 0,0 UV-I 0 W/m 15,6 C 18,7 C 6,4 km/h (2 Bft) 96,15 %
08.08.2016 23:42 18,6 C 82 % 1016,7 hPa 0,0 l/m 3,9 km/h (1 Bft) S 170 0 min 0,000 mm 0,0 UV-I 0 W/m 15,5 C 18,6 C 6,4 km/h (2 Bft) 97,06 %
08.08.2016 23:44 18,5 C 82 % 1016,7 hPa 0,0 l/m 4,8 km/h (1 Bft) S 171 0 min 0,000 mm 0,0 UV-I 0 W/m 15,4 C 18,5 C 8,0 km/h (2 Bft) 97,37 %
08.08.2016 23:46 18,4 C 83 % 1016,7 hPa 0,0 l/m 3,4 km/h (1 Bft) S 171 0 min 0,000 mm 0,0 UV-I 0 W/m 15,5 C 18,4 C 6,4 km/h (2 Bft) 97,87 %
08.08.2016 23:48 18,3 C 83 % 1016,7 hPa 0,0 l/m 3,9 km/h (1 Bft) S 172 0 min 0,000 mm 0,0 UV-I 0 W/m 15,4 C 18,3 C 8,0 km/h (2 Bft) 94,34 %
08.08.2016 23:50 18,3 C 82 % 1016,7 hPa 0,0 l/m 3,0 km/h (1 Bft) S 172 0 min 0,000 mm 0,0 UV-I 0 W/m 15,2 C 18,3 C 4,8 km/h (1 Bft) 100,00 %
08.08.2016 23:52 18,3 C 82 % 1016,7 hPa 0,0 l/m 2,8 km/h (1 Bft) S 172 0 min 0,000 mm 0,0 UV-I 0 W/m 15,2 C 18,3 C 4,8 km/h (1 Bft) 100,00 %
08.08.2016 23:54 18,4 C 82 % 1016,7 hPa 0,0 l/m 1,7 km/h (1 Bft) S 172 0 min 0,000 mm 0,0 UV-I 0 W/m 15,3 C 18,4 C 3,2 km/h (1 Bft) 97,37 %
08.08.2016 23:56 18,5 C 81 % 1016,7 hPa 0,0 l/m 2,5 km/h (1 Bft) S 172 0 min 0,000 mm 0,0 UV-I 0 W/m 15,2 C 18,5 C 4,8 km/h (1 Bft) 100,00 %
08.08.2016 23:58 18,5 C 81 % 1016,8 hPa 0,0 l/m 3,0 km/h (1 Bft) S 173 0 min 0,000 mm 0,0 UV-I 0 W/m 15,2 C 18,5 C 4,8 km/h (1 Bft) 100,00 %
_ Min-Zeit 06:18 15:18 18:38 - 02:00 - - - - - - 06:14 06:18 02:00 13:58
Minimum _ 11,3 C 43 % 1016,3 hPa - 0,0 km/h (0 Bft) - - - - - - 10,3 C 11,3 C 0,0 km/h (0 Bft) 92,00 %
_ Max-Zeit 16:58 06:24 00:00 00:00 14:24 - - 06:00 15:00 13:16 13:18 20:04 16:58 13:32 00:20
Maximum _ 27,1 C 95 % 1023,5 hPa 0,0 l/m 9,0 km/h
SW (2 Bft)
- - 2 min 0,534 mm 6,3 UV-I 833 W/m 17,5 C 27,1 C 17,7 km/h
W-SW (3 Bft)
100,00 %
Durchschnitt _ 19,4 C 73 % 1019,8 hPa #0,0 l/m 2,4 km/h (1 Bft) S-SO - #12:26 h #4,420 mm 3,6 UV-I 466 W/m 13,8 C 19,4 C 4,5 km/h (1 Bft) 98,67 %